     2              OBSERVATION DATA    GPS                 RINEX VERSION / TYPE
teqc 1998Mar9 19980522 18:50:32UTC                          PGM / RUN BY / DATE
                                                            COMMENT
Original Marker Name: 6056                                  COMMENT
Campaign Name: Landers 1997-1998                            COMMENT
4-Character Station Name: 6056                              COMMENT
6-Character Antenna Code: DMRCHT                            COMMENT
Vertical Measurement Point: BCR                             COMMENT
Vertical Offset to Rinex Ref. Point: 0.0349                 COMMENT
Radial Measurement Point: ECF                               COMMENT
Radial Offset to Rinex Ref. Point: 0.1896                   COMMENT
Antenna Height from Field Measurement: 0.8240 m             COMMENT
Additional Antenna Identification Info.:                    COMMENT
Turborogue and Ashtech Choke Ring                           COMMENT
Original XYZ: 0.0000 0.0000 0.0000                          COMMENT
New XYZ position is based on association with SCEC monument COMMENT
E1F2H2C2+0011. Position of that monument is believed to be  COMMENT
valid to within 1 m horizontally; vertical accuracy         COMMENT
should be no worse than 3-times this value.                 COMMENT
                                                            COMMENT
Revised Rinex header created by UCSD GPS archive for        COMMENT
GSAC on 17-Apr-1999 (1999:107) 06:06:03 GMT                 COMMENT
For assistance contact dagnew@ucsd.edu or hjohnson@ucsd.edu COMMENT
                                                            COMMENT
Q720 1944                                                   MARKER NAME
MSM UNIV CALIF LOS ANGELES                                  OBSERVER / AGENCY
107 ASHTECH Z12-XII3 1F50                                   REC # / TYPE / VERS
782 DORNE-MARGOL. TYPE T                                    ANT # / TYPE
 -2364003.0000 -4711119.0000  3580878.0000                  APPROX POSITION XYZ
        0.7670        0.0000        0.0000                  ANTENNA: DELTA H/E/N
     1     1     0                                          WAVELENGTH FACT L1/2
     7    C1    L1    L2    P1    P2    S1    S2            # / TYPES OF OBSERV
     0                                                      INTERVAL
  1998     1     3     5    56    0.000000                  TIME OF FIRST OBS
  1998     1     3    18     8   30.000000                  TIME OF LAST OBS
     0                                                      # OF SATELLITES
                                                            END OF HEADER
 98  1  3  5 56  0.0000000  0  7G 5G 8G17G 6G10G24G30
  20962751.085   -16945912.41059 -13185904.54848  20962750.640    20962756.434
       245.000         214.000
  23928370.416    -4012067.05759  -3108672.60045  23928370.064    23928376.018
       219.000         161.000
  24622947.602    -6815044.50059  -5273956.27445  24622946.169    24622953.610
       209.000         151.000
  22610833.370   -21272327.27359 -16549215.60246  22610833.266    22610838.773
       230.000         186.000
  21252819.313   -30532726.05459 -23771586.92047  21252818.490    21252824.536
       243.000         208.000
  21867585.867    -7474969.23359  -5816443.60847  21867585.406    21867591.622
       238.000         198.000
  20840208.252   -35766126.88259 -27842274.07448  20840208.434    20840213.323
       246.000         213.000
 98  1  3  5 56 29.9990000  0  7G 5G 8G17G 6G10G24G30
  20667021.898   -16924559.99149 -13169266.32148  20667021.299    20667027.077
       245.000         214.000
  23638383.869    -3960536.93149  -3068519.24345  23638383.488    23638389.796
       216.000         161.000
  24299870.340    -6937406.37249  -5369303.19545  24299870.210    24299877.399
       211.000         150.000
  22292158.754   -21371553.81249 -16626534.97446  22292158.830    22292163.823
       231.000         187.000
  20944037.851   -30579963.29849 -23808395.15247  20944037.145    20944042.955
       243.000         208.000
  21574349.446    -7440517.21349  -5789597.89147  21574349.319    21574355.348
       238.000         198.000
  20528772.879   -35827310.82249 -27889949.87848  20528773.086    20528778.045
       245.000         213.000
 98  1  3  5 56 59.9990000  0  7G 5G 8G17G 6G10G24G30
  20671176.177   -16902728.95049 -13152255.14248  20671175.703    20671181.603
       245.000         214.000
  23648209.421    -3908902.76449  -3028284.82545  23648209.365    23648216.322
       217.000         160.000
  24276618.632    -7059595.25449  -5464515.32345  24276618.067    24276623.740
       209.000         148.000
  22273288.170   -21470719.41549 -16703806.86546  22273287.944    22273293.715
       230.000         187.000
  20935165.167   -30626589.58349 -23844727.31547  20935164.427    20935170.296
       243.000         209.000
  21580936.126    -7405903.91549  -5762626.49547  21580935.729    21580941.873
       237.000         197.000
  20517231.989   -35887958.58549 -27937207.87548  20517232.126    20517237.130
       245.000         213.000
 98  1  3  5 57 29.9990000  0  7G 5G 8G17G 6G10G24G30
  20675425.323   -16880399.53649 -13134855.62548  20675424.931    20675430.671
       246.000         214.000
  23658056.877    -3857154.15349  -2987961.24845  23658056.438    23658062.825
       216.000         160.000
  24253400.318    -7181608.09649  -5559590.27445  24253398.901    24253406.715
       208.000         147.000
  22254432.424   -21569806.87949 -16781017.85846  22254432.467    22254437.809
       231.000         187.000
  20926411.948   -30672588.11649 -23880570.32247  20926411.057    20926417.008
       243.000         209.000
  21587557.517    -7371108.23649  -5735512.99147  21587557.455    21587563.351
       238.000         197.000
  20505798.217   -35948043.58449 -27984027.35848  20505798.401    20505803.293
       245.000         213.000
 98  1  3  5 57 59.9990000  0  7G 5G 8G17G 6G10G24G30
  20679767.691   -16857580.60049 -13117074.64748  20679767.305    20679772.958
       245.000         214.000
  23667923.859    -3805303.10749  -2947557.83245  23667922.398    23667930.161
       216.000         160.000
  24230210.240    -7303472.80449  -5654549.78045  24230209.745    24230216.153
       209.000         146.000
  22235589.836   -21668825.56949 -16858175.26147  22235589.732    22235595.848
       230.000         188.000
  20917777.133   -30717964.28549 -23915928.36647  20917776.315    20917782.146
       243.000         209.000
  21594212.702    -7336134.94649  -5708261.08347  21594212.608    21594218.588
       238.000         197.000
  20494469.794   -36007574.82349 -28030415.34548  20494470.084    20494474.853
       245.000         213.000
 98  1  3  5 58 29.9990000  0  7G 5G 8G17G 6G10G24G30
  20684203.252   -16834271.55349 -13098911.76748  20684202.674    20684208.606
       245.000         213.000
  23677814.851    -3753325.46649  -2907055.75945  23677813.631    23677819.919
       214.000         159.000
  24207050.827    -7425176.40549  -5749383.78045  24207049.788    24207057.182
       209.000         146.000
  22216761.521   -21767769.13849 -16935274.13647  22216761.446    22216766.585
       231.000         188.000
  20909257.577   -30762734.88549 -23950814.54547  20909256.813    20909262.797
       244.000         209.000
  21600901.241    -7300986.63849  -5680872.80547  21600900.887    21600907.118
       237.000         196.000
  20483249.792   -36066536.29949 -28076359.36748  20483249.991    20483254.883
       245.000         213.000
 98  1  3  5 58 59.9990000  0  7G 5G 8G17G 6G10G24G30
  20688733.304   -16810465.93149 -13080361.93948  20688732.778    20688738.461
       245.000         213.000
  23687734.978    -3701194.33949  -2866434.10945  23687735.442    23687740.738
       213.000         157.000
  24183924.553    -7546705.89249  -5844082.10245  24183924.248    24183931.606
       210.000         146.000
  22197949.188   -21866628.84249 -17012307.66347  22197948.900    22197954.710
       231.000         188.000
  20900851.391   -30806909.70049 -23985236.47847  20900850.542    20900856.408
       243.000         209.000
  21607622.342    -7265666.84949  -5653350.89747  21607622.264    21607628.543
       238.000         196.000
  20472144.116   -36124897.05049 -28121835.29248  20472144.329    20472149.293
       245.000         213.000
 98  1  3  5 59 29.9990000  0  7G 5G 8G17G 6G10G24G30
  20693352.310   -16786192.95849 -13061447.93348  20693351.771    20693357.559
       245.000         213.000
  23697678.813    -3648939.27649  -2825715.91245  23697678.029    23697683.673
       212.000         154.000
  24160829.337    -7668072.22149  -5938653.28545  24160827.877    24160836.130
       207.000         147.000
  22179145.565   -21965442.52049 -17089305.32547  22179144.808    22179150.825
       231.000         188.000
  20892556.333   -30850500.57349 -24019203.38447  20892555.435    20892561.661
       243.000         209.000
  21614368.373    -7230216.35449  -5625727.14147  21614368.164    21614374.100
       238.000         196.000
  20461150.274   -36182669.97749 -28166853.16748  20461150.430    20461155.449
       245.000         213.000
 98  1  3  5 59 59.9990000  0  7G 5G 8G17G 6G10G24G30
  20698060.694   -16761450.24249 -13042167.90748  20698060.161    20698066.205
       244.000         213.000
  23707647.825    -3596551.99149  -2784894.66945  23707647.327    23707654.169
       214.000         153.000
  24137769.997    -7789249.43949  -6033077.09345  24137769.100    24137775.522
       210.000         148.000
  22160352.466   -22064200.84949 -17166259.86347  22160352.317    22160357.795
       230.000         188.000
  20884373.004   -30893504.25749 -24052712.74847  20884372.240    20884378.242
       243.000         209.000
  21621138.819    -7194637.66849  -5598003.50147  21621138.917    21621144.662
       237.000         196.000
  20450269.591   -36239848.11149 -28211407.56848  20450269.823    20450274.825
       245.000         213.000
 98  1  3  6  0 29.9990000  0  7G 5G 8G17G 6G10G24G30
  20702857.258   -16736244.26549 -13022526.90348  20702856.840    20702862.815
       245.000         213.000
  23717640.963    -3544037.75149  -2743974.48045  23717640.729    23717646.050
       216.000         154.000
  24114748.374    -7910229.29849  -6127347.11845  24114748.157    24114754.618
       210.000         150.000
  22141570.200   -22162902.14449 -17243169.94147  22141569.900    22141575.536
       231.000         188.000
  20876301.177   -30935922.22249 -24085765.70547  20876300.298    20876306.133
       243.000         209.000
  21627930.916    -7158944.77449  -5570190.85847  21627930.745    21627936.655
       237.000         195.000
  20439501.560   -36296434.60949 -28255500.94448  20439501.787    20439506.800
       245.000         213.000
 98  1  3  6  0 59.9990000  0  7G 5G 8G17G 6G10G24G30
  20707742.822   -16710570.56849 -13002521.43248  20707742.468    20707748.121
       244.000         213.000
  23727651.863    -3491430.26949  -2702981.63445  23727651.579    23727657.771
       214.000         156.000
  24091765.054    -8031007.68449  -6221460.14345  24091764.808    24091771.892
       213.000         152.000
  22122798.939   -22261545.57049 -17320034.94247  22122798.485    22122804.560
       231.000         188.000
  20868344.876   -30977732.71949 -24118345.31247  20868343.926    20868350.021
       243.000         209.000
  21634746.487    -7123128.85949  -5542282.36447  21634746.617    21634752.236
       237.000         195.000
  20428844.672   -36352437.10349 -28299139.26348  20428845.095    20428849.893
       245.000         213.000
 98  1  3  6  1 29.9990000  0  7G 5G 8G17G 6G10G24G30
  20712716.333   -16684434.57749 -12982155.71947  20712715.845    20712721.792
       244.000         212.000
  23737675.984    -3438752.90549  -2661934.32245  23737675.229    23737682.568
       213.000         155.000
  24068819.364    -8151588.53949  -6315419.24045  24068818.694    24068825.387
       214.000         155.000
  22104040.171   -22360123.55149 -17396848.94247  22104040.022    22104045.572
       231.000         189.000
  20860503.198   -31018940.94549 -24150455.61047  20860502.345    20860508.502
       243.000         209.000
  21641583.621    -7087199.56849  -5514285.51747  21641583.503    21641589.047
       237.000         194.000
  20418297.202   -36407864.65049 -28342329.56348  20418297.377    20418302.341
       245.000         214.000
 98  1  3  6  1 59.9990000  0  7G 5G 8G17G 6G10G24G30
  20717779.490   -16657827.34849 -12961422.82747  20717778.980    20717784.856
       244.000         212.000
  23747715.189    -3385996.37549  -2620825.35245  23747715.309    23747721.243
       212.000         154.000
  24045909.571    -8271980.61949  -6409231.25445  24045909.213    24045916.207
       212.000         155.000
  22085297.546   -22458616.80149 -17473596.91147  22085297.447    22085302.483
       231.000         189.000
  20852775.906   -31059548.12549 -24182097.56347  20852775.074    20852781.093
       242.000         209.000
  21648444.464    -7051145.24549  -5486191.24647  21648443.984    21648450.004
       236.000         194.000
  20407858.332   -36462721.17449 -28385074.90848  20407858.603    20407863.552
       245.000         214.000
 98  1  3  6  2 29.9990000  0  7G 5G 8G17G 6G10G24G30
  20722940.305   -16630706.88649 -12940289.99547  20722939.787    20722945.790
       244.000         212.000
  23757774.465    -3333134.47849  -2579634.26945  23757774.575    23757780.303
       211.000         155.000
  24023040.825    -8392156.04049  -6502874.42945  24023039.696    24023047.150
       213.000         154.000
  22066578.035   -22556988.25349 -17550249.97547  22066577.566    22066583.680
       230.000         189.000
  20845171.392   -31099509.82849 -24213236.54747  20845170.599    20845176.671
       242.000         208.000
  21655338.524    -7014916.60249  -5457961.13747  21655338.461    21655344.424
       237.000         194.000
  20397535.607   -36516967.40849 -28427344.70548  20397535.730    20397541.037
       245.000         214.000
 98  1  3  6  2 59.9990000  0  7G 5G 8G17G 6G10G24G30
  20728189.357   -16603122.51349 -12918795.68047  20728188.554    20728194.748
       243.000         211.000
  23767840.264    -3280237.91249  -2538416.18145  23767839.837    23767847.007
       210.000         155.000
  24000201.608    -8512176.46449  -6596396.83645  24000201.027    24000207.200
       212.000         153.000
  22047871.760   -22655289.93349 -17626848.67847  22047871.656    22047877.246
       230.000         189.000
  20837680.343   -31138875.39149 -24243911.00947  20837679.475    20837685.646
       242.000         208.000
  21662254.245    -6978574.28649  -5429642.46247  21662254.283    21662259.892
       236.000         194.000
  20387319.316   -36570654.53649 -28469178.84148  20387319.672    20387324.760
       247.000         214.000
 98  1  3  6  3 29.9990000  0  7G 5G 8G17G 6G10G24G30
  20733530.131   -16575056.51449 -12896926.08047  20733529.776    20733535.739
       243.000         211.000
  23777919.753    -3227269.75349  -2497142.31045  23777918.500    23777926.225
       210.000         155.000
  23977391.805    -8632042.35249  -6689798.82245  23977391.377    23977398.742
       213.000         154.000
  22029180.795   -22753511.22649 -17703384.74447  22029180.406    22029186.227
       232.000         189.000
  20830307.821   -31177618.16449 -24274100.18047  20830306.829    20830313.079
       242.000         208.000
  21669191.643    -6942117.76249  -5401234.78147  21669191.571    21669197.221
       235.000         193.000
  20377211.144   -36623773.20349 -28510570.02448  20377211.240    20377216.069
       247.000         214.000
 98  1  3  6  3 59.9990000  0  7G 5G 8G17G 6G10G24G30
  20738960.567   -16546519.53149 -12874689.48847  20738960.127    20738966.028
       244.000         211.000
  23788012.122    -3174233.59149  -2455815.45345  23788011.402    23788018.138
       207.000         154.000
  23954611.974    -8751751.47349  -6783078.65445  23954610.958    23954618.541
       213.000         154.000
  22010500.650   -22851675.93249 -17779876.72747  22010500.578    22010505.748
       231.000         190.000
  20823054.126   -31215736.65549 -24303802.90047  20823053.200    20823059.547
       242.000         208.000
  21676153.143    -6905534.55849  -5372728.40347  21676153.111    21676159.130
       236.000         193.000
  20367206.489   -36676347.79049 -28551537.25348  20367206.716    20367211.525
       247.000         214.000
 98  1  3  6  4 29.9990000  0  7G 5G 8G17G 6G10G24G30
  20744478.323   -16517523.63249 -12852095.29647  20744477.897    20744483.770
       243.000         211.000
  23798113.552    -3121150.32849  -2414451.88745  23798113.599    23798120.129
       208.000         153.000
  23931862.507    -8871300.45249  -6876233.69245  23931861.957    23931868.504
       216.000         154.000
  21991828.818   -22949796.79849 -17856334.53347  21991828.754    21991834.423
       232.000         190.000
  20815918.774   -31253233.08949 -24333020.89547  20815917.930    20815924.111
       242.000         208.000
  21683136.400    -6868837.17649  -5344133.05147  21683136.207    21683142.348
       235.000         192.000
  20357305.427   -36728378.48849 -28592080.66248  20357305.740    20357310.819
       247.000         214.000
 98  1  3  6  4 59.9990000  0  7G 5G 8G17G 6G10G24G30
  20750078.416   -16488094.85949 -12829163.80447  20750078.050    20750083.999
       243.000         211.000
  23808222.216    -3068029.35849  -2373058.95745  23808222.001    23808228.698
       208.000         153.000
  23909139.411    -8990711.09349  -6969280.94445  23909138.588    23909145.722
       217.000         156.000
  21973160.864   -23047898.01949 -17932777.03747  21973160.887    21973166.560
       232.000         190.000
  20808896.673   -31290134.30449 -24361775.08347  20808895.981    20808901.972
       242.000         208.000
  21690134.853    -6832059.75349  -5315475.32047  21690134.772    21690141.504
       235.000         192.000
  20347503.958   -36779885.72549 -28632216.18448  20347504.116    20347509.117
       247.000         214.000
 98  1  3  6  5 29.9990000  0  7G 5G 8G17G 6G10G24G30
  20755764.987   -16458211.84449 -12805878.35347  20755764.693    20755770.796
       243.000         211.000
  23818348.469    -3014816.12349  -2331594.12745  23818347.521    23818355.480
       209.000         151.000
  23886449.507    -9109947.82949  -7062192.66845  23886449.545    23886455.551
       217.000         158.000
  21954503.399   -23145943.90449 -18009176.42347  21954503.124    21954509.252
       232.000         190.000
  20801990.863   -31326424.64549 -24390053.27247  20801990.112    20801996.146
       242.000         208.000
  21697157.598    -6795155.15249  -5286718.50247  21697157.440    21697163.607
       235.000         192.000
  20337808.879   -36830833.52449 -28671915.78548  20337809.188    20337814.317
       247.000         214.000
 98  1  3  6  5 59.9990000  0  7G 5G 8G17G 6G10G24G30
  20761533.397   -16427899.03049 -12782257.98647  20761532.970    20761538.677
       243.000         210.000
  23828486.922    -2961538.19549  -2290078.85445  23828486.952    23828491.977
       211.000         149.000
  23863792.598    -9229011.33149  -7154969.42045  23863791.801    23863798.405
       218.000         158.000
  21935855.363   -23243940.09149 -18085537.06547  21935855.074    21935860.931
       232.000         190.000
  20795194.022   -31362142.29849 -24417885.20447  20795193.367    20795199.368
       242.000         208.000
  21704204.069    -6758125.96949  -5257864.59147  21704204.152    21704210.131
       235.000         192.000
  20328222.811   -36881208.73449 -28711169.20548  20328223.084    20328228.134
       247.000         214.000
 98  1  3  6  6 29.9990000  0  7G 5G 8G17G 6G10G24G30
  20767383.789   -16397154.87949 -12758301.51147  20767383.270    20767389.135
       243.000         210.000
  23838636.516    -2908201.99549  -2248518.16545  23838636.455    23838641.915
       211.000         147.000
  23841165.180    -9347919.27949  -7247624.95845  23841164.485    23841172.432
       217.000         158.000
  21917218.771   -23341875.91949 -18161850.69447  21917218.505    21917224.017
       231.000         190.000
  20788506.479   -31397285.61949 -24445269.61147  20788505.747    20788511.831
       242.000         208.000
  21711269.272    -6720998.49649  -5228934.10647  21711269.301    21711275.043
       235.000         192.000
  20318748.675   -36930995.64049 -28749964.21148  20318748.863    20318753.849
       247.000         214.000
 98  1  3  6  6 59.9990000  0  7G 5G 8G17G 6G10G24G30
  20773312.146   -16366000.83149 -12734025.63847  20773311.786    20773317.639
       243.000         210.000
  23848793.133    -2854828.23749  -2206928.20845  23848792.554    23848798.470
       208.000         144.000
  23818562.486    -9466697.08249  -7340179.09345  23818562.083    23818569.411
       217.000         157.000
  21898591.836   -23439760.91749 -18238124.71747  21898591.800    21898597.254
       232.000         191.000
  20781923.346   -31431880.01049 -24472226.27347  20781922.365    20781928.438
       242.000         208.000
  21718348.142    -6683799.10749  -5199947.57947  21718348.240    21718354.332
       235.000         192.000
  20309381.941   -36980218.17949 -28788319.44748  20309382.117    20309387.181
       247.000         214.000
 98  1  3  6  7 29.9990000  0  7G 5G 8G17G 6G10G24G30
  20779322.508   -16334416.24449 -12709414.24847  20779322.235    20779328.021
       243.000         210.000
  23858958.757    -2801407.38649  -2165301.54345  23858957.557    23858965.860
       208.000         142.000
  23795989.691    -9585318.05449  -7432611.01345  23795989.749    23795996.186
       216.000         156.000
  21879979.475   -23537569.57849 -18314339.24547  21879979.605    21879985.107
       233.000         191.000
  20775451.655   -31465889.02549 -24498726.79747  20775450.955    20775456.776
       242.000         208.000
  21725446.018    -6646500.03549  -5170883.37047  21725445.437    21725452.048
       235.000         192.000
  20300128.618   -37028844.77649 -28826210.30748  20300128.903    20300133.783
       247.000         214.000
 98  1  3  6  7 59.9990000  0  7G 5G 8G17G 6G10G24G30
  20785418.897   -16302379.69249 -12684450.68247  20785418.544    20785424.684
       243.000         210.000
  23869131.706    -2747947.77049  -2123644.68745  23869130.055    23869136.298
       207.000         141.000
  23773450.709    -9703761.13349  -7524904.30045  23773450.153    23773457.588
       214.000         156.000
  21861382.737   -23635296.09649 -18390489.77647  21861382.220    21861388.091
       234.000         191.000
  20769098.145   -31499277.00049 -24524743.39647  20769097.453    20769103.624
       242.000         208.000
  21732562.770    -6609101.08749  -5141741.34347  21732562.480    21732568.629
       235.000         192.000
  20290993.109   -37076852.31349 -28863618.78948  20290993.298    20290998.484
       247.000         215.000
 98  1  3  6  8 29.9990000  0  7G 5G 8G17G 6G10G24G30
  20791598.428   -16269906.18349 -12659146.64647  20791597.956    20791603.540
       243.000         210.000
  23879310.324    -2694458.25849  -2081964.50845  23879309.778    23879315.824
       212.000         142.000
  23750942.828    -9822040.40249  -7617069.96645  23750941.675    23750948.906
       213.000         154.000
  21842800.442   -23732946.83749 -18466581.26847  21842800.454    21842805.985
       233.000         191.000
  20762861.956   -31532048.29349 -24550279.46647  20762861.200    20762867.230
       242.000         209.000
  21739695.271    -6571619.44049  -5112534.88047  21739695.172    21739701.485
       234.000         191.000
  20281969.789   -37124270.39149 -28900567.95448  20281969.994    20281975.229
       247.000         215.000
 98  1  3  6  8 59.9990000  0  7G 5G 8G17G 6G10G24G30
  20797858.655   -16237008.28849 -12633511.93747  20797858.312    20797864.082
       242.000         209.000
  23889491.267    -2640957.23049  -2040275.40945  23889491.149    23889495.854
       216.000         144.000
  23728466.549    -9940152.68349  -7709105.47545  23728466.235    23728472.676
       217.000         154.000
  21824231.037   -23830529.65149 -18542619.80947  21824230.470    21824236.232
       233.000         191.000
  20756738.257   -31564228.48049 -24575354.93147  20756737.520    20756743.552
       242.000         209.000
  21746844.543    -6534049.68149  -5083259.74847  21746844.323    21746850.597
       234.000         191.000
  20273057.347   -37171105.50049 -28937062.85648  20273057.704    20273062.753
       247.000         215.000
 98  1  3  6  9 29.9990000  0  7G 5G 8G17G 6G10G24G30
  20804207.738   -16203643.51049 -12607513.42047  20804207.317    20804213.410
       243.000         209.000
  23899683.091    -2587399.25349  -1998541.90445  23899683.164    23899688.712
       216.000         147.000
  23706030.927   -10058053.24349  -7800976.05645  23706031.026    23706037.793
       218.000         157.000
  21805679.412   -23928019.13449 -18618585.64147  21805679.222    21805684.640
       234.000         191.000
  20750733.468   -31595783.82649 -24599943.51047  20750732.647    20750738.700
       242.000         209.000
  21754018.836    -6496348.61149  -5053882.30247  21754018.626    21754024.451
       234.000         191.000
  20264264.488   -37217312.20349 -28973068.09948  20264264.671    20264269.771
       247.000         215.000
 98  1  3  6  9 59.9990000  0  7G 5G 8G17G 6G10G24G30
  20810640.320   -16169840.28249 -12581173.24547  20810639.994    20810645.941
       243.000         209.000
  23909880.531    -2533811.56249  -1956785.22945  23909880.184    23909885.945
       218.000         149.000
  23683629.832   -10175772.67849  -7892705.48545  23683628.105    23683635.625
       212.000         154.000
  21787141.185   -24025438.43449 -18694496.78447  21787141.046    21787146.584
       233.000         192.000
  20744838.746   -31626760.82449 -24624081.42847  20744838.097    20744844.075
       242.000         209.000
  21761212.081    -6458547.61549  -5024426.98747  21761211.757    21761218.283
       234.000         191.000
  20255583.243   -37262932.54349 -29008616.43248  20255583.491    20255588.663
       247.000         215.000
 98  1  3  6 10 29.9990000  0  7G 5G 8G17G 6G10G24G30
  20817156.048   -16135599.99049 -12554492.50147  20817155.533    20817161.406
       242.000         209.000
  23920082.152    -2480202.58149  -1915011.97345  23920082.062    23920087.890
       215.000         152.000
  23661259.457   -10293328.43549  -7984307.38645  23661259.391    23661265.438
       216.000         151.000
  21768615.297   -24122792.18749 -18770356.84347  21768614.862    21768620.651
       234.000         192.000
  20739050.358   -31657179.11049 -24647783.98147  20739049.795    20739055.727
       243.000         209.000
  21768423.848    -6420649.51549  -4994896.00247  21768423.984    21768429.848
       234.000         190.000
  20247009.734   -37307986.67749 -29043723.55848  20247009.997    20247015.117
       247.000         215.000
 98  1  3  6 10 59.9990000  0  7G 5G 8G17G 6G10G24G30
  20823761.074   -16100890.23549 -12527445.95247  20823760.770    20823766.781
       242.000         209.000
  23930292.901    -2426545.08249  -1873200.93745  23930292.064    23930299.347
       217.000         154.000
  23638927.138   -10410685.58949  -8075754.54945  23638926.831    23638933.127
       216.000         153.000
  21750104.347   -24220067.92649 -18846156.12547  21750104.356    21750109.687
       235.000         192.000
  20733375.641   -31686999.76049 -24671020.85147  20733374.903    20733380.913
       242.000         209.000
  21775658.490    -6382631.24449  -4965271.39247  21775657.736    21775664.376
       233.000         190.000
  20238551.688   -37352434.23349 -29078358.02448  20238552.012    20238557.087
       247.000         215.000
 98  1  3  6 11 29.9990000  0  7G 5G 8G17G 6G10G24G30
  20830449.761   -16065740.99449 -12500056.94347  20830449.350    20830455.262
       242.000         209.000
  23940510.976    -2372848.87649  -1831359.76045  23940510.070    23940516.327
       214.000         154.000
  23616629.035   -10527863.36549  -8167061.88645  23616628.388    23616635.143
       215.000         154.000
  21731603.155   -24317292.30549 -18921915.37547  21731602.874    21731609.011
       234.000         193.000
  20727815.247   -31716219.92149 -24693789.80547  20727814.563    20727820.500
       243.000         210.000
  21782910.406    -6344521.79549  -4935575.72147  21782910.285    21782916.650
       233.000         189.000
  20230206.826   -37396286.73849 -29112528.80848  20230207.169    20230212.123
       247.000         215.000
 98  1  3  6 11 59.9990000  0  7G 5G 8G17G 6G10G24G30
  20837219.863   -16030163.97349 -12472334.60047  20837219.353    20837225.372
       242.000         208.000
  23950733.534    -2319128.48949  -1789499.75645  23950733.083    23950739.822
       215.000         155.000
  23594366.569   -10644853.91749  -8258223.37945  23594366.610    23594372.523
       217.000         155.000
  21713112.769   -24414459.81949 -18997630.31447  21713112.725    21713118.191
       235.000         193.000
  20722372.750   -31744820.55049 -24716076.00747  20722372.010    20722377.946
       242.000         210.000
  21790180.894    -6306314.73049  -4905803.99347  21790180.462    21790187.132
       233.000         189.000
  20221972.560   -37439558.24249 -29146246.87248  20221973.009    20221978.024
       247.000         215.000
 98  1  3  6 12 29.9990000  0  7G 5G 8G17G 6G10G24G30
  20844066.794   -15994182.95549 -12444297.46047  20844066.673    20844072.057
       242.000         208.000
  23960956.857    -2265404.75449  -1747637.06245  23960956.305    23960963.498
       216.000         155.000
  23572138.959   -10761659.94549  -8349241.07445  23572136.879    23572145.603
       212.000         156.000
  21694631.583   -24511579.16049 -19073307.71547  21694631.749    21694636.924
       234.000         193.000
  20717050.228   -31772790.49049 -24737870.76247  20717049.585    20717055.573
       242.000         210.000
  21797467.515    -6268023.65149  -4875966.80247  21797467.727    21797473.543
       233.000         188.000
  20213848.400   -37482250.94749 -29179513.93248  20213848.844    20213853.806
       247.000         215.000
 98  1  3  6 12 59.9980000  0  7G 5G 8G17G 6G10G24G30
  20850991.969   -15957791.16749 -12415940.23447  20850991.849    20850997.573
       242.000         208.000
  23971185.373    -2211653.09649  -1705752.66645  23971185.374    23971190.925
       213.000         154.000
  23549954.556   -10878239.08149  -8440081.92945  23549954.576    23549960.653
       218.000         156.000
  21676168.013   -24608606.02149 -19148913.04847  21676167.891    21676173.296
       235.000         194.000
  20711853.602   -31800099.03349 -24759150.14447  20711852.953    20711858.870
       242.000         210.000
  21804774.155    -6229627.25049  -4846047.53847  21804773.909    21804780.101
       233.000         188.000
  20205840.083   -37524335.26049 -29212306.91948  20205840.098    20205845.288
       247.000         215.000
 98  1  3  6 13 29.9980000  0  7G 5G 8G17G 6G10G24G30
  20857993.585   -15920997.81949 -12387270.11147  20857993.232    20857999.118
       242.000         208.000
  23981413.283    -2157904.78849  -1663870.83345  23981412.793    23981419.767
       210.000         152.000
  23527809.577   -10994613.69949  -8530763.47745  23527809.776    23527815.247
       217.000         157.000
  21657719.856   -24705551.77349 -19224455.17747  21657720.042    21657725.352
       235.000         194.000
  20706775.143   -31826786.65749 -24779945.68747  20706774.498    20706780.497
       243.000         210.000
  21812098.265    -6191138.64749  -4816056.42947  21812098.019    21812104.194
       233.000         188.000
  20197938.621   -37565857.52449 -29244661.93648  20197938.978    20197943.906
       247.000         215.000
 98  1  3  6 13 59.9980000  0  7G 5G 8G17G 6G10G24G30
  20865078.860   -15883764.32249 -12358257.02047  20865078.377    20865084.108
       242.000         208.000
  23991641.029    -2104157.25149  -1621989.64545  23991640.513    23991646.541
       209.000         150.000
  23505705.161   -11110773.57749  -8621277.66845  23505703.890    23505711.295
       212.000         154.000
  21639293.729   -24802381.55649 -19299906.95047  21639293.899    21639299.151
       234.000         194.000
  20701814.815   -31852853.21449 -24800257.28947  20701814.192    20701820.186
       242.000         211.000
  21819442.726    -6152543.34449  -4785982.17247  21819442.664    21819449.311
       233.000         188.000
  20190145.906   -37606808.64049 -29276571.90148  20190146.353    20190151.191
       247.000         215.000
 98  1  3  6 14 29.9980000  0  7G 5G 8G17G 6G10G24G30
  20872246.566   -15846097.84349 -12328906.52947  20872246.265    20872252.062
       242.000         207.000
  24001866.797    -2050420.66749  -1580117.03645  24001866.314    24001871.502
       203.000         147.000
  23483637.927   -11226736.33149  -8711638.24445  23483636.946    23483644.702
       219.000         158.000
  21620889.738   -24899095.09349 -19375268.14747  21620889.490    21620894.953
       235.000         194.000
  20696965.476   -31878336.79249 -24820114.62347  20696964.839    20696970.760
       243.000         211.000
  21826802.982    -6113864.99149  -4755843.21347  21826803.019    21826809.028
       233.000         188.000
  20182463.702   -37647179.07449 -29308029.40248  20182464.021    20182469.086
       247.000         215.000
 98  1  3  6 14 59.9980000  0  7G 5G 8G17G 6G10G24G30
  20879501.406   -15807973.43149 -12299199.19947  20879500.822    20879506.829
       241.000         207.000
  24012092.397    -1996684.77349  -1538244.92745  24012090.795    24012097.586
       203.000         144.000
  23461610.443   -11342491.66549  -8801837.18845  23461609.726    23461616.583
       215.000         158.000
  21602508.147   -24995690.71149 -19450537.46447  21602508.165    21602513.687
       235.000         194.000
  20692223.241   -31903257.46349 -24839533.31947  20692222.632    20692228.678
       242.000         211.000
  21834178.951    -6075104.08549  -4725639.91946  21834178.753    21834185.271
       232.000         187.000
  20174893.203   -37686962.24549 -29339029.29748  20174893.572    20174898.616
       247.000         215.000
 98  1  3  6 15 29.9980000  0  7G 5G 8G17G 6G10G24G30
  20886846.371   -15769375.24749 -12269122.69547  20886846.007    20886851.962
       241.000         207.000
  24022319.640    -1942939.53849  -1496365.54145  24022319.115    24022325.720
       202.000         140.000
  23439622.998   -11458036.33049  -8891871.98145  23439622.377    23439629.637
       217.000         158.000
  21584150.121   -25092162.99949 -19525710.67247  21584150.104    21584155.754
       234.000         194.000
  20687591.232   -31927598.87349 -24858500.64747  20687590.359    20687596.562
       243.000         211.000
  21841573.771    -6036244.23949  -4695359.52446  21841573.673    21841579.721
       233.000         187.000
  20167439.982   -37726129.29049 -29369549.08448  20167440.072    20167445.212
       247.000         215.000
 98  1  3  6 15 59.9980000  0  7G 5G 8G17G 6G10G24G30
  20894276.349   -15730330.48749 -12238698.21047  20894275.914    20894281.804
       241.000         207.000
  24032549.415    -1889181.42049  -1454476.09345  24032548.933    24032556.267
       206.000         138.000
  23417673.201   -11573383.64449  -8981753.00846  23417672.922    23417680.410
       218.000         163.000
  21565815.027   -25188514.65149 -19600789.87447  21565814.857    21565820.785
       234.000         194.000
  20683071.076   -31951352.36549 -24877009.86147  20683070.208    20683076.231
       243.000         210.000
  21848985.842    -5997293.95949  -4665008.66846  21848985.832    21848992.055
       233.000         186.000
  20160108.019   -37764659.03749 -29399572.28548  20160108.287    20160113.223
       247.000         215.000
 98  1  3  6 16 29.9980000  0  7G 5G 8G17G 6G10G24G30
  20901775.193   -15690923.73649 -12207991.66247  20901775.012    20901780.584
       242.000         206.000
  24042771.840    -1835461.85349  -1412616.65445  24042770.596    24042777.738
       207.000         137.000
  23395753.387   -11688572.75349  -9071510.72245  23395752.787    23395759.670
       215.000         162.000
  21547490.247   -25284811.89749 -19675826.68547  21547489.983    21547495.978
       235.000         195.000
  20678655.107   -31974558.50549 -24895092.56847  20678654.475    20678660.323
       243.000         210.000
  21856404.606    -5958308.58349  -4634630.45946  21856404.826    21856410.387
       233.000         186.000
  20152887.638   -37802602.33349 -29429138.51848  20152888.026    20152892.982
       247.000         215.000
 98  1  3  6 16 59.9980000  0  7G 5G 8G17G 6G10G24G30
  20909351.550   -15651109.89149 -12176967.90447  20909351.217    20909356.965
       241.000         206.000
  24052996.824    -1781729.65349  -1370747.36545  24052996.667    24053004.686
       212.000         137.000
  23373872.534   -11803557.66949  -9161109.40745  23373872.225    23373878.899
       221.000         161.000
  21529184.570   -25381009.01049 -19750785.47547  21529184.236    21529189.856
       235.000         195.000
  20674355.826   -31997151.44449 -24912697.45247  20674355.272    20674360.963
       243.000         210.000
  21863838.963    -5919241.14049  -4604188.29746  21863838.779    21863844.708
       233.000         186.000
  20145785.596   -37839923.83149 -29458220.22548  20145786.003    20145791.111
       247.000         215.000
 98  1  3  6 17 29.9980000  0  7G 5G 8G17G 6G10G24G30
  20917000.814   -15610912.72749 -12145645.45447  20917000.422    20917006.285
       241.000         206.000
  24063223.324    -1727989.23949  -1328871.72445  24063222.798    24063228.860
       211.000         140.000
  23352027.569   -11918354.68849  -9250561.65045  23352025.989    23352034.261
       217.000         162.000
  21510897.180   -25477109.53949 -19825669.01447  21510897.166    21510902.340
       235.000         195.000
  20670175.809   -32019117.42149 -24929813.79647  20670175.116    20670180.971
       242.000         210.000
  21871286.649    -5880103.31949  -4573691.29846  21871286.224    21871292.348
       232.000         186.000
  20138798.823   -37876639.68349 -29486829.99348  20138799.040    20138804.292
       247.000         215.000
 98  1  3  6 17 59.9980000  0  7G 5G 8G17G 6G10G24G30
  20924724.960   -15570321.92249 -12114016.27247  20924724.695    20924730.510
       241.000         206.000
  24073450.958    -1674243.30649  -1286991.75245  24073450.307    24073457.280
       213.000         143.000
  23330219.510   -12032955.88649  -9339861.27345  23330218.906    23330226.158
       220.000         162.000
  21492627.651   -25573116.83549 -19900479.89947  21492627.813    21492633.318
       235.000         196.000
  20666116.490   -32040449.32049 -24946436.05847  20666115.716    20666121.707
       242.000         210.000
  21878745.410    -5840907.10649  -4543148.80346  21878745.000    21878751.783
       231.000         185.000
  20131925.214   -37912760.77949 -29514976.31248  20131925.608    20131930.635
       247.000         215.000
 98  1  3  6 18 29.9980000  0  7G 5G 8G17G 6G10G24G30
  20932523.786   -15529338.83249 -12082081.40847  20932523.316    20932529.466
       241.000         205.000
  24083675.321    -1620514.05949  -1245124.81945  24083675.209    24083681.498
       213.000         143.000
  23308446.369   -12147375.18849  -9429019.23446  23308445.669    23308452.012
       221.000         163.000
  21474373.157   -25669044.91549 -19975229.04847  21474373.151    21474378.774
       235.000         196.000
  20662175.531   -32061159.01849 -24962573.48447  20662174.764    20662180.883
       243.000         210.000
  21886212.447    -5801667.24149  -4512572.29046  21886212.141    21886218.318
       233.000         185.000
  20125159.403   -37948315.35249 -29542681.18448  20125159.712    20125164.688
       247.000         215.000
 98  1  3  6 18 59.9980000  0  7G 5G 8G17G 6G10G24G30
  20940403.232   -15487932.22449 -12049816.52447  20940403.091    20940408.685
       241.000         205.000
  24093896.219    -1566803.18949  -1203272.20245  24093896.602    24093902.288
       212.000         143.000
  23286708.342   -12261608.94249  -9518032.53946  23286706.998    23286714.763
       219.000         164.000
  21456136.710   -25764878.09149 -20049904.24847  21456136.836    21456142.363
       235.000         196.000
  20658353.363   -32081244.77849 -24978224.72747  20658352.650    20658358.730
       243.000         210.000
  21893691.315    -5762365.65249  -4481947.68446  21893691.123    21893697.448
       230.000         185.000
  20118502.627   -37983297.01549 -29569939.62148  20118503.000    20118508.159
       248.000         215.000
 98  1  3  6 19 29.9980000  0  7G 5G 8G17G 6G10G24G30
  20948364.947   -15446093.20149 -12017214.69447  20948364.379    20948370.458
       240.000         205.000
  24104113.683    -1513110.20849  -1161433.49945  24104111.971    24104118.636
       211.000         142.000
  23265007.903   -12375645.79349  -9606892.44146  23265007.540    23265014.761
       223.000         167.000
  21437917.715   -25860619.40749 -20124507.87147  21437917.638    21437923.302
       235.000         197.000
  20654650.837   -32100701.69349 -24993385.95747  20654650.183    20654656.074
       242.000         210.000
  21901185.540    -5722983.08149  -4451259.97346  21901185.725    21901191.237
       230.000         184.000
  20111957.002   -38017694.64849 -29596742.96348  20111957.362    20111962.360
       247.000         215.000
 98  1  3  6 19 59.9980000  0  7G 5G 8G17G 6G10G24G30
  20956402.724   -15403854.17549 -11984301.17447  20956402.325    20956408.200
       240.000         205.000
  24114319.755    -1459476.79249  -1119641.22045  24114318.735    24114325.671
       206.000         141.000
  23243338.245   -12489521.10349  -9695626.47946  23243337.073    23243344.303
       221.000         166.000
  21419708.873   -25956307.55249 -20199070.06847  21419708.604    21419714.272
       235.000         197.000
  20651059.702   -32119573.19749 -25008091.02547  20651058.999    20651064.902
       242.000         210.000
  21908693.203    -5683530.30949  -4420517.56846  21908693.337    21908698.972
       230.000         184.000
  20105519.311   -38051524.93249 -29623104.23248  20105519.618    20105524.890
       247.000         215.000
 98  1  3  6 20 29.9980000  0  7G 5G 8G17G 6G10G24G30
  20964518.691   -15361204.37949 -11951067.57147  20964518.426    20964524.108
       241.000         205.000
  24124518.957    -1405879.11849  -1077876.75845  24124519.533    24124525.343
       212.000         142.000
  23221705.303   -12603202.62449  -9784209.50546  23221705.038    23221711.553
       223.000         166.000
  21401515.672   -26051913.63249 -20273568.31247  21401515.609    21401521.179
       236.000         197.000
  20647582.457   -32137846.24749 -25022329.76147  20647581.557    20647587.629
       242.000         210.000
  21916221.892    -5643966.82649  -4389688.88946  21916221.665    21916227.913
       230.000         183.000
  20099195.410   -38084757.42049 -29648999.68448  20099195.766    20099200.871
       248.000         215.000
 98  1  3  6 20 59.9980000  0  7G 5G 8G17G 6G10G24G30
  20972716.786   -15318123.67949 -11917498.20947  20972716.490    20972722.275
       240.000         205.000
  24134715.712    -1352294.69249  -1036122.61345  24134715.054    24134721.998
       210.000         143.000
  23200113.931   -12716666.38449  -9872622.83146  23200113.146    23200120.737
       221.000         168.000
  21383342.231   -26147415.74049 -20347985.52847  21383342.250    21383347.599
       236.000         198.000
  20644221.267   -32155509.37849 -25036093.23847  20644220.703    20644226.406
       242.000         209.000
  21923773.640    -5604282.18849  -4358765.80046  21923773.467    21923779.595
       230.000         183.000
  20092990.549   -38117364.25349 -29674407.61948  20092990.932    20092995.889
       247.000         215.000
 98  1  3  6 21 29.9980000  0  7G 5G 8G17G 6G10G24G30
  20980986.822   -15274664.50849 -11883633.93847  20980986.535    20980992.254
       240.000         204.000
  24144904.230    -1298753.35649   -994402.04545  24144904.580    24144910.699
       210.000         145.000
  23178555.553   -12829955.88749  -9960900.37346  23178554.710    23178561.797
       220.000         166.000
  21365183.838   -26242838.80349 -20422341.16447  21365183.911    21365189.178
       236.000         198.000
  20640968.335   -32172603.59249 -25049413.40447  20640967.595    20640973.472
       242.000         209.000
  21931338.831    -5564526.55349  -4327787.39446  21931338.970    21931344.289
       230.000         183.000
  20086899.214   -38149374.33949 -29699350.55948  20086899.509    20086904.689
       246.000         215.000
 98  1  3  6 21 59.9980000  0  7G 5G 8G17G 6G10G24G30
  20989330.447   -15230818.47349 -11849468.20647  20989330.209    20989336.197
       239.000         204.000
  24155082.834    -1245264.10049   -952722.09945  24155083.104    24155089.300
       210.000         147.000
  23157031.341   -12943066.26949 -10049038.34646  23157030.541    23157037.966
       223.000         168.000
  21347045.957   -26338154.12249 -20496612.84047  21347045.748    21347051.214
       236.000         198.000
  20637825.891   -32189117.33149 -25062281.24747  20637825.171    20637831.149
       242.000         210.000
  21938915.874    -5524708.96849  -4296760.71846  21938915.895    21938921.754
       230.000         182.000
  20080925.023   -38180769.22649 -29723814.11448  20080925.395    20080930.501
       246.000         215.000
 98  1  3  6 22 29.9980000  0  7G 5G 8G17G 6G10G24G30
  20997752.446   -15186560.30549 -11814981.34447  20997752.039    20997757.985
       238.000         203.000
  24165255.478    -1191807.17549   -911067.32645  24165255.392    24165261.373
       207.000         147.000
  23135544.556   -13055980.50449 -10137023.46346  23135543.337    23135551.423
       222.000         169.000
  21328934.000   -26433332.69449 -20570777.96247  21328934.176    21328939.443
       237.000         198.000
  20634796.794   -32205035.34749 -25074684.89447  20634796.128    20634801.998
       241.000         210.000
  21946504.657    -5484829.76049  -4265686.01746  21946504.811    21946510.564
       229.000         182.000
  20075068.943   -38211543.09849 -29747793.77148  20075069.249    20075074.294
       246.000         215.000
 98  1  3  6 22 59.9980000  0  7G 5G 8G17G 6G10G24G30
  21006250.786   -15141901.37249 -11780182.18347  21006250.256    21006256.354
       239.000         203.000
  24175420.429    -1138390.46049   -869443.97245  24175420.155    24175426.902
       204.000         147.000
  23114090.944   -13168720.17349 -10224872.58646  23114090.728    23114097.677
       224.000         168.000
  21310848.429   -26528373.13349 -20644835.44847  21310848.237    21310853.700
       236.000         199.000
  20631878.993   -32220368.44149 -25086632.75447  20631878.458    20631884.183
       242.000         209.000
  21954101.690    -5444907.25449  -4234577.58146  21954101.792    21954107.888
       229.000         182.000
  20069327.695   -38241713.49149 -29771303.19148  20069328.073    20069333.011
       245.000         215.000
 98  1  3  6 23 29.9980000  0  7G 5G 8G17G 6G10G24G30
  21014819.850   -15096870.74749 -11745093.39147  21014819.343    21014825.393
       239.000         203.000
  24185573.027    -1085038.35749   -827870.91845  24185572.447    24185578.811
       202.000         145.000
  23092666.708   -13281305.45049 -10312601.40246  23092665.790    23092673.375
       221.000         167.000
  21292784.469   -26623299.65149 -20718804.15647  21292784.332    21292790.058
       237.000         199.000
  20629070.704   -32235125.98449 -25098132.13247  20629069.972    20629076.062
       242.000         209.000
  21961706.592    -5404943.41949  -4203436.94046  21961706.267    21961712.407
       229.000         182.000
  20063696.417   -38271306.37149 -29794362.59948  20063696.592    20063701.590
       245.000         215.000
 98  1  3  6 23 59.9980000  0  7G 5G 8G17G 6G10G24G30
  21023460.000   -15051466.62649 -11709713.57247  21023459.362    21023465.627
       239.000         202.000
  24195712.364    -1031755.03649   -786351.41645  24195711.308    24195718.315
       198.000         145.000
  23071274.648   -13393721.34949 -10400198.22546  23071273.680    23071280.592
       221.000         168.000
  21274738.455   -26718132.33249 -20792699.75647  21274738.235    21274743.737
       236.000         199.000
  20626372.469   -32249305.46949 -25109181.08047  20626371.720    20626377.854
       242.000         209.000
  21969320.373    -5364932.84549  -4172259.88446  21969320.516    21969326.472
       228.000         182.000
  20058173.594   -38300328.99649 -29816977.65848  20058173.935    20058178.962
       246.000         215.000
 98  1  3  6 24 29.9980000  0  6G 5G17G 6G10G24G30
  21032170.397   -15005693.17149 -11674045.95247  21032170.042    21032175.838
       239.000         202.000
  23049920.130   -13505940.19649 -10487641.50046  23049919.403    23049926.734
       222.000         168.000
  21256710.654   -26812868.82649 -20866520.40247  21256710.426    21256716.346
       236.000         199.000
  20623783.869   -32262908.57549 -25119780.89547  20623783.042    20623789.056
       242.000         209.000
  21976946.750    -5324855.90749  -4141031.11246  21976946.936    21976952.596
       228.000         182.000
  20052761.061   -38328772.01349 -29839141.07348  20052761.452    20052766.562
       246.000         215.000
 98  1  3  6 24 59.9980000  0  6G 5G17G 6G10G24G30
  21040946.497   -14959574.10649 -11638109.02147  21040946.136    21040952.036
       238.000         202.000
  23028604.058   -13617957.41049 -10574927.66446  23028603.619    23028610.739
       221.000         169.000
  21238699.010   -26907520.77349 -20940275.16847  21238699.195    21238705.016
       237.000         200.000
  20621305.733   -32275931.37249 -25129928.52747  20621305.048    20621311.025
       242.000         209.000
  21984583.365    -5284725.29849  -4109760.51846  21984584.029    21984589.800
       229.000         182.000
  20047459.816   -38356630.21849 -29860848.78348  20047460.012    20047465.191
       246.000         215.000
 98  1  3  6 25 29.9980000  0  6G 5G17G 6G10G24G30
  21049789.971   -14913101.11749 -11601896.30247  21049789.324    21049795.786
       238.000         201.000
  23007330.597   -13729750.02849 -10662038.83146  23007330.347    23007337.309
       221.000         169.000
  21220703.656   -27002087.06849 -21013963.18447  21220703.762    21220708.985
       237.000         200.000
  20618940.929   -32288358.37949 -25139611.89947  20618940.075    20618946.336
       242.000         209.000
  21992231.796    -5244532.78749  -4078441.68946  21992231.915    21992237.758
       228.000         182.000
  20042273.068   -38383886.93549 -29882087.79548  20042273.513    20042278.568
       245.000         215.000
 98  1  3  6 25 59.9980000  0  6G 5G17G 6G10G24G30
  21058701.855   -14866268.90149 -11565403.66747  21058701.644    21058707.591
       238.000         201.000
  22986101.745   -13841308.44449 -10748967.52746  22986100.814    22986108.627
       220.000         167.000
  21202727.890   -27096550.49449 -21087571.04247  21202727.787    21202733.071
       238.000         201.000
  20616687.754   -32300198.77749 -25148838.17347  20616687.015    20616692.927
       241.000         209.000
  21999890.401    -5204286.62949  -4047081.05546  21999890.023    21999896.018
       228.000         182.000
  20037203.766   -38410526.43949 -29902845.86548  20037203.992    20037209.285
       245.000         215.000
 98  1  3  6 26 29.9980000  0  6G 5G17G 6G10G24G30
  21067682.072   -14819077.66849 -11528631.27647  21067681.508    21067687.945
       238.000         201.000
  22964917.931   -13952630.56349 -10835712.07846  22964918.198    22964924.048
       221.000         168.000
  21184775.929   -27190888.75449 -21161081.37547  21184775.855    21184781.446
       238.000         201.000
  20614548.343   -32311441.28749 -25157598.56347  20614547.666    20614553.493
       242.000         209.000
  22007558.973    -5163987.91549  -4015679.47046  22007558.864    22007564.968
       228.000         181.000
  20032253.491   -38436540.19849 -29923116.34748  20032253.789    20032259.009
       245.000         215.000
 98  1  3  6 26 59.9980000  0  6G 5G17G 6G10G24G30
  21076733.116   -14771514.21049 -11491568.84147  21076732.782    21076739.035
       238.000         201.000
  22943775.230   -14063736.26049 -10922288.02746  22943774.795    22943781.463
       220.000         166.000
  21166848.159   -27285100.01149 -21234492.74847  21166848.296    21166853.864
       238.000         201.000
  20612522.670   -32322086.39849 -25165893.44647  20612522.028    20612528.017
       242.000         208.000
  22015236.470    -5123642.27049  -3984241.31646  22015236.189    22015242.886
       229.000         181.000
  20027418.158   -38461950.18149 -29942916.34548  20027418.527    20027423.758
       245.000         215.000
 98  1  3  6 27 29.9980000  0  6G 5G17G 6G10G24G30
  21085853.389   -14723586.95749 -11454222.92447  21085853.038    21085858.868
       238.000         201.000
  22922670.966   -14174639.96149 -11008706.54146  22922670.276    22922677.564
       221.000         167.000
  21148943.923   -27379187.45349 -21307807.61747  21148944.031    21148949.562
       238.000         202.000
  20610603.804   -32332170.18149 -25173750.92947  20610603.266    20610609.104
       242.000         208.000
  22022922.525    -5083251.83649  -3952768.25946  22022922.598    22022928.817
       228.000         181.000
  20022694.601   -38486772.59149 -29962258.48148  20022694.997    20022700.048
       245.000         215.000
 98  1  3  6 27 59.9980000  0  6G 5G17G 6G10G24G30
  21095042.743   -14675296.71549 -11416594.16147  21095042.336    21095048.598
       238.000         201.000
  22901604.651   -14285344.41049 -11094969.77246  22901604.039    22901611.413
       220.000         167.000
  21131065.327   -27473140.37849 -21381017.68647  21131065.308    21131070.775
       238.000         202.000
  20608792.421   -32341689.06749 -25181168.23847  20608791.441    20608797.679
       242.000         208.000
  22030618.375    -5042809.77849  -3921254.97746  22030617.701    22030623.915
       228.000         180.000
  20018085.854   -38510991.80449 -29981130.60448  20018086.347    20018091.547
       246.000         215.000
 98  1  3  6 28 29.9980000  0  6G 5G17G 6G10G24G30
  21104301.246   -14626643.16349 -11378682.31247  21104301.066    21104306.777
       238.000         201.000
  22880576.960   -14395846.11949 -11181075.01346  22880576.536    22880583.234
       220.000         166.000
  21113212.348   -27566958.04749 -21454122.36347  21113212.397    21113217.639
       238.000         202.000
  20607090.913   -32350630.35849 -25188135.47147  20607089.998    20607096.249
       242.000         208.000
  22038324.148    -5002315.59949  -3889701.09046  22038324.256    22038329.862
       228.000         180.000
  20013591.300   -38534610.98349 -29999535.18448  20013591.529    20013596.856
       245.000         215.000
 98  1  3  6 28 59.9980000  0  6G 5G17G 6G10G24G30
  21113625.246   -14577645.39949 -11340502.23547  21113624.942    21113630.494
       237.000         200.000
  22859585.302   -14506157.87349 -11267032.20546  22859584.739    22859592.035
       220.000         166.000
  21095382.787   -27660653.10649 -21527131.49347  21095382.750    21095388.151
       238.000         202.000
  20605494.453   -32359019.84449 -25194672.72447  20605494.113    20605499.728
       242.000         208.000
  22046037.467    -4961782.19749  -3858116.62946  22046037.406    22046043.531
       228.000         180.000
  20009209.096   -38557639.88049 -30017479.80948  20009209.433    20009214.572
       245.000         215.000
 98  1  3  6 29 29.9980000  0  6G 5G17G 6G10G24G30
  21123020.097   -14528275.14849 -11302031.91347  21123019.478    21123025.744
       238.000         200.000
  22838639.183   -14616230.43049 -11352803.02346  22838639.319    22838644.770
       221.000         166.000
  21077585.361   -27754179.07249 -21600008.87547  21077585.331    21077590.752
       239.000         202.000
  20604013.040   -32366804.77249 -25200738.89447  20604012.359    20604018.143
       242.000         208.000
  22053766.127    -4921167.61949  -3826468.90946  22053765.816    22053771.910
       228.000         180.000
  20004950.902   -38580016.86249 -30034916.44548  20004951.270    20004956.418
       246.000         215.000
 98  1  3  6 29 59.9980000  0  6G 5G17G 6G10G24G30
  21132477.709   -14478575.05949 -11263304.57547  21132477.330    21132483.208
       237.000         200.000
  22817726.472   -14726127.38949 -11438437.00446  22817726.637    22817733.247
       221.000         166.000
  21059808.729   -27847595.88449 -21672801.19847  21059808.658    21059814.276
       239.000         202.000
  20602641.026   -32374014.65549 -25206356.98047  20602640.389    20602646.389
       242.000         208.000
  22061498.640    -4880533.04749  -3794805.62146  22061498.632    22061504.830
       227.000         180.000
  20000805.886   -38601799.17749 -30051889.69148  20000806.160    20000811.264
       246.000         215.000
 98  1  3  6 30 29.9980000  0  6G 5G17G 6G10G24G30
  21142004.216   -14428512.67549 -11224294.92947  21142003.805    21142009.834
       237.000         199.000
  22796850.766   -14835830.16749 -11523919.68546  22796850.619    22796857.665
       221.000         167.000
  21042055.854   -27940887.77149 -21745496.17947  21042055.608    21042061.102
       238.000         202.000
  20601380.996   -32380636.16849 -25211516.59647  20601380.451    20601386.295
       242.000         207.000
  22069238.644    -4839859.23949  -3763111.75646  22069238.434    22069244.019
       228.000         179.000
  19996775.144   -38622980.99849 -30068395.02348  19996775.241    19996780.456
       245.000         215.000
 98  1  3  6 30 59.9980000  0  6G 5G17G 6G10G24G30
  21151601.274   -14378079.95249 -11184996.70647  21151600.672    21151606.628
       237.000         199.000
  22776012.033   -14945338.13149 -11609250.52546  22776010.996    22776018.797
       219.000         166.000
  21024326.896   -28034054.17049 -21818093.37647  21024326.841    21024332.491
       239.000         203.000
  20600233.714   -32386665.21349 -25216214.54747  20600232.935    20600238.977
       241.000         207.000
  22076989.217    -4799129.86449  -3731374.59346  22076989.418    22076995.415
       227.000         179.000
  19992859.449   -38643558.30049 -30084429.29848  19992859.501    19992864.702
       245.000         215.000
 98  1  3  6 31 29.9980000  0  6G 5G17G 6G10G24G30
  21161268.973   -14327275.72949 -11145408.99947  21161268.798    21161274.531
       237.000         198.000
  22755207.758   -15054665.29049 -11694440.48846  22755206.748    22755214.362
       220.000         166.000
  21006617.493   -28127117.97449 -21890610.62047  21006617.381    21006623.005
       239.000         203.000
  20599199.373   -32392100.50149 -25220449.82647  20599198.472    20599204.676
       241.000         207.000
  22084747.522    -4758359.71449  -3699605.65146  22084747.298    22084753.135
       227.000         178.000
  19989055.281   -38663549.16449 -30100006.61048  19989055.645    19989060.926
       245.000         215.000
 98  1  3  6 31 59.9980000  0  6G 5G17G 6G10G24G30
  21171009.453   -14276089.17049 -11105523.37947  21171009.085    21171015.030
       237.000         198.000
  22734443.612   -15163781.51949 -11779466.08246  22734442.973    22734450.021
       222.000         166.000
  20988928.853   -28220072.43449 -21963042.67247  20988929.057    20988934.302
       239.000         203.000
  20598279.473   -32396934.69249 -25224216.72547  20598278.558    20598284.744
       242.000         207.000
  22092515.832    -4717536.87149  -3667795.65646  22092516.089    22092522.075
       227.000         177.000
  19985364.917   -38682942.19749 -30115118.08748  19985365.140    19985370.398
       245.000         215.000
 98  1  3  6 32 29.9980000  0  6G 5G17G 6G10G24G30
  21180815.710   -14224556.75349 -11065368.25447  21180815.027    21180821.197
       236.000         197.000
  22713720.791   -15272680.23049 -11864322.16046  22713720.389    22713727.084
       221.000         167.000
  20971259.073   -28312927.87649 -22035397.56747  20971258.780    20971264.606
       239.000         203.000
  20597468.531   -32401196.20349 -25227537.37747  20597467.800    20597473.678
       242.000         207.000
  22100290.373    -4676681.27049  -3635960.12346  22100290.187    22100296.175
       226.000         176.000
  19981785.098   -38701754.37249 -30129776.93948  19981785.138    19981790.356
       245.000         214.000
 98  1  3  6 32 59.9980000  0  6G 5G17G 6G10G24G30
  21190685.347   -14172691.16949 -11024953.51647  21190685.094    21190690.976
       236.000         197.000
  22693041.721   -15381349.34949 -11948999.35346  22693041.184    22693047.832
       222.000         168.000
  20953610.910   -28405669.72249 -22107663.93647  20953610.507    20953616.166
       239.000         203.000
  20596771.048   -32404861.44149 -25230393.40147  20596770.303    20596776.370
       242.000         207.000
  22108070.336    -4635797.36049  -3604102.54446  22108070.311    22108076.625
       226.000         176.000
  19978317.268   -38719977.84949 -30143977.06148  19978317.439    19978322.756
       245.000         214.000
 98  1  3  6 33 29.9980000  0  6G 5G17G 6G10G24G30
  21200613.021   -14120520.91749 -10984301.36147  21200612.511    21200618.946
       236.000         197.000
  22672403.846   -15489802.04749 -12033507.92546  22672403.022    22672410.018
       223.000         168.000
  20935983.055   -28498304.54349 -22179846.90947  20935982.891    20935988.631
       239.000         203.000
  20596182.805   -32407952.74249 -25232802.20147  20596182.020    20596187.910
       241.000         207.000
  22115850.552    -4594912.16849  -3572243.95746  22115850.675    22115856.072
       226.000         175.000
  19974959.402   -38737623.52849 -30157726.95848  19974959.583    19974965.030
       245.000         214.000
 98  1  3  6 33 59.9980000  0  6G 5G17G 6G10G24G30
  21210600.049   -14068038.86549 -10943406.24847  21210599.767    21210605.900
       235.000         196.000
  22651809.669   -15598025.37749 -12117837.76646  22651808.779    22651815.268
       222.000         169.000
  20918383.788   -28590789.08249 -22251912.77047  20918383.664    20918389.068
       239.000         204.000
  20595704.394   -32410466.77249 -25234761.17947  20595703.611    20595709.612
       241.000         207.000
  22123635.535    -4554002.08249  -3540365.97246  22123635.656    22123641.021
       225.000         175.000
  19971716.015   -38754667.61949 -30171008.07548  19971716.338    19971721.518
       245.000         214.000
 98  1  3  6 34 29.9980000  0  6G 5G17G 6G10G24G30
  21220652.750   -14015211.70249 -10902242.21647  21220652.348    21220658.391
       235.000         196.000
  22631257.541   -15706027.07349 -12201994.89346  22631257.556    22631264.104
       222.000         169.000
  20900819.435   -28683090.39849 -22323835.87147  20900819.454    20900824.724
       239.000         204.000
  20595338.718   -32412388.39849 -25236258.54347  20595338.074    20595344.078
       241.000         207.000
  22131429.607    -4513043.99249  -3508450.58946  22131429.690    22131435.595
       225.000         174.000
  19968589.188   -38771099.19049 -30183811.91048  19968589.353    19968594.670
       244.000         214.000
 98  1  3  6 34 59.9980000  0  6G 5G17G 6G10G24G30
  21230777.326   -13962006.41349 -10860783.53747  21230776.579    21230782.778
       235.000         195.000
  22610745.517   -15813818.55049 -12285988.22346  22610744.407    22610752.008
       224.000         170.000
  20883292.414   -28775195.50449 -22395606.07447  20883292.148    20883297.716
       240.000         204.000
  20595085.545   -32413718.81349 -25237295.22547  20595084.839    20595090.768
       241.000         207.000
  22139237.003    -4472015.72849  -3476480.52146  22139236.975    22139242.875
       224.000         173.000
  19965582.229   -38786900.79949 -30196124.86448  19965582.375    19965587.787
       245.000         214.000
 98  1  3  6 35 29.9980000  0  6G 5G17G 6G10G24G30
  21240974.119   -13908421.92549 -10819029.38147  21240973.870    21240979.575
       235.000         195.000
  22590269.360   -15921421.78049 -12369834.86846  22590268.792    22590274.937
       224.000         171.000
  20865799.719   -28867120.19949 -22467235.69747  20865799.588    20865804.844
       239.000         204.000
  20594935.159   -32414509.04849 -25237910.98747  20594934.284    20594940.305
       241.000         207.000
  22147058.190    -4430915.00549  -3444454.00346  22147057.421    22147064.082
       224.000         173.000
  19962691.978   -38802089.34349 -30207960.11648  19962692.226    19962697.546
       245.000         214.000
 98  1  3  6 35 59.9980000  0  6G 5G17G 6G10G24G30
  21251247.172   -13854436.60849 -10776962.89347  21251246.738    21251252.691
       234.000         195.000
  22569831.118   -16028825.37049 -12453525.93246  22569830.531    22569836.611
       224.000         171.000
  20848341.919   -28958861.61249 -22538722.50447  20848341.653    20848347.283
       239.000         204.000
  20594890.441   -32414744.10349 -25238094.14147  20594889.735    20594895.851
       241.000         207.000
  22154897.258    -4389720.13849  -3412354.11446  22154897.654    22154903.005
       224.000         173.000
  19959919.544   -38816658.88449 -30219313.02248  19959919.925    19959925.190
       245.000         214.000
 98  1  3  6 36 29.9970000  0  6G 5G17G 6G10G24G30
  21261588.836   -13800090.92149 -10734615.58447  21261588.678    21261594.344
       235.000         195.000
  22549428.061   -16136043.89349 -12537072.77846  22549427.136    22549434.050
       224.000         172.000
  20830908.232   -29050476.08449 -22610110.39247  20830908.002    20830913.461
       240.000         204.000
  20594946.862   -32414447.57149 -25237863.06847  20594945.946    20594952.085
       241.000         206.000
  22162746.994    -4348469.41549  -3380210.69346  22162747.119    22162753.292
       224.000         173.000
  19957257.939   -38830645.80849 -30230211.93348  19957258.278    19957263.544
       245.000         214.000
 98  1  3  6 36 59.9970000  0  6G 5G17G 6G10G24G30
  21271994.006   -13745411.54049 -10692008.27047  21271993.395    21271999.569
       235.000         195.000
  22529062.411   -16243065.92349 -12620466.52246  22529061.605    22529068.688
       224.000         172.000
  20813495.848   -29141978.68149 -22681411.10947  20813495.817    20813501.416
       240.000         204.000
  20595106.745   -32413607.15849 -25237208.19547  20595105.765    20595111.851
       241.000         206.000
  22170607.142    -4307164.24749  -3348024.86346  22170606.808    22170613.980
       223.000         173.000
  19954709.772   -38844036.49949 -30240646.25048  19954710.102    19954715.378
       245.000         214.000
 98  1  3  6 37 29.9970000  0  6G 5G17G 6G10G24G30
  21282447.828   -13690476.40449 -10649201.65747  21282447.458    21282453.230
       235.000         195.000
  22508731.365   -16349906.20649 -12703718.63146  22508730.610    22508737.310
       223.000         172.000
  20796098.483   -29233402.38849 -22752650.34347  20796098.231    20796103.755
       240.000         205.000
  20595368.196   -32412233.35749 -25236137.69447  20595367.544    20595373.463
       241.000         206.000
  22178468.124    -4265854.51149  -3315835.46946  22178467.936    22178474.408
       223.000         173.000
  19952267.671   -38856869.85549 -30250646.27148  19952267.992    19952273.354
       245.000         214.000
 98  1  3  6 37 59.9970000  0  6G 5G17G 6G10G24G30
  21292956.307   -13635254.04849 -10606171.24447  21292955.813    21292961.850
       235.000         195.000
  22488446.631   -16456502.95549 -12786780.95646  22488446.323    22488452.866
       225.000         173.000
  20778726.045   -29324695.06749 -22823787.48247  20778725.648    20778731.673
       240.000         205.000
  20595746.548   -32410245.08249 -25234588.38647  20595745.912    20595751.751
       241.000         206.000
  22186334.071    -4224518.84049  -3283625.87146  22186333.951    22186340.153
       223.000         173.000
  19949942.564   -38869088.55449 -30260167.34348  19949943.012    19949948.279
       245.000         214.000
 98  1  3  6 38 29.9970000  0  6G 5G17G 6G10G24G30
  21303513.171   -13579777.13849 -10562942.48647  21303512.975    21303518.790
       234.000         194.000
  22468203.021   -16562884.00549 -12869675.19846  22468201.668    22468209.534
       225.000         174.000
  20761377.144   -29415864.21349 -22894828.36647  20761376.988    20761382.552
       240.000         205.000
  20596236.833   -32407668.62049 -25232580.75247  20596235.983    20596242.081
       241.000         206.000
  22194197.994    -4183193.56249  -3251424.36946  22194197.657    22194204.712
       224.000         172.000
  19947730.263   -38880714.35349 -30269226.41348  19947730.633    19947735.699
       245.000         214.000
 98  1  3  6 38 59.9970000  0  6G 5G17G 6G10G24G30
  21314121.891   -13524028.04649 -10519501.63247  21314121.311    21314127.609
       234.000         194.000
  22448000.082   -16669051.30349 -12952402.90346  22447999.253    22448005.880
       225.000         175.000
  20744058.905   -29506872.12949 -22965743.61247  20744058.637    20744064.168
       240.000         205.000
  20596838.979   -32404504.30249 -25230115.04447  20596838.086    20596843.984
       241.000         206.000
  22202063.111    -4141862.57449  -3219218.40846  22202062.922    22202069.482
       224.000         173.000
  19945632.468   -38891738.32049 -30277816.52348  19945632.806    19945637.982
       245.000         214.000
 98  1  3  6 39 29.9970000  0  6G 5G17G 6G10G24G30
  21324783.093   -13468003.04249 -10475845.78447  21324782.710    21324788.485
       234.000         193.000
  22427834.142   -16775023.72849 -13034978.78746  22427833.804    22427839.663
       225.000         174.000
  20726770.176   -29597725.14449 -23036538.16647  20726770.236    20726775.397
       240.000         205.000
  20597545.763   -32400790.24749 -25227220.97447  20597544.816    20597550.747
       241.000         206.000
  22209925.172    -4100547.27249  -3187024.67446  22209925.159    22209931.418
       224.000         173.000
  19943644.037   -38902187.69349 -30285958.91048  19943644.282    19943649.535
       245.000         214.000
 98  1  3  6 39 59.9970000  0  6G 5G17G 6G10G24G30
  21335504.986   -13411659.28849 -10431941.55447  21335504.608    21335510.149
       234.000         193.000
  22407706.484   -16880794.97249 -13117397.87846  22407705.948    22407712.891
       226.000         175.000
  20709513.286   -29688410.78249 -23107202.29447  20709512.923    20709518.616
       240.000         205.000
  20598356.338   -32396530.48249 -25223901.67147  20598355.545    20598361.609
       241.000         205.000
  22217786.905    -4059233.56049  -3154832.18846  22217786.706    22217792.519
       224.000         172.000
  19941766.834   -38912052.31049 -30293645.64248  19941767.162    19941772.494
       245.000         214.000
 98  1  3  6 40 29.9970000  0  6G 5G17G 6G10G24G30
  21346289.403   -13354986.76349 -10387781.13947  21346288.922    21346294.846
       234.000         193.000
  22387618.417   -16986358.57649 -13199655.21646  22387617.815    22387624.702
       225.000         175.000
  20692290.387   -29778917.59049 -23177727.07247  20692290.206    20692295.797
       240.000         206.000
  20599269.296   -32391732.84649 -25220163.25347  20599268.533    20599274.442
       240.000         205.000
  22225655.443    -4017884.21749  -3122611.92746  22225655.449    22225661.370
       224.000         172.000
  19939999.418   -38921340.31649 -30300883.06648  19939999.586    19940005.085
       245.000         214.000
 98  1  3  6 40 59.9970000  0  6G 5G17G 6G10G24G30
  21357139.208   -13297970.35449 -10343352.76547  21357138.711    21357144.532
       234.000         192.000
  22367574.687   -17091688.56049 -13281730.50746  22367573.391    22367580.603
       225.000         175.000
  20675101.108   -29869247.67249 -23248114.14447  20675101.245    20675106.482
       240.000         206.000
  20600285.753   -32386391.24549 -25216000.97047  20600284.979    20600290.928
       241.000         205.000
  22233532.645    -3976489.15349  -3090356.04546  22233532.166    22233539.508
       223.000         173.000
  19938344.758   -38930035.61049 -30307658.63348  19938345.181    19938350.386
       245.000         214.000
 98  1  3  6 41 29.9970000  0  6G 5G17G 6G10G24G30
  21368043.294   -13240668.90949 -10298702.27247  21368042.672    21368048.708
       234.000         192.000
  22347567.027   -17196829.12449 -13363658.19846  22347566.082    22347573.364
       225.000         175.000
  20657931.515   -29959474.67049 -23318420.89147  20657931.442    20657936.861
       241.000         206.000
  20601397.368   -32380549.74549 -25211449.15047  20601396.640    20601402.687
       241.000         205.000
  22241405.570    -3935116.47949  -3058117.59946  22241405.375    22241412.532
       224.000         173.000
  19936793.875   -38938185.56349 -30314009.25348  19936794.025    19936799.410
       245.000         214.000
 98  1  3  6 41 59.9970000  0  6G 5G17G 6G10G24G30
  21379013.065   -13183022.29849 -10253782.82247  21379012.707    21379018.564
       234.000         192.000
  22327609.315   -17301707.48249 -13445381.59346  22327608.298    22327614.709
       225.000         175.000
  20640795.575   -30049524.70049 -23388589.74347  20640795.485    20640800.815
       240.000         206.000
  20602620.109   -32374124.21649 -25206442.24747  20602619.433    20602625.241
       241.000         205.000
  22249289.288    -3893687.52249  -3025835.29946  22249288.868    22249295.558
       223.000         172.000
  19935359.622   -38945722.51449 -30319882.21148  19935359.967    19935365.040
       245.000         214.000
 98  1  3  6 42 29.9970000  0  6G 5G17G 6G10G24G30
  21390038.359   -13125084.05349 -10208636.13247  21390038.085    21390043.777
       233.000         192.000
  22307694.595   -17406359.61949 -13526928.70246  22307693.985    22307700.450
       225.000         175.000
  20623687.517   -30139428.10949 -23458644.34747  20623687.348    20623692.841
       240.000         206.000
  20603947.588   -32367148.34349 -25201006.50047  20603946.824    20603952.780
       241.000         205.000
  22257178.274    -3852230.79949  -2993531.36846  22257178.656    22257184.531
       224.000         173.000
  19934036.408   -38952676.09049 -30325300.59448  19934036.684    19934042.238
       245.000         214.000
 98  1  3  6 42 59.9970000  0  6G 5G17G 6G10G24G30
  21401117.198   -13066864.53749 -10163270.26647  21401116.885    21401123.078
       233.000         191.000
  22287819.589   -17510803.41149 -13608313.46646  22287819.184    22287825.696
       226.000         176.000
  20606604.384   -30229200.69349 -23528597.01147  20606604.275    20606609.690
       241.000         206.000
  20605378.089   -32359630.86449 -25195148.72047  20605377.104    20605383.374
       240.000         205.000
  22265065.782    -3810781.73349  -2961233.39946  22265065.866    22265072.158
       223.000         173.000
  19932826.503   -38959034.30549 -30330255.06148  19932826.991    19932832.395
       245.000         214.000
 98  1  3  6 43 29.9970000  0  6G 5G17G 6G10G24G30
  21412247.650   -13008373.54349 -10117692.86247  21412247.639    21412253.052
       233.000         191.000
  22267984.551   -17615037.34949 -13689534.72246  22267983.866    22267990.712
       225.000         176.000
  20589551.131   -30318815.99849 -23598427.11747  20589550.821    20589556.491
       241.000         206.000
  20606914.641   -32351556.23049 -25188856.79347  20606913.900    20606920.128
       240.000         204.000
  22272954.397    -3769326.24049  -2928930.42346  22272953.855    22272960.500
       222.000         172.000
  19931730.286   -38964795.15849 -30334744.05248  19931730.530    19931735.996
       245.000         214.000
 98  1  3  6 43 59.9970000  0  6G 5G17G 6G10G24G30
  21423430.322   -12949608.15749 -10071901.64347  21423429.568    21423435.616
       233.000         190.000
  22248190.811   -17719054.05749 -13770586.71146  22248190.458    22248196.924
       226.000         177.000
  20572532.271   -30408250.56149 -23668116.38847  20572532.082    20572537.613
       241.000         206.000
  20608559.046   -32342914.74649 -25182123.17347  20608558.442    20608564.131
       241.000         204.000
  22280850.314    -3727832.58649  -2896597.71146  22280850.268    22280856.723
       222.000         172.000
  19930749.252   -38969950.39849 -30338761.14348  19930749.549    19930754.886
       245.000         214.000
 98  1  3  6 44 29.9970000  0  6G 5G17G 6G10G24G30
  21434659.415   -12890599.15149 -10025920.58647  21434658.595    21434664.799
       233.000         190.000
  22228430.890   -17822893.08449 -13851500.24146  22228430.448    22228437.103
       226.000         177.000
  20555540.013   -30497545.48249 -23737696.84147  20555539.876    20555545.173
       241.000         206.000
  20610302.645   -32333752.12649 -25174983.46247  20610301.765    20610307.994
       241.000         204.000
  22288745.085    -3686345.61549  -2864270.20346  22288744.853    22288751.443
       223.000         172.000
  19929878.821   -38974524.65549 -30342325.51048  19929879.312    19929884.412
       245.000         214.000
 98  1  3  6 44 59.9970000  0  6G 5G17G 6G10G24G30
  21445939.397   -12831322.15449  -9979730.71547  21445938.796    21445944.999
       232.000         190.000
  22208707.731   -17926538.79849 -13932263.15846  22208707.492    22208714.502
       226.000         177.000
  20538579.215   -30586675.09149 -23807148.48747  20538579.118    20538584.533
       240.000         206.000
  20612145.953   -32324065.44149 -25167435.39547  20612145.249    20612151.082
       240.000         204.000
  22296640.117    -3644857.01949  -2831941.43846  22296640.307    22296646.376
       221.000         171.000
  19929121.084   -38978506.59749 -30345428.34348  19929121.376    19929126.554
       245.000         214.000
 98  1  3  6 45 29.9970000  0  6G 5G17G 6G10G24G30
  21457270.073   -12771778.95049  -9933333.39947  21457269.691    21457276.080
       232.000         190.000
  22189022.524   -18029985.52449 -14012870.99746  22189022.310    22189028.939
       227.000         178.000
  20521652.289   -30675626.49049 -23876461.26147  20521652.266    20521657.768
       241.000         206.000
  20614087.756   -32313861.27949 -25159484.09647  20614087.094    20614093.001
       240.000         204.000
  22304537.291    -3603357.12849  -2799603.86746  22304537.140    22304542.590
       221.000         171.000
  19928472.948   -38981912.62449 -30348082.41448  19928473.315    19928478.721
       245.000         214.000
 98  1  3  6 45 59.9970000  0  6G 5G17G 6G10G24G30
  21468657.349   -12711938.36649  -9886704.36347  21468656.648    21468662.854
       232.000         189.000
  22169376.882   -18133224.29849 -14093316.79746  22169376.580    22169383.324
       227.000         178.000
  20504759.922   -30764396.48249 -23945632.67547  20504760.040    20504765.148
       241.000         207.000
  20616129.278   -32303132.94949 -25151124.35447  20616128.591    20616134.239
       240.000         204.000
  22312438.271    -3561837.11049  -2767250.61046  22312437.781    22312445.179
       221.000         170.000
  19927935.241   -38984738.56649 -30350284.46748  19927935.817    19927940.887
       245.000         214.000
 98  1  3  6 46 29.9970000  0  6G 5G17G 6G10G24G30
  21480100.999   -12651801.50649  -9839844.46147  21480100.896    21480106.104
       232.000         188.000
  22149768.869   -18236265.25049 -14173608.44346  22149768.235    22149774.125
       227.000         178.000
  20487901.779   -30852986.88949 -24014664.15447  20487901.751    20487907.196
       241.000         207.000
  20618267.565   -32291896.24049 -25142368.47147  20618266.891    20618272.769
       240.000         204.000
  22320337.954    -3520324.26449  -2734902.94946  22320338.301    22320344.963
       221.000         169.000
  19927504.479   -38987002.37749 -30352048.48948  19927504.835    19927510.238
       245.000         214.000
 98  1  3  6 46 59.9970000  0  6G 5G17G 6G10G24G30
  21491603.122   -12591357.63149  -9792745.32947  21491603.063    21491607.964
       232.000         188.000
  22130201.875   -18339090.43349 -14253731.95146  22130200.841    22130207.805
       228.000         178.000
  20471081.067   -30941380.20749 -24083542.06047  20471081.115    20471086.191
       241.000         207.000
  20620507.088   -32280127.35349 -25133197.90747  20620506.341    20620512.136
       240.000         204.000
  22328240.827    -3478794.19549  -2702541.85946  22328240.681    22328247.505
       221.000         169.000
  19927179.380   -38988710.95949 -30353379.86548  19927179.711    19927184.848
       245.000         214.000
 98  1  3  6 47 29.9970000  0  6G 5G17G 6G10G24G30
  21503157.111   -12530641.12449  -9745433.75847  21503156.465    21503162.764
       232.000         188.000
  22110672.874   -18441715.82149 -14333699.78646  22110672.390    22110679.418
       227.000         178.000
  20454291.930   -31029607.56449 -24152290.64347  20454291.748    20454297.098
       241.000         207.000
  20622847.033   -32267830.81549 -25123616.18447  20622846.341    20622852.135
       241.000         204.000
  22336142.854    -3437268.92449  -2670184.50446  22336142.550    22336149.346
       221.000         168.000
  19926955.161   -38989889.41349 -30354298.15348  19926955.706    19926960.658
       246.000         214.000
 98  1  3  6 47 59.9970000  0  6G 5G17G 6G10G24G30
  21514763.452   -12469649.33449  -9697907.68746  21514762.870    21514768.954
       231.000         187.000
  22091184.681   -18544126.84449 -14413500.58846  22091183.512    22091190.277
       227.000         178.000
  20437535.587   -31117662.66249 -24220904.99047  20437535.599    20437540.957
       241.000         207.000
  20625288.420   -32255001.24149 -25113619.10747  20625287.790    20625293.681
       240.000         203.000
  22344047.349    -3395731.04849  -2637817.33346  22344046.908    22344053.427
       220.000         167.000
  19926833.168   -38990530.82949 -30354797.97048  19926833.510    19926838.829
       245.000         214.000
 98  1  3  6 48 29.9970000  0  6G 5G17G 6G10G24G30
  21526418.267   -12408402.58649  -9650182.95246  21526417.751    21526423.968
       231.000         187.000
  22071738.474   -18646317.59649 -14493129.72246  22071737.684    22071745.007
       228.000         179.000
  20420813.337   -31205538.70249 -24289379.82147  20420813.355    20420818.678
       241.000         207.000
  20627829.048   -32241650.18749 -25103215.68147  20627828.591    20627834.538
       241.000         203.000
  22351955.330    -3354173.75549  -2605435.02146  22351955.014    22351961.037
       221.000         167.000
  19926815.943   -38990621.14549 -30354868.36448  19926816.212    19926821.669
       245.000         214.000
 98  1  3  6 48 59.9970000  0  6G 5G17G 6G10G24G30
  21538117.417   -12346922.60549  -9602276.47846  21538116.852    21538122.680
       230.000         187.000
  22052336.006   -18748278.21849 -14572579.53246  22052335.236    22052342.285
       226.000         179.000
  20404122.538   -31293249.59149 -24357725.95747  20404122.500    20404127.967
       241.000         208.000
  20630466.350   -32227791.00949 -25092416.31747  20630465.626    20630471.492
       240.000         203.000
  22359865.264    -3312606.80749  -2573045.19246  22359865.427    22359872.023
       220.000         166.000
  19926904.223   -38990157.31049 -30354506.95248  19926904.711    19926909.788
       245.000         213.000
 98  1  3  6 49 29.9970000  0  6G 5G17G 6G10G24G30
  21549864.790   -12285190.03449  -9554173.17446  21549864.339    21549870.179
       230.000         187.000
  22032982.346   -18849982.12549 -14651829.31146  22032982.224    22032989.014
       228.000         179.000
  20387467.878   -31380770.35549 -24425923.95447  20387467.710    20387473.287
       242.000         208.000
  20633203.640   -32213406.37549 -25081207.50647  20633202.701    20633208.960
       240.000         203.000
  22367780.453    -3271012.36049  -2540633.94746  22367781.087    22367786.848
       220.000         166.000
  19927106.758   -38989093.14249 -30353677.74448  19927106.981    19927112.209
       245.000         213.000
 98  1  3  6 49 59.9970000  0  6G 5G17G 6G10G24G30
  21561662.231   -12223193.93149  -9505864.52146  21561661.442    21561667.240
       230.000         186.000
  22013676.446   -18951435.29949 -14730883.74246  22013675.979    22013682.477
       228.000         179.000
  20370850.085   -31468097.56649 -24493971.12847  20370850.154    20370855.383
       243.000         208.000
  20636040.873   -32198496.49749 -25069589.42247  20636040.177    20636046.397
       240.000         203.000
  22375702.578    -3229381.32349  -2508194.16446  22375702.324    22375708.283
       220.000         166.000
  19927425.198   -38987419.74249 -30352373.81748  19927425.271    19927430.766
       245.000         213.000
 98  1  3  6 50 29.9970000  0  6G 5G17G 6G10G24G30
  21573514.865   -12160907.72649  -9457329.80346  21573514.097    21573520.662
       229.000         184.000
  21994419.756   -19052629.72749 -14809736.48946  21994418.421    21994426.350
       227.000         179.000
  20354272.940   -31555211.05549 -24561851.75147  20354272.740    20354278.229
       243.000         208.000
  20638982.852   -32183036.43849 -25057542.61747  20638982.010    20638988.147
       239.000         202.000
  22383631.909    -3187712.22149  -2475724.73646  22383631.594    22383637.885
       220.000         166.000
  19927865.026   -38985108.17049 -30350572.60848  19927865.486    19927870.844
       245.000         213.000
 98  1  3  6 50 59.9970000  0  6G 5G17G 6G10G24G30
  21585429.461   -12098296.22849  -9408541.60546  21585428.929    21585434.989
       229.000         184.000
  21975213.980   -19153556.59949 -14888380.74346  21975212.787    21975219.874
       228.000         180.000
  20337740.898   -31642087.56649 -24629547.72947  20337740.715    20337746.395
       242.000         208.000
  20642034.170   -32167001.67449 -25045047.99647  20642033.478    20642039.455
       240.000         202.000
  22391569.160    -3146001.81649  -2443223.11346  22391569.499    22391575.662
       220.000         166.000
  19928428.572   -38982146.96849 -30348265.18848  19928428.856    19928434.302
       244.000         213.000
 98  1  3  6 51 29.9970000  0  6G 5G17G 6G10G24G30
  21597394.593   -12035419.34149  -9359546.62346  21597394.335    21597400.182
       232.000         185.000
  21956044.104   -19254295.24849 -14966878.36546  21956043.278    21956049.723
       227.000         180.000
  20321245.296   -31728772.40949 -24697094.35247  20321245.085    20321250.677
       243.000         208.000
  20645184.364   -32150447.37149 -25032148.54147  20645183.607    20645189.812
       239.000         202.000
  22399506.245    -3104292.63149  -2410722.45746  22399505.695    22399512.429
       219.000         165.000
  19929103.383   -38978600.78749 -30345501.94248  19929103.689    19929109.103
       244.000         213.000
 98  1  3  6 51 59.9970000  0  6G 5G17G 6G10G24G30
  21609408.320   -11972287.14849  -9310352.71046  21609408.158    21609414.048
       231.000         185.000
  21936908.154   -19354855.36249 -15045236.83646  21936907.315    21936914.188
       228.000         180.000
  20304784.989   -31815271.72449 -24764496.41347  20304784.860    20304790.435
       243.000         209.000
  20648429.398   -32133394.75249 -25018860.79047  20648428.770    20648434.505
       240.000         202.000
  22407440.203    -3062599.42749  -2378234.23646  22407439.552    22407446.244
       217.000         164.000
  19929883.686   -38974500.09349 -30342306.60147  19929883.898    19929889.173
       244.000         212.000
 98  1  3  6 52 29.9970000  0  6G 5G17G 6G10G24G30
  21621469.208   -11908906.65349  -9260965.30846  21621469.048    21621474.375
       230.000         184.000
  21917808.326   -19455225.20949 -15123447.04546  21917807.628    21917814.260
       228.000         181.000
  20288361.221   -31901579.12549 -24831748.92947  20288360.940    20288366.385
       243.000         209.000
  20651768.991   -32115845.12449 -25005185.75247  20651768.308    20651774.270
       239.000         202.000
  22415368.305    -3020936.34449  -2345769.49946  22415368.313    22415374.053
       218.000         163.000
  19930769.312   -38969846.18249 -30338680.18047  19930769.815    19930775.332
       244.000         212.000
 98  1  3  6 52 59.9970000  0  6G 5G17G 6G10G24G30
  21633578.790   -11845270.10949  -9211378.38346  21633578.235    21633584.185
       231.000         183.000
  21898751.788   -19555367.84849 -15201480.24646  21898751.380    21898758.051
       228.000         181.000
  20271978.366   -31987671.62449 -24898833.99447  20271978.391    20271983.816
       243.000         209.000
  20655209.214   -32097766.51549 -24991098.52547  20655208.936    20655214.469
       239.000         201.000
  22423298.465    -2979263.02949  -2313296.78846  22423298.483    22423304.252
       218.000         163.000
  19931764.800   -38964615.02249 -30334603.96547  19931765.096    19931770.463
       244.000         212.000
 98  1  3  6 53 29.9970000  0  6G 5G17G 6G10G24G30
  21645727.755   -11781426.97449  -9161630.47646  21645727.025    21645733.514
       230.000         183.000
  21879734.887   -19655302.09849 -15279351.03746  21879734.495    21879740.813
       229.000         181.000
  20255630.040   -32073582.73249 -24965777.71047  20255629.959    20255635.117
       243.000         209.000
  20658746.245   -32079179.45949 -24976615.10747  20658745.648    20658751.191
       239.000         201.000
  22431226.788    -2937599.67749  -2280831.83346  22431227.065    22431233.596
       218.000         163.000
  19932863.970   -38958838.85549 -30330103.07047  19932864.255    19932869.509
       244.000         212.000
 98  1  3  6 53 59.9970000  0  6G 5G17G 6G10G24G30
  21657916.770   -11717373.45349  -9111718.63046  21657916.347    21657922.454
       230.000         183.000
  21860760.399   -19755013.60849 -15357048.25646  21860759.581    21860766.323
       230.000         181.000
  20239316.513   -32159310.84549 -25032578.83347  20239316.423    20239321.975
       243.000         209.000
  20662381.100   -32060078.15249 -24961730.97547  20662380.152    20662386.520
       239.000         201.000
  22439151.868    -2895952.89749  -2248379.79445  22439151.569    22439157.883
       217.000         162.000
  19934067.099   -38952516.26449 -30325176.39347  19934067.592    19934072.780
       244.000         212.000
 98  1  3  6 54 29.9970000  0  6G 5G17G 6G10G24G30
  21670141.376   -11653132.59549  -9061660.80946  21670140.714    21670146.994
       229.000         182.000
  21841825.010   -19854519.50349 -15434585.28646  21841824.060    21841831.156
       230.000         182.000
  20223036.384   -32244863.31749 -25099243.09047  20223036.133    20223041.481
       243.000         209.000
  20666112.616   -32040468.58749 -24946450.79247  20666111.579    20666117.685
       239.000         201.000
  22447074.649    -2854318.23149  -2215937.20745  22447074.514    22447081.399
       218.000         162.000
  19935375.388   -38945641.30549 -30319819.28947  19935375.677    19935380.954
       244.000         212.000
 98  1  3  6 54 59.9970000  0  6G 5G17G 6G10G24G30
  21682404.445   -11588689.55949  -9011445.45646  21682403.964    21682409.823
       228.000         182.000
  21822930.966   -19953808.25349 -15511953.11046  21822930.749    21822936.932
       230.000         182.000
  20206794.402   -32330215.48649 -25165751.27147  20206794.277    20206799.842
       243.000         209.000
  20669940.260   -32020354.35749 -24930777.37447  20669939.659    20669945.427
       238.000         201.000
  22455000.305    -2812668.74149  -2183483.05145  22455000.067    22455006.380
       219.000         162.000
  19936787.366   -38938221.42849 -30314037.57947  19936787.549    19936793.099
       244.000         212.000
 98  1  3  6 55 29.9970000  0  6G 5G17G 6G10G24G30
  21694704.008   -11524055.10949  -8961080.95646  21694703.699    21694709.410
       229.000         181.000
  21804072.974   -20052907.56149 -15589173.31646  21804072.485    21804078.908
       230.000         182.000
  20190587.546   -32415383.24549 -25232115.75247  20190587.587    20190592.757
       243.000         209.000
  20673857.196   -31999770.69549 -24914738.15747  20673856.597    20673862.411
       239.000         201.000
  22462923.530    -2771031.60449  -2151038.52245  22462923.282    22462929.457
       219.000         162.000
  19938296.831   -38930289.18549 -30307856.62647  19938297.394    19938302.690
       244.000         212.000
 98  1  3  6 55 59.9970000  0  6G 5G17G 6G10G24G30
  21707044.566   -11459205.09749  -8910548.46346  21707044.296    21707049.826
       229.000         181.000
  21785251.059   -20151817.15749 -15666245.69646  21785249.955    21785256.851
       231.000         183.000
  20174416.791   -32500360.97449 -25298332.16747  20174416.692    20174422.342
       243.000         209.000
  20677862.037   -31978725.10349 -24898338.99547  20677861.225    20677867.195
       239.000         200.000
  22470845.675    -2729400.50049  -2118598.68846  22470845.657    22470851.840
       219.000         163.000
  19939907.741   -38921823.71949 -30301260.17447  19939908.029    19939913.125
       244.000         212.000
 98  1  3  6 56 29.9970000  0  6G 5G17G 6G10G24G30
  21719429.915   -11394119.74649  -8859832.59046  21719429.502    21719435.666
       228.000         180.000
  21766467.554   -20250525.02049 -15743160.87746  21766466.699    21766473.368
       230.000         182.000
  20158284.556   -32585136.53649 -25364391.04747  20158284.530    20158289.836
       243.000         210.000
  20681956.318   -31957209.56349 -24881573.64247  20681955.520    20681961.477
       238.000         200.000
  22478767.182    -2687772.87649  -2086161.56645  22478767.463    22478772.794
       220.000         162.000
  19941622.915   -38912810.56149 -30294236.94647  19941623.142    19941628.656
       244.000         211.000
 98  1  3  6 56 59.9970000  0  6G 5G17G 6G10G24G30
  21731867.370   -11328760.04449  -8808902.94646  21731866.782    21731872.606
       227.000         179.000
  21747729.925   -20348991.91049 -15819888.27346  21747728.981    21747735.675
       230.000         182.000
  20142197.037   -32669676.97649 -25430266.71147  20142196.917    20142202.377
       243.000         210.000
  20686146.681   -31935188.98549 -24864414.75447  20686146.049    20686152.012
       238.000         200.000
  22486691.043    -2646133.08349  -2053714.97546  22486691.098    22486697.525
       219.000         163.000
  19943447.566   -38903222.36649 -30286765.64147  19943448.038    19943453.208
       244.000         211.000
 98  1  3  6 57 29.9970000  0  6G 5G17G 6G10G24G30
  21744345.381   -11263187.78949  -8757807.68346  21744345.073    21744350.380
       228.000         179.000
  21729028.942   -20447266.09349 -15896465.55146  21729028.257    21729034.587
       230.000         183.000
  20126141.460   -32754049.68149 -25496011.67347  20126141.532    20126146.767
       244.000         210.000
  20690426.205   -31912699.74849 -24846890.67047  20690425.496    20690431.514
       238.000         200.000
  22494605.235    -2604543.48449  -2021307.48846  22494605.259    22494611.409
       220.000         163.000
  19945378.637   -38893074.40449 -30278858.14547  19945378.822    19945384.313
       243.000         211.000
 98  1  3  6 57 59.9970000  0  6G 5G17G 6G10G24G30
  21756868.706   -11197377.26749  -8706526.75846  21756868.184    21756873.708
       227.000         178.000
  21710372.055   -20545308.41249 -15972862.14846  21710371.483    21710378.025
       230.000         183.000
  20110124.465   -32838219.71949 -25561598.71047  20110124.520    20110129.654
       244.000         210.000
  20694802.856   -31889700.51349 -24828969.19347  20694802.137    20694808.176
       238.000         200.000
  22502516.642    -2562968.83249  -1988911.65146  22502517.351    22502523.054
       219.000         163.000
  19947422.266   -38882334.87449 -30270489.68947  19947422.747    19947428.078
       244.000         211.000
 98  1  3  6 58 29.9970000  0  6G 5G17G 6G10G24G30
  21769434.366   -11131344.07949  -8655072.33346  21769434.104    21769440.143
       226.000         178.000
  21691762.748   -20643100.76449 -16049063.95146  21691761.956    21691768.633
       230.000         183.000
  20094148.018   -32922176.53849 -25627019.60047  20094147.951    20094153.273
       244.000         210.000
  20699278.548   -31866180.46449 -24810641.87947  20699277.828    20699283.802
       238.000         199.000
  22510428.382    -2521392.83349  -1956514.77746  22510429.294    22510434.962
       219.000         163.000
  19949575.809   -38871018.10049 -30261671.43047  19949576.246    19949581.532
       244.000         211.000
 98  1  3  6 58 59.9970000  0  6G 5G17G 6G10G24G30
  21782039.263   -11065104.87349  -8603457.38446  21782039.028    21782044.323
       226.000         179.000
  21673199.720   -20740649.95749 -16125076.26346  21673199.166    21673205.462
       231.000         183.000
  20078212.597   -33005917.77949 -25692272.50647  20078212.273    20078217.611
       242.000         210.000
  20703851.953   -31842146.89349 -24791914.42347  20703851.162    20703856.998
       239.000         199.000
  22518343.731    -2479797.66649  -1924102.95846  22518343.935    22518350.285
       219.000         164.000
  19951839.249   -38859123.73049 -30252403.10047  19951839.649    19951844.943
       244.000         211.000
 98  1  3  6 59 29.9960000  0  6G 5G17G 6G10G24G30
  21794674.343   -10998706.87849  -8551718.69446  21794674.621    21794680.191
       227.000         178.000
  21654676.980   -20837987.56849 -16200923.65946  21654676.639    21654682.855
       231.000         183.000
  20062312.715   -33089472.18849 -25757379.83247  20062312.630    20062317.993
       242.000         210.000
  20708514.595   -31817644.81049 -24772821.89447  20708513.954    20708519.914
       238.000         199.000
  22526258.406    -2438205.92749  -1891693.82246  22526258.486    22526265.015
       219.000         164.000
  19954202.844   -38846702.95849 -30242724.59147  19954203.033    19954208.642
       243.000         210.000
 98  1  3  6 59 59.9960000  0  6G 5G17G 6G10G24G30
  21807338.126   -10932158.23449  -8499862.60746  21807337.644    21807343.468
       227.000         178.000
  21636189.196   -20935141.24049 -16276627.73446  21636188.049    21636195.112
       230.000         183.000
  20046448.421   -33172839.47149 -25822341.34547  20046448.303    20046453.917
       243.000         210.000
  20713261.395   -31792700.20249 -24753384.53947  20713260.628    20713266.443
       238.000         199.000
  22534170.936    -2396625.28849  -1859293.32446  22534170.848    22534177.851
       217.000         163.000
  19956658.572   -38833797.75949 -30232668.60247  19956658.843    19956664.319
       244.000         210.000
 98  1  3  7  0 29.9960000  0  6G 5G17G 6G10G24G30
  21820042.137   -10865398.41349  -8447841.96846  21820041.620    21820047.683
       227.000         177.000
  21617747.645   -21032052.00749 -16352142.57146  21617747.095    21617753.625
       230.000         184.000
  20030633.627   -33255946.81749 -25887100.31347  20030633.471    20030638.854
       243.000         210.000
  20718099.794   -31767274.24249 -24733572.10647  20718099.218    20718105.157
       238.000         199.000
  22542090.497    -2355007.41349  -1826863.81145  22542090.136    22542096.056
       216.000         162.000
  19959218.246   -38820346.66749 -30222187.24847  19959218.680    19959224.078
       243.000         210.000
 98  1  3  7  0 59.9960000  0  6G 5G17G 6G10G24G30
  21832778.443   -10798468.74649  -8395689.00446  21832777.373    21832783.993
       227.000         177.000
  21599340.775   -21128780.39449 -16427515.31146  21599339.928    21599346.826
       231.000         184.000
  20014859.456   -33338840.65249 -25951692.91447  20014859.441    20014864.628
       243.000         210.000
  20723019.154   -31741422.72549 -24713428.06447  20723018.483    20723024.186
       238.000         199.000
  22550004.359    -2313419.50149  -1794457.64445  22550005.106    22550010.247
       216.000         161.000
  19961872.956   -38806396.21449 -30211316.78047  19961873.493    19961878.622
       243.000         210.000
 98  1  3  7  1 29.9960000  0  6G 5G17G 6G10G24G30
  21845557.679   -10731313.22649  -8343360.05546  21845557.195    21845563.542
       228.000         178.000
  21580977.147   -21225281.98749 -16502711.34146  21580976.441    21580982.883
       230.000         184.000
  19999132.789   -33421484.74649 -26016090.90547  19999132.599    19999138.165
       243.000         211.000
  20728029.557   -31715093.01649 -24692911.41347  20728029.004    20728034.978
       238.000         198.000
  22557917.137    -2271837.25549  -1762055.89345  22557917.199    22557923.084
       217.000         160.000
  19964627.477   -38791921.20249 -30200037.57847  19964627.806    19964633.140
       243.000         210.000
 98  1  3  7  1 59.9960000  0  6G 5G17G 6G10G24G30
  21858377.664   -10663943.88449  -8290864.47546  21858377.610    21858383.259
       227.000         178.000
  21562650.382   -21321589.60649 -16577756.22746  21562650.008    21562656.188
       231.000         185.000
  19983447.961   -33503909.06649 -26080317.64747  19983448.057    19983453.413
       243.000         211.000
  20733126.801   -31688307.09349 -24672039.27047  20733125.956    20733131.922
       238.000         198.000
  22565822.530    -2230294.15049  -1729684.64745  22565822.336    22565828.208
       215.000         159.000
  19967478.151   -38776940.79349 -30188364.56447  19967478.532    19967483.892
       243.000         210.000
 98  1  3  7  2 29.9960000  0  7G 5G23G17G 6G10G24G30
  21871241.777   -10596342.53849  -8238188.12346  21871241.285    21871247.158
       226.000         178.000
  23701216.552    -2479838.28059  -1912785.95945  23701216.569    23701223.096
       205.000         145.000
  21544364.109   -21417684.75249 -16652635.54346  21544363.687    21544370.330
       230.000         185.000
  19967805.775   -33586109.41749 -26144369.86747  19967805.756    19967811.143
       243.000         211.000
  20738315.359   -31661040.94549 -24650792.93047  20738314.673    20738320.738
       237.000         198.000
  22573725.923    -2188761.68349  -1697321.69245  22573725.675    22573732.186
       217.000         159.000
  19970429.229   -38761432.92649 -30176280.53447  19970429.629    19970435.067
       243.000         210.000
 98  1  3  7  2 59.9960000  0  7G 5G23G17G 6G10G24G30
  21884149.859   -10528510.13249  -8185331.71346  21884148.969    21884155.198
       224.000         176.000
  23674581.211    -2619808.33449  -2021853.46545  23674579.979    23674587.103
       206.000         147.000
  21526119.575   -21513560.19949 -16727343.65446  21526118.918    21526125.641
       230.000         185.000
  19952207.491   -33668079.02149 -26208242.27947  19952207.494    19952212.726
       243.000         211.000
  20743598.901   -31633275.81349 -24629157.76647  20743598.096    20743604.256
       237.000         198.000
  22581630.509    -2147222.92849  -1664953.84345  22581630.782    22581636.448
       217.000         160.000
  19973482.699   -38745387.04749 -30163777.27747  19973483.015    19973488.367
       243.000         210.000
 98  1  3  7  3 29.9960000  0  7G 5G23G17G 6G10G24G30
  21897098.699   -10460462.96549  -8132307.96246  21897098.024    21897104.427
       223.000         175.000
  23647962.498    -2759691.03149  -2130852.91145  23647961.737    23647968.291
       208.000         149.000
  21507914.786   -21609226.55149 -16801888.85446  21507914.291    21507920.517
       231.000         186.000
  19936650.474   -33749831.82549 -26271945.74847  19936650.244    19936655.588
       244.000         212.000
  20748974.429   -31605027.21449 -24607145.87547  20748973.525    20748979.696
       237.000         198.000
  22589534.394    -2105687.83649  -1632588.85245  22589534.451    22589539.946
       217.000         159.000
  19976636.188   -38728815.53149 -30150864.43647  19976636.622    19976642.041
       243.000         209.000
 98  1  3  7  3 59.9960000  0  7G 5G23G17G 6G10G24G30
  21910084.682   -10392221.15449  -8079132.53646  21910084.854    21910090.326
       224.000         175.000
  23621357.727    -2899499.77649  -2239794.73745  23621357.045    23621363.671
       209.000         148.000
  21489749.311   -21704686.87349 -16876273.51946  21489748.337    21489755.104
       230.000         186.000
  19921135.994   -33831360.87349 -26335474.86047  19921135.865    19921141.262
       243.000         212.000
  20754438.292   -31576314.47849 -24584772.31847  20754437.482    20754443.638
       237.000         197.000
  22597438.735    -2064150.45449  -1600222.05345  22597438.599    22597445.530
       217.000         160.000
  19979891.810   -38711706.97249 -30137533.11947  19979892.069    19979897.643
       243.000         209.000
 98  1  3  7  4 29.9960000  0  8G 5G23G17G 6G26G10G24G30
  21923110.474   -10323770.53249  -8025794.41046  21923109.817    21923116.411
       226.000         176.000
  23594770.450    -3039216.23349  -2348664.62645  23594770.041    23594775.595
       210.000         148.000
  21471631.009   -21799899.06449 -16950464.82846  21471630.919    21471636.877
       230.000         186.000
  19905672.869   -33912620.08449 -26398793.72547  19905672.839    19905678.281
       244.000         212.000
  23473809.020    -2661335.92359  -2055791.71345  23473809.270    23473815.419
       203.000         144.000
  20759996.462   -31547105.84049 -24562012.35047  20759995.604    20760001.978
       236.000         197.000
  22605348.645    -2022583.83549  -1567832.49845  22605348.413    22605354.502
       216.000         160.000
  19983258.879   -38694013.04049 -30123745.66647  19983259.277    19983264.735
       243.000         209.000
 98  1  3  7  4 59.9960000  0  8G 5G23G17G 6G26G10G24G30
  21936169.047   -10255147.55349  -7972321.96646  21936168.686    21936174.590
       225.000         176.000
  23568194.254    -3178874.68949  -2457489.37245  23568193.859    23568199.874
       208.000         146.000
  21453553.872   -21894895.12049 -17024487.69946  21453553.104    21453559.547
       230.000         186.000
  19890257.835   -33993626.69449 -26461915.74747  19890257.721    19890263.036
       244.000         212.000
  23451387.843    -2779159.19749  -2147602.04145  23451386.743    23451393.159
       203.000         143.000
  20765642.843   -31517433.89649 -24538891.35647  20765642.105    20765648.281
       236.000         197.000
  22613255.217    -1981034.95949  -1535456.75745  22613254.809    22613261.098
       216.000         159.000
  19986732.790   -38675757.75249 -30109520.77947  19986733.213    19986738.629
       243.000         209.000
 98  1  3  7  5 29.9960000  0  8G 5G23G17G 6G26G10G24G30
  21949258.768   -10186360.95249  -7918722.03146  21949258.465    21949264.084
       224.000         175.000
  23541630.337    -3318468.71249  -2566263.94245  23541630.628    23541636.469
       208.000         144.000
  21435517.931   -21989674.31349 -17098341.60446  21435517.410    21435524.122
       231.000         186.000
  19874889.892   -34074385.64949 -26524844.79647  19874889.730    19874895.235
       243.000         212.000
  23428960.023    -2897016.85649  -2239439.10445  23428960.468    23428964.547
       208.000         142.000
  20771376.305   -31487304.50849 -24515413.91847  20771375.396    20771381.628
       236.000         197.000
  22621157.149    -1939510.36249  -1503099.92845  22621157.249    22621163.200
       217.000         158.000
  19990310.914   -38656954.57649 -30094868.96447  19990311.355    19990316.786
       242.000         209.000
 98  1  3  7  5 59.9960000  0  8G 5G23G17G 6G26G10G24G30
  21962378.128   -10117417.97649  -7865000.26046  21962378.162    21962383.487
       223.000         174.000
  23515080.710    -3457987.95749  -2674980.23745  23515080.349    23515086.410
       210.000         142.000
  21417526.403   -22084220.62749 -17172014.05446  21417525.725    21417532.181
       231.000         186.000
  19859571.891   -34154882.19649 -26587569.37847  19859571.775    19859577.046
       243.000         212.000
  23406530.998    -3014884.37449  -2331283.89045  23406532.065    23406536.748
       209.000         142.000
  20777196.674   -31456718.15749 -24491580.40747  20777195.747    20777202.229
       236.000         197.000
  22629056.123    -1898001.04849  -1470755.02745  22629056.510    22629061.474
       215.000         157.000
  19993995.113   -38637594.11149 -30079782.89647  19993995.505    19994000.751
       243.000         209.000
 98  1  3  7  6 29.9960000  0  8G 5G23G17G 6G26G10G24G30
  21975522.272   -10048345.33249  -7811177.46046  21975522.113    21975527.728
       224.000         174.000
  23488542.769    -3597446.08849  -2783648.92345  23488542.181    23488548.216
       212.000         142.000
  21399576.729   -22178546.83049 -17245514.98646  21399576.042    21399582.182
       231.000         186.000
  19844299.450   -34235139.35549 -26650107.42047  19844299.387    19844304.690
       244.000         212.000
  23384099.708    -3132761.87249  -2423136.47045  23384098.116    23384105.438
       198.000         141.000
  20783099.913   -31425696.56249 -24467407.74047  20783099.320    20783105.372
       236.000         196.000
  22636946.380    -1856537.18949  -1438445.55045  22636946.688    22636952.053
       214.000         156.000
  19997777.858   -38617715.64649 -30064293.17547  19997778.076    19997783.710
       243.000         209.000
 98  1  3  7  6 59.9960000  0  8G 5G23G17G 6G26G10G24G30
  21988697.000    -9979111.71249  -7757229.22446  21988697.002    21988703.311
       225.000         174.000
  23462025.481    -3736795.30749  -2892232.73845  23462024.428    23462031.404
       210.000         141.000
  21381672.164   -22272635.88849 -17318831.14046  21381671.747    21381678.018
       232.000         186.000
  19829075.226   -34315143.20249 -26712448.08147  19829075.057    19829080.459
       243.000         212.000
  23361672.994    -3250612.01649  -2514967.67945  23361673.070    23361680.116
       206.000         140.000
  20789088.914   -31394224.13549 -24442883.77347  20789088.154    20789094.209
       236.000         196.000
  22644832.973    -1815093.10149  -1406151.46845  22644832.489    22644838.423
       214.000         155.000
  20001657.648   -38597327.24249 -30048406.10747  20001657.750    20001663.200
       243.000         208.000
 98  1  3  7  7 29.9960000  0  8G 5G23G17G 6G26G10G24G30
  22001897.525    -9909743.06949  -7703175.76646  22001897.973    22001902.812
       225.000         173.000
  23435526.224    -3876049.70449  -3000742.67645  23435525.144    23435531.915
       208.000         141.000
  21363809.621   -22366504.07149 -17391975.15946  21363808.703    21363815.589
       231.000         186.000
  19813892.367   -34394929.56249 -26774619.27447  19813892.248    19813897.446
       244.000         212.000
  23339247.400    -3368459.74449  -2606797.04145  23339248.415    23339253.278
       209.000         142.000
  20795157.324   -31362334.18249 -24418034.46747  20795156.703    20795162.632
       236.000         196.000
  22652711.039    -1773693.16749  -1373891.78845  22652710.915    22652716.962
       216.000         154.000
  20005627.620   -38576464.84449 -30032149.69147  20005627.902    20005633.324
       243.000         208.000
 98  1  3  7  7 59.9960000  0  8G 5G23G17G 6G26G10G24G30
  22015125.763    -9840228.40849  -7649008.51146  22015125.326    22015131.566
       224.000         171.000
  23409045.173    -4015207.97449  -3109177.70345  23409044.026    23409050.400
       208.000         141.000
  21345990.475   -22460144.39749 -17464941.63846  21345989.669    21345995.720
       232.000         187.000
  19798752.122   -34474491.79949 -26836615.81947  19798752.219    19798757.368
       244.000         212.000
  23316822.051    -3486306.56549  -2698625.78345  23316822.949    23316827.388
       206.000         143.000
  20801305.551   -31330025.18249 -24392858.62947  20801304.936    20801311.037
       237.000         196.000
  22660582.393    -1732328.54449  -1341659.63345  22660581.366    22660589.066
       214.000         155.000
  20009689.403   -38555119.87049 -30015517.24847  20009689.580    20009694.954
       243.000         208.000
 98  1  3  7  8 29.9960000  0  8G 5G23G17G 6G26G10G24G30
  22028394.755    -9770499.55049  -7594674.33746  22028394.200    22028400.724
       222.000         170.000
  23382592.656    -4154216.84249  -3217496.30745  23382593.248    23382598.560
       208.000         140.000
  21328221.047   -22553523.34149 -17537704.43646  21328220.400    21328226.646
       231.000         187.000
  19783663.584   -34553782.80749 -26898401.02247  19783663.485    19783668.613
       244.000         212.000
  23294405.638    -3604104.87649  -2790416.69045  23294404.739    23294411.995
       207.000         142.000
  20807543.541   -31297244.65049 -24367315.35947  20807542.778    20807548.806
       236.000         196.000
  22668457.450    -1690944.25449  -1309412.14345  22668457.423    22668463.605
       215.000         154.000
  20013851.662   -38533247.13549 -29998473.57247  20013852.019    20013857.447
       242.000         208.000
 98  1  3  7  8 59.9960000  0  8G 5G23G17G 6G26G10G24G30
  22041697.167    -9700594.72549  -7540203.08246  22041696.321    22041702.675
       221.000         170.000
  23356161.728    -4293112.03749  -3325726.30245  23356160.966    23356168.129
       201.000         141.000
  21310491.555   -22646692.27649 -17610303.56946  21310490.734    21310497.252
       232.000         187.000
  19768619.071   -34632842.35149 -26960005.85748  19768619.060    19768624.390
       244.000         213.000
  23271989.189    -3721903.14649  -2882207.54845  23271989.017    23271994.479
       209.000         140.000
  20813862.449   -31264038.63049 -24341440.54247  20813861.923    20813867.856
       236.000         196.000
  22676328.943    -1649579.51049  -1277179.89045  22676329.374    22676335.172
       215.000         155.000
  20018108.854   -38510875.48549 -29981041.12547  20018109.371    20018114.683
       243.000         208.000
 98  1  3  7  9 29.9960000  0  8G 5G23G17G 6G26G10G24G30
  22055017.390    -9630596.05349  -7485658.69546  22055016.790    22055023.342
       221.000         170.000
  23329736.464    -4431977.09349  -3433932.81045  23329735.730    23329742.706
       210.000         145.000
  21292789.880   -22739715.25749 -17682788.97546  21292789.189    21292795.222
       232.000         187.000
  19753608.073   -34711725.57749 -27021473.30748  19753608.152    19753613.510
       244.000         213.000
  23249559.921    -3839768.98549  -2974051.05745  23249559.625    23249565.653
       207.000         140.000
  20820247.847   -31230483.04749 -24315293.33947  20820246.903    20820252.989
       235.000         195.000
  22684184.954    -1608296.50249  -1245011.32145  22684184.956    22684191.153
       212.000         155.000
  20022450.644   -38488059.40249 -29963262.35047  20022450.996    20022456.383
       242.000         208.000
 98  1  3  7  9 59.9960000  0  8G 5G23G17G 6G26G10G24G30
  22068364.137    -9560458.24449  -7431005.88546  22068362.800    22068370.190
       219.000         170.000
  23303324.386    -4570773.29649  -3542085.68545  23303324.104    23303330.599
       210.000         150.000
  21275124.052   -22832549.38549 -17755127.22546  21275123.139    21275129.582
       231.000         187.000
  19738643.485   -34790365.16449 -27082750.90648  19738643.441    19738648.791
       244.000         213.000
  23227128.907    -3957645.50449  -3065902.88745  23227130.352    23227135.204
       211.000         142.000
  20826709.597   -31196526.15049 -24288833.42247  20826708.600    20826715.264
       235.000         195.000
  22692034.755    -1567045.88449  -1212868.00545  22692034.122    22692040.685
       214.000         155.000
  20026886.529   -38464748.63649 -29945098.11247  20026886.905    20026892.235
       242.000         208.000
 98  1  3  7 10 29.9960000  0  8G 5G23G17G 6G26G10G24G30
  22081735.495    -9490191.18849  -7376252.36846  22081734.953    22081741.668
       220.000         169.000
  23276926.487    -4709495.72749  -3650181.09045  23276925.910    23276932.492
       216.000         152.000
  21257493.407   -22925199.34049 -17827321.95347  21257493.004    21257499.543
       232.000         188.000
  19723725.839   -34868757.78649 -27143836.06548  19723725.589    19723730.925
       244.000         213.000
  23204697.370    -4075524.61049  -3157756.72345  23204698.022    23204703.883
       209.000         142.000
  20833246.987   -31162172.19949 -24262064.11847  20833246.564    20833252.365
       235.000         195.000
  22699875.571    -1525841.44649  -1180760.66945  22699874.984    22699881.944
       213.000         154.000
  20031415.665   -38440948.11849 -29926552.24547  20031416.019    20031421.334
       243.000         208.000
 98  1  3  7 10 59.9960000  0  8G 5G23G17G 6G26G10G24G30
  22095136.577    -9419768.53949  -7321377.60846  22095136.215    22095141.930
       220.000         167.000
  23250552.176    -4848093.88549  -3758179.67845  23250551.968    23250557.945
       217.000         155.000
  21239909.851   -23017601.05249 -17899323.24147  21239909.487    21239915.491
       232.000         188.000
  19708867.475   -34946838.87949 -27204678.48048  19708867.485    19708872.904
       245.000         213.000
  23182275.750    -4193349.48349  -3249568.28845  23182274.146    23182282.049
       208.000         140.000
  20839870.609   -31127364.58449 -24234941.30647  20839869.848    20839875.460
       235.000         194.000
  22707715.616    -1484641.55249  -1148656.88045  22707715.276    22707722.180
       217.000         154.000
  20036045.943   -38416615.76149 -29907591.94747  20036045.954    20036051.582
       243.000         208.000
 98  1  3  7 11 29.9960000  0  8G 5G23G17G 6G26G10G24G30
  22108563.342    -9349210.53349  -7266397.33946  22108563.140    22108568.538
       220.000         166.000
  23224194.480    -4986604.51449  -3866110.05745  23224194.215    23224200.500
       220.000         156.000
  21222370.820   -23109769.22049 -17971142.57247  21222370.249    21222376.843
       232.000         188.000
  19694067.201   -35024614.96149 -27265283.21048  19694067.121    19694072.556
       244.000         213.000
  23159861.887    -4311135.34549  -3341349.51045  23159863.610    23159868.473
       210.000         141.000
  20846579.251   -31092110.44149 -24207470.55247  20846578.814    20846584.734
       234.000         194.000
  22715552.350    -1443459.91049  -1116567.30245  22715552.660    22715557.509
       214.000         153.000
  20040773.040   -38391774.68349 -29888235.26547  20040773.411    20040778.764
       242.000         208.000
 98  1  3  7 11 59.9960000  0  8G 5G23G17G 6G26G10G24G30
  22122022.697    -9278481.11149  -7211283.51546  22122022.143    22122027.723
       219.000         164.000
  23197861.392    -5124985.92849  -3973939.77245  23197861.195    23197867.506
       218.000         154.000
  21204882.797   -23201669.31749 -18042753.01447  21204882.186    21204888.450
       232.000         188.000
  19679328.527   -35102067.17449 -27325635.58248  19679328.664    19679333.830
       244.000         213.000
  23137461.488    -4428851.35749  -3433076.27345  23137462.128    23137467.656
       212.000         143.000
  20853380.982   -31056367.09149 -24179618.59347  20853380.535    20853385.915
       234.000         194.000
  22723391.741    -1402264.18649  -1084466.76345  22723391.274    22723396.748
       212.000         152.000
  20045602.619   -38366395.24149 -29868459.07447  20045602.948    20045608.274
       243.000         208.000
 98  1  3  7 12 29.9960000  0  8G 5G23G17G 6G26G10G24G30
  22135507.268    -9207619.26149  -7156066.50746  22135506.388    22135513.043
       218.000         164.000
  23171547.515    -5263266.33549  -4081690.78745  23171547.302    23171552.430
       218.000         152.000
  21187437.062   -23293347.15349 -18114190.27647  21187436.393    21187442.593
       233.000         188.000
  19664643.394   -35179238.23049 -27385768.86848  19664643.151    19664648.472
       244.000         213.000
  23115066.457    -4546536.82749  -3524779.22045  23115065.563    23115073.092
       214.000         143.000
  20860268.057   -31020175.35549 -24151417.24847  20860267.397    20860273.278
       235.000         194.000
  22731228.851    -1361079.77549  -1052375.03245  22731228.658    22731235.516
       215.000         153.000
  20050526.362   -38340520.89749 -29848297.24547  20050526.679    20050532.044
       242.000         207.000
 98  1  3  7 12 59.9960000  0  8G 5G23G17G 6G26G10G24G30
  22149013.203    -9136645.18349  -7100762.06246  22149013.597    22149018.769
       218.000         164.000
  23145246.710    -5401478.46149  -4189388.61145  23145246.569    23145251.567
       216.000         149.000
  21170029.408   -23384824.83949 -18185471.58547  21170028.464    21170035.249
       232.000         188.000
  19650006.897   -35256153.45049 -27445702.80348  19650006.833    19650012.332
       244.000         213.000
  23092672.086    -4664220.13149  -3616480.52745  23092672.565    23092677.855
       215.000         143.000
  20867237.684   -30983549.77749 -24122877.84347  20867237.122    20867242.840
       235.000         193.000
  22739063.304    -1319909.60849  -1020294.39545  22739063.254    22739069.164
       215.000         154.000
  20055540.386   -38314172.11949 -29827765.75147  20055540.618    20055545.885
       242.000         207.000
 98  1  3  7 13 29.9960000  0  8G 5G23G17G 6G26G10G24G30
  22162542.248    -9065549.80549  -7045363.06946  22162541.492    22162547.912
       219.000         165.000
  23118959.990    -5539616.18849  -4297028.47445  23118959.357    23118965.398
       214.000         144.000
  21152656.146   -23476121.78449 -18256612.06447  21152655.731    21152662.302
       233.000         189.000
  19635413.010   -35332844.92249 -27505462.38948  19635413.026    19635418.254
       244.000         213.000
  23070276.876    -4781907.50349  -3708184.95645  23070276.870    23070283.048
       213.000         144.000
  20874287.065   -30946505.35849 -24094012.06547  20874286.292    20874291.904
       234.000         193.000
  22746896.047    -1278748.68049   -988220.96445  22746895.902    22746902.275
       216.000         155.000
  20060645.531   -38287344.36749 -29806861.02747  20060645.754    20060651.188
       242.000         207.000
 98  1  3  7 13 59.9960000  0  8G 5G23G17G 6G26G10G24G30
  22176096.255    -8994323.29449  -6989861.90546  22176095.588    22176101.695
       220.000         166.000
  23092696.082    -5677633.94549  -4404574.83445  23092695.470    23092701.370
       209.000         141.000
  21135319.454   -23567226.94949 -18327603.08947  21135318.673    21135325.239
       233.000         189.000
  19620860.706   -35409317.88749 -27565051.71248  19620860.561    19620865.934
       244.000         213.000
  23047884.309    -4899581.61549  -3799879.07245  23047884.741    23047890.173
       212.000         145.000
  20881414.652   -30909049.61149 -24064825.77347  20881413.738    20881419.736
       234.000         193.000
  22754729.380    -1237584.54649   -956145.02445  22754729.299    22754735.659
       216.000         155.000
  20065841.415   -38260039.75149 -29785584.72747  20065841.727    20065847.204
       242.000         207.000
 98  1  3  7 14 29.9960000  0  8G 5G23G17G 6G26G10G24G30
  22189678.416    -8922949.14349  -6934245.65746  22189677.716    22189683.961
       221.000         168.000
  23066460.466    -5815502.37449  -4512004.83545  23066460.602    23066466.196
       204.000         139.000
  21118022.015   -23658125.46149 -18398433.10547  21118021.368    21118027.705
       233.000         189.000
  19606355.435   -35485543.64649 -27624448.40748  19606355.373    19606360.827
       244.000         213.000
  23025499.301    -5017215.89949  -3891542.13745  23025499.868    23025505.886
       212.000         143.000
  20888621.850   -30871175.36349 -24035313.37547  20888621.079    20888627.208
       233.000         192.000
  22762566.086    -1196402.31049   -924054.97645  22762565.394    22762571.970
       215.000         156.000
  20071130.893   -38232243.46149 -29763925.30947  20071131.325    20071136.611
       242.000         207.000
 98  1  3  7 14 59.9960000  0  8G 5G23G17G 6G26G10G24G30
  22203287.127    -8851435.43149  -6878520.66346  22203286.734    22203292.946
       220.000         167.000
  23040253.798    -5953218.87449  -4619316.41945  23040252.625    23040258.422
       200.000         139.000
  21100764.510   -23748814.32049 -18469099.74347  21100763.635    21100770.460
       232.000         189.000
  19591894.515   -35561536.27149 -27683663.44148  19591894.374    19591899.838
       244.000         213.000
  23003120.702    -5134815.94049  -3983178.53445  23003119.522    23003126.772
       210.000         142.000
  20895907.127   -30832890.77049 -24005481.23347  20895906.575    20895912.764
       233.000         192.000
  22770401.084    -1155228.24949   -891971.31945  22770400.860    22770406.812
       215.000         154.000
  20076513.512   -38203957.75149 -29741884.49147  20076514.128    20076519.388
       242.000         207.000
 98  1  3  7 15 29.9960000  0  8G 5G23G17G 6G26G10G24G30
  22216925.072    -8779767.50149  -6822675.50346  22216924.593    22216930.803
       219.000         165.000
  23014083.092    -6090746.92949  -4726481.15945  23014083.352    23014089.048
       205.000         143.000
  21083551.630   -23839268.38949 -18539583.40247  21083551.381    21083557.191
       232.000         189.000
  19577483.507   -35637266.38349 -27742673.92048  19577483.500    19577488.939
       244.000         214.000
  22980755.000    -5252348.38549  -4074762.22645  22980756.473    22980761.783
       213.000         141.000
  20903271.732   -30794189.62649 -23975324.50147  20903271.097    20903276.879
       234.000         191.000
  22778235.841    -1114055.64549   -859888.78345  22778235.366    22778242.303
       215.000         154.000
  20081991.801   -38175169.33749 -29719451.97247  20081992.176    20081997.476
       242.000         206.000
 98  1  3  7 15 59.9960000  0  8G 5G23G17G 6G26G10G24G30
  22230588.340    -8707966.13849  -6766726.36646  22230586.495    22230594.216
       217.000         164.000
  22987944.390    -6228106.67349  -4833514.74845  22987943.968    22987950.783
       208.000         148.000
  21066383.366   -23929488.12949 -18609884.47047  21066382.987    21066389.328
       234.000         190.000
  19563125.840   -35712716.54149 -27801466.24948  19563125.750    19563131.264
       244.000         214.000
  22958401.739    -5369816.13349  -4166295.52445  22958402.808    22958407.232
       212.000         142.000
  20910711.196   -30755094.87349 -23944861.06047  20910710.716    20910716.565
       234.000         191.000
  22786065.202    -1072912.68749   -827829.35245  22786065.765    22786071.046
       213.000         153.000
  20087561.353   -38145900.90349 -29696645.41647  20087561.630    20087566.996
       242.000         206.000
 98  1  3  7 16 29.9960000  0  8G 5G23G17G 6G26G10G24G30
  22244270.945    -8636063.11749  -6710698.02646  22244270.162    22244276.511
       218.000         163.000
  22961826.130    -6365359.54849  -4940465.04745  22961826.228    22961832.292
       209.000         153.000
  21049253.907   -24019504.08549 -18680026.73947  21049253.025    21049259.807
       233.000         190.000
  19548819.583   -35787896.30349 -27860047.88848  19548819.534    19548824.974
       244.000         214.000
  22936056.786    -5487239.33549  -4257794.10745  22936057.208    22936062.975
       214.000         144.000
  20918221.482   -30715627.86549 -23914107.54647  20918220.637    20918226.806
       232.000         190.000
  22793882.197    -1031834.82149   -795820.65645  22793882.793    22793887.783
       214.000         152.000
  20093218.931   -38116170.22349 -29673478.66447  20093219.044    20093224.730
       243.000         206.000
 98  1  3  7 16 59.9960000  0  8G 5G23G17G 6G26G10G24G30
  22257979.043    -8564026.28149  -6654565.39146  22257978.802    22257985.552
       221.000         166.000
  22935732.571    -6502482.38549  -5047314.02745  22935732.023    22935739.033
       210.000         156.000
  21032170.973   -24109275.53249 -18749978.49847  21032169.922    21032176.365
       234.000         190.000
  19534572.386   -35862765.87549 -27918387.81948  19534572.197    19534577.789
       244.000         214.000
  22913728.437    -5604575.33449  -4349224.72745  22913729.295    22913735.396
       213.000         145.000
  20925808.764   -30675755.95249 -23883038.53147  20925808.025    20925814.158
       233.000         190.000
  22801692.739     -990790.40349   -763838.00845  22801692.417    22801699.409
       211.000         151.000
  20098970.491   -38085945.54049 -29649926.98447  20098970.892    20098976.368
       243.000         206.000
 98  1  3  7 17 29.9960000  0  8G 5G23G17G 6G26G10G24G30
  22271704.062    -8491900.88649  -6598363.76146  22271703.630    22271709.292
       222.000         168.000
  22909656.585    -6639512.42949  -5154090.66445  22909656.465    22909662.738
       214.000         159.000
  21015126.629   -24198844.12349 -18819772.18047  21015125.881    21015132.793
       233.000         190.000
  19520379.431   -35937350.26049 -27976505.52548  19520379.482    19520384.784
       245.000         214.000
  22891411.969    -5721849.84149  -4440607.43445  22891412.445    22891417.821
       213.000         146.000
  20933465.138   -30635521.54249 -23851687.04647  20933464.394    20933470.742
       233.000         190.000
  22809493.058     -949798.85149   -731896.56045  22809493.766    22809499.988
       211.000         149.000
  20104809.242   -38055262.99349 -29626018.51847  20104809.530    20104815.128
       242.000         206.000
 98  1  3  7 17 59.9960000  0  8G 5G23G17G 6G26G10G24G30
  22285450.230    -8419664.59249  -6542075.69846  22285449.864    22285455.574
       221.000         169.000
  22883603.079    -6776424.96149  -5260775.73645  22883602.761    22883609.473
       212.000         160.000
  20998124.389   -24288191.14849 -18889393.19947  20998123.781    20998129.730
       233.000         191.000
  19506247.097   -36011616.23749 -28034375.11548  19506246.876    19506252.231
       245.000         214.000
  22869112.787    -5839032.54149  -4531918.61045  22869112.713    22869118.624
       206.000         144.000
  20941196.630   -30594892.55049 -23820028.09147  20941196.012    20941202.302
       233.000         190.000
  22817288.992     -908830.57849   -699973.24345  22817289.929    22817294.881
       211.000         149.000
  20110740.646   -38024093.09049 -29601730.30647  20110740.984    20110746.423
       242.000         205.000
 98  1  3  7 18 29.9960000  0  8G 5G23G17G 6G26G10G24G30
  22299217.537    -8347317.10049  -6485700.99746  22299216.993    22299222.278
       220.000         168.000
  22857574.441    -6913206.25049  -5367358.52745  22857574.271    22857580.954
       212.000         160.000
  20981165.771   -24377309.32849 -18958835.91647  20981165.062    20981171.547
       233.000         191.000
  19492175.357   -36085563.56149 -28091996.40648  19492175.308    19492180.701
       245.000         214.000
  22846833.118    -5956112.27249  -4623149.51345  22846832.947    22846839.872
       210.000         144.000
  20949007.880   -30553843.96849 -23788042.18347  20949007.494    20949013.565
       233.000         190.000
  22825083.060     -867872.71049   -668058.03345  22825083.933    22825089.832
       214.000         148.000
  20116766.341   -37992427.90349 -29577056.15147  20116766.632    20116772.089
       242.000         205.000
 98  1  3  7 18 59.9960000  0  8G 5G23G17G 6G26G10G24G30
  22312997.563    -8274902.76749  -6429274.20746  22312997.223    22313002.842
       219.000         167.000
  22831570.777    -7049856.12949  -5473838.90845  22831569.763    22831576.676
       212.000         160.000
  20964246.166   -24466222.28349 -19028118.70947  20964245.525    20964251.533
       233.000         191.000
  19478157.107   -36159230.05249 -28149398.86148  19478156.983    19478162.448
       244.000         214.000
  22824565.895    -6073127.41149  -4714330.08245  22824566.671    22824571.186
       213.000         146.000
  20956893.650   -30512404.00249 -23755751.30347  20956892.845    20956899.560
       233.000         189.000
  22832870.378     -826950.33249   -636170.47445  22832869.843    22832876.362
       211.000         146.000
  20122879.479   -37960303.15349 -29552023.89547  20122879.850    20122885.167
       242.000         205.000
 98  1  3  7 19 29.9960000  0  8G 5G23G17G 6G26G10G24G30
  22326794.686    -8202398.49649  -6372777.34846  22326794.032    22326800.577
       218.000         165.000
  22805597.673    -7186345.49349  -5580194.19945  22805597.813    22805603.822
       214.000         159.000
  20947370.048   -24554907.00549 -19097223.68147  20947369.458    20947375.685
       234.000         191.000
  19464198.793   -36232581.47349 -28206555.81048  19464198.766    19464204.062
       244.000         214.000
  22802315.689    -6190053.69249  -4805441.45045  22802315.745    22802321.486
       208.000         148.000
  20964859.975   -30470541.04249 -23723130.81947  20964859.140    20964865.229
       233.000         189.000
  22840656.636     -786033.78949   -604287.48045  22840657.702    22840663.326
       212.000         145.000
  20129086.222   -37927686.67749 -29526608.44747  20129086.753    20129091.982
       242.000         205.000
 98  1  3  7 19 59.9960000  0  8G 5G23G17G 6G26G10G24G30
  22340613.096    -8129782.28149  -6316193.24246  22340612.906    22340617.700
       218.000         164.000
  22779656.479    -7322667.81449  -5686419.31945  22779656.142    22779662.929
       216.000         159.000
  20930542.853   -24643334.65649 -19166128.33247  20930542.347    20930548.486
       234.000         192.000
  19450303.458   -36305601.96449 -28263454.89348  19450303.445    19450309.024
       244.000         214.000
  22780084.924    -6306877.14349  -4896472.67245  22780084.186    22780090.987
       208.000         148.000
  20972908.503   -30428245.95549 -23690173.60647  20972907.788    20972914.051
       232.000         189.000
  22848442.720     -745117.55049   -572404.69545  22848442.173    22848449.323
       213.000         146.000
  20135385.520   -37894583.79049 -29500813.99147  20135386.052    20135391.442
       242.000         204.000
 98  1  3  7 20 29.9960000  0  8G 5G23G17G 6G26G10G24G30
  22354447.869    -8057080.18349  -6259542.23446  22354447.218    22354453.086
       218.000         164.000
  22753742.107    -7458849.14349  -5792534.60345  22753741.602    22753748.037
       216.000         158.000
  20913759.930   -24731529.51749 -19234851.61347  20913759.576    20913765.745
       235.000         192.000
  19436464.155   -36378328.02449 -28320124.55248  19436463.946    19436469.442
       245.000         214.000
  22757867.531    -6423629.67849  -4987448.61345  22757866.477    22757873.081
       207.000         147.000
  20981030.717   -30385563.32949 -23656914.41547  20981030.065    20981036.107
       232.000         189.000
  22856223.060     -704231.16749   -540545.17745  22856222.446    22856228.266
       212.000         146.000
  20141769.798   -37861034.17149 -29474671.41947  20141770.223    20141775.763
       242.000         204.000
 98  1  3  7 20 59.9960000  0  8G 5G23G17G 6G26G10G24G30
  22368299.199    -7984290.64349  -6202823.07146  22368298.919    22368304.395
       219.000         163.000
  22727854.586    -7594889.06449  -5898539.70445  22727853.564    22727860.426
       215.000         158.000
  20897018.362   -24819507.03449 -19303405.52547  20897017.876    20897023.979
       235.000         192.000
  19422679.458   -36450767.14649 -28376570.62048  19422679.279    19422684.814
       244.000         214.000
  22735661.415    -6540322.93149  -5078378.36745  22735661.479    22735667.762
       207.000         146.000
  20989221.960   -30342518.20849 -23623372.76447  20989221.115    20989227.119
       233.000         188.000
  22863999.271     -663366.29349   -508702.42745  22863999.483    22864006.578
       212.000         147.000
  20148237.102   -37827048.33349 -29448188.90347  20148237.286    20148242.924
       242.000         204.000
 98  1  3  7 21 29.9960000  0  8G 5G23G17G 6G26G10G24G30
  22382173.573    -7911379.89449  -6146009.46846  22382173.224    22382178.847
       219.000         164.000
  22701995.679    -7730778.49049  -6004427.52845  22701994.996    22702001.334
       217.000         158.000
  20880318.811   -24907263.76149 -19371787.40247  20880318.476    20880324.405
       234.000         192.000
  19408953.330   -36522898.43949 -28432776.81948  19408953.371    19408958.667
       245.000         214.000
  22713471.308    -6656932.82449  -5169243.16845  22713471.171    22713478.097
       206.000         148.000
  20997482.927   -30299106.59649 -23589545.53147  20997482.375    20997488.296
       233.000         188.000
  22871774.251     -622508.20549   -476864.95945  22871774.090    22871781.297
       214.000         148.000
  20154788.206   -37792621.93149 -29421363.13947  20154788.590    20154793.974
       242.000         204.000
 98  1  3  7 21 59.9960000  0  8G 5G23G17G 6G26G10G24G30
  22396070.930    -7838348.84649  -6089102.11346  22396069.983    22396075.909
       218.000         163.000
  22676166.521    -7866511.78949  -6110193.71145  22676166.137    22676172.183
       217.000         157.000
  20863659.482   -24994809.25149 -19440004.67147  20863658.979    20863665.237
       235.000         193.000
  19395281.391   -36594745.04249 -28488761.18348  19395281.306    19395286.654
       244.000         215.000
  22691297.144    -6773458.92649  -5260042.69745  22691297.172    22691302.710
       206.000         149.000
  21005811.151   -30255341.51349 -23555442.87547  21005810.550    21005816.160
       232.000         188.000
  22879545.873     -581668.32849   -445041.68345  22879546.779    22879552.924
       214.000         148.000
  20161419.790   -37757772.62949 -29394207.83147  20161420.029    20161425.187
       241.000         203.000
 98  1  3  7 22 29.9960000  0  8G 5G23G17G 6G26G10G24G30
  22409988.375    -7765211.74249  -6032112.10645  22409987.908    22409993.459
       216.000         161.000
  22650369.853    -8002074.28849  -6215826.81845  22650369.236    22650375.588
       218.000         157.000
  20847038.074   -25082155.34049 -19508066.53947  20847037.346    20847044.061
       235.000         193.000
  19381662.013   -36666315.46449 -28544530.34248  19381661.975    19381667.319
       245.000         215.000
  22669139.918    -6889894.34849  -5350771.53445  22669140.261    22669146.214
       207.000         150.000
  21014207.944   -30211215.89049 -23521059.26446  21014207.317    21014213.662
       232.000         187.000
  22887314.648     -540843.43949   -413230.09145  22887314.912    22887321.699
       214.000         148.000
  20168134.490   -37722486.70349 -29366712.29647  20168134.781    20168140.059
       242.000         203.000
 98  1  3  7 22 59.9950000  0  8G 5G23G17G 6G26G10G24G30
  22423922.569    -7691987.01649  -5975053.84745  22423922.531    22423927.939
       215.000         159.000
  22624604.458    -8137472.05649  -6321331.55845  22624604.772    22624609.663
       217.000         158.000
  20830453.030   -25169310.21349 -19575979.43047  20830452.408    20830458.676
       235.000         193.000
  19368095.065   -36737610.29749 -28600084.75748  19368094.987    19368100.400
       244.000         215.000
  22646999.031    -7006245.98349  -5441435.08645  22646999.748    22647005.345
       209.000         151.000
  21022672.116   -30166736.22949 -23486399.79046  21022671.777    21022677.115
       232.000         187.000
  22895075.806     -500058.54649   -381449.66345  22895075.639    22895082.221
       212.000         148.000
  20174930.569   -37686773.15749 -29338883.55047  20174930.806    20174936.159
       242.000         203.000
 98  1  3  7 23 29.9950000  0  8G 5G23G17G 6G26G10G24G30
  22437872.009    -7618682.03949  -5917933.06845  22437871.545    22437876.890
       215.000         158.000
  22598868.402    -8272715.77749  -6426716.25445  22598867.560    22598873.875
       218.000         159.000
  20813905.622   -25256267.42949 -19643738.30647  20813905.063    20813911.492
       235.000         193.000
  19354581.570   -36808623.88749 -28655420.02848  19354581.542    19354586.868
       244.000         215.000
  22624876.341    -7122502.08049  -5532024.22945  22624876.294    22624882.807
       207.000         153.000
  21031202.134   -30121910.99149 -23451471.03346  21031201.322    21031207.547
       232.000         187.000
  22902823.999     -459342.30049   -349722.72845  22902825.034    22902829.388
       214.000         147.000
  20181807.610   -37650633.87649 -29310723.06447  20181807.805    20181813.312
       241.000         203.000
 98  1  3  7 23 59.9950000  0  8G 5G23G17G 6G26G10G24G30
  22451838.975    -7545285.28949  -5860740.75445  22451838.845    22451843.945
       215.000         157.000
  22573170.298    -8407760.09849  -6531945.57345  22573169.140    22573176.152
       217.000         160.000
  20797405.140   -25342978.02349 -19711305.01947  20797404.636    20797410.844
       235.000         193.000
  19341129.905   -36879312.80349 -28710502.30048  19341130.154    19341135.250
       244.000         215.000
  22602779.613    -7238620.25249  -5622505.86845  22602779.311    22602785.228
       211.000         154.000
  21039803.400   -30076711.09349 -23416250.33346  21039802.668    21039808.516
       231.000         186.000
  22910563.724     -418670.38649   -318030.33045  22910562.917    22910569.822
       215.000         148.000
  20188771.886   -37614036.18049 -29282205.35947  20188772.014    20188777.380
       240.000         202.000
 98  1  3  7 24 29.9950000  0  8G 5G23G17G 6G26G10G24G30
  22465811.452    -7471859.10849  -5803525.50245  22465810.733    22465815.852
       214.000         155.000
  22547498.964    -8542663.57749  -6637065.15345  22547498.602    22547504.686
       216.000         159.000
  20780942.117   -25429492.09549 -19778718.57947  20780941.713    20780947.926
       236.000         194.000
  19327736.241   -36949697.05649 -28765347.18248  19327736.207    19327741.730
       245.000         215.000
  22580698.402    -7354657.81349  -5712924.70545  22580698.758    22580704.312
       214.000         156.000
  21048466.633   -30031185.69649 -23380775.99246  21048466.280    21048471.882
       231.000         186.000
  22918286.753     -378085.89949   -286406.06745  22918286.261    22918292.847
       215.000         149.000
  20195815.858   -37577019.69449 -29253361.34447  20195816.207    20195821.697
       241.000         202.000
 98  1  3  7 24 59.9950000  0  8G 5G23G17G 6G26G10G24G30
  22479794.711    -7398375.88049  -5746265.81945  22479794.702    22479799.276
       214.000         153.000
  22521857.865    -8677407.79949  -6742060.65445  22521857.712    22521862.373
       212.000         156.000
  20764520.837   -25515786.48549 -19845960.95547  20764520.312    20764526.371
       235.000         194.000
  19314408.319   -37019735.72149 -28819922.76648  19314408.363    19314413.732
       244.000         215.000
  22558636.893    -7470591.58249  -5803262.70545  22558637.210    22558643.050
       216.000         158.000
  21057195.235   -29985316.69549 -23345033.91046  21057194.707    21057200.956
       231.000         186.000
  22925998.162     -337562.58549   -254829.46145  22925997.822    22926003.215
       215.000         149.000
  20202944.202   -37539560.18549 -29224172.07847  20202944.493    20202949.972
       240.000         202.000
 98  1  3  7 25 29.9950000  0  8G 5G23G17G 6G26G10G24G30
  22493786.405    -7324848.48649  -5688971.72745  22493786.106    22493790.825
       215.000         152.000
  22496247.647    -8811990.18849  -6846930.05545  22496246.922    22496252.233
       213.000         154.000
  20748139.172   -25601872.66949 -19913041.08447  20748138.483    20748145.127
       235.000         194.000
  19301141.318   -37089454.22649 -28874248.87448  19301141.198    19301146.581
       245.000         215.000
  22536595.274    -7586421.59549  -5893519.84145  22536595.809    22536600.949
       216.000         159.000
  21065987.634   -29939112.33949 -23309030.51546  21065986.991    21065992.676
       230.000         186.000
  22933699.960     -297089.17249   -223291.74345  22933700.150    22933706.061
       213.000         149.000
  20210156.574   -37501658.94349 -29194638.60947  20210156.480    20210162.077
       240.000         202.000
 98  1  3  7 25 59.9950000  0  8G 5G23G17G 6G26G10G24G30
  22507786.225    -7251278.36149  -5631644.31445  22507785.604    22507791.095
       214.000         150.000
  22470664.680    -8946428.73849  -6951687.38745  22470664.792    22470670.245
       212.000         152.000
  20731793.574   -25687769.21549 -19979973.44947  20731793.168    20731799.252
       236.000         194.000
  19287931.843   -37158870.55949 -28928339.52448  19287931.893    19287937.340
       245.000         215.000
  22514569.048    -7702169.72049  -5983713.16845  22514569.128    22514575.083
       217.000         159.000
  21074846.294   -29892559.51049 -23272755.59146  21074845.348    21074851.454
       231.000         186.000
  22941396.663     -256642.16149   -191774.60945  22941395.912    22941403.632
       211.000         148.000
  20217452.970   -37463316.01749 -29164761.01747  20217453.188    20217458.449
       241.000         202.000
 98  1  3  7 26 29.9950000  0  8G 5G23G17G 6G26G10G24G30
  22521794.120    -7177665.69649  -5574283.77545  22521792.867    22521798.210
       215.000         149.000
  22445109.480    -9080721.95949  -7056331.49345  22445108.894    22445114.648
       213.000         151.000
  20715483.303   -25773480.31549 -20046761.29347  20715482.210    20715488.769
       236.000         194.000
  19274777.935   -37227994.92449 -28982202.66748  19274777.779    19274783.095
       245.000         215.000
  22492559.299    -7817832.05049  -6073839.66245  22492560.404    22492565.586
       219.000         160.000
  21083770.831   -29845661.01549 -23236211.30146  21083770.140    21083776.009
       230.000         185.000
  22949090.919     -216208.16249   -160267.61845  22949090.535    22949096.516
       212.000         148.000
  20224832.755   -37424534.93049 -29134541.96647  20224833.239    20224838.387
       240.000         201.000
 98  1  3  7 26 59.9950000  0  8G 5G23G17G 6G26G10G24G30
  22535811.227    -7104005.54449  -5516886.23345  22535810.833    22535817.206
       214.000         151.000
  22419587.538    -9214841.21449  -7160840.03345  22419587.173    22419593.367
       214.000         154.000
  20699210.025   -25858996.91149 -20113397.58847  20699209.475    20699215.496
       236.000         195.000
  19261675.471   -37296848.75549 -29035855.00248  19261675.500    19261680.608
       245.000         215.000
  22470570.027    -7933387.07249  -6163882.51545  22470570.508    22470575.990
       219.000         161.000
  21092760.802   -29798418.36949 -23199398.85446  21092759.806    21092766.094
       230.000         185.000
  22956782.125     -175789.85049   -128772.84745  22956781.111    22956788.237
       211.000         148.000
  20232293.398   -37385328.95949 -29103991.87347  20232293.425    20232299.016
       240.000         201.000
 98  1  3  7 27 29.9950000  0  8G 5G23G17G 6G26G10G24G30
  22549838.885    -7030289.53549  -5459445.19345  22549839.141    22549843.965
       215.000         153.000
  22394099.006    -9348785.30849  -7265212.10945  22394098.848    22394105.170
       216.000         156.000
  20682975.324   -25944310.86049 -20179875.97747  20682974.964    20682980.789
       236.000         195.000
  19248623.856   -37365435.37749 -29089299.12848  19248623.855    19248629.131
       245.000         215.000
  22448603.419    -8048822.17349  -6253831.93645  22448603.725    22448609.645
       217.000         159.000
  21101816.142   -29750832.06749 -23162318.61246  21101815.457    21101821.781
       230.000         185.000
  22964470.973     -135384.62849    -97288.29445  22964470.788    22964476.966
       209.000         148.000
  20239832.554   -37345710.33449 -29073120.18047  20239832.635    20239838.233
       240.000         201.000
 98  1  3  7 27 59.9950000  0  8G 5G23G17G 6G26G10G24G30
  22563874.892    -6956529.92949  -5401970.19145  22563874.345    22563880.620
       216.000         155.000
  22368639.798    -9482574.51549  -7369463.48345  22368639.423    22368645.826
       216.000         158.000
  20666778.084   -26029427.96449 -20246200.98047  20666777.628    20666784.145
       236.000         195.000
  19235628.046   -37433729.15949 -29142515.06348  19235628.182    19235633.383
       245.000         215.000
  22426659.545    -8164138.81349  -6343689.05045  22426659.786    22426665.128
       218.000         158.000
  21110933.394   -29702920.66549 -23124985.05346  21110932.446    21110938.486
       230.000         185.000
  22972153.626      -95011.98549    -65829.11345  22972154.289    22972159.506
       210.000         148.000
  20247445.195   -37305705.38949 -29041947.49347  20247445.295    20247450.899
       240.000         200.000
 98  1  3  7 28 29.9950000  0  8G 5G23G17G 6G26G10G24G30
  22577924.877    -6882697.01149  -5344438.06745  22577924.898    22577930.200
       216.000         158.000
  22343219.577    -9616158.89549  -7473555.24845  22343219.571    22343225.639
       217.000         160.000
  20650626.121   -26114307.12349 -20312340.56447  20650625.410    20650631.579
       236.000         195.000
  19222696.694   -37501683.83249 -29195466.75248  19222696.574    19222701.973
       245.000         215.000
  22404747.962    -8279284.61749  -6433413.03545  22404747.806    22404753.514
       217.000         158.000
  21120116.960   -29654660.58549 -23087379.79446  21120116.348    21120122.423
       230.000         185.000
  22979834.084      -54652.08549    -34379.86745  22979833.652    22979840.008
       210.000         148.000
  20255137.791   -37265280.54049 -29010447.61147  20255137.970    20255143.538
       239.000         200.000
 98  1  3  7 28 59.9950000  0  8G 5G23G17G 6G26G10G24G30
  22591985.864    -6808806.79849  -5286861.27945  22591985.344    22591991.235
       217.000         159.000
  22317829.117    -9749587.07249  -7577525.32145  22317829.038    22317835.842
       217.000         161.000
  20634512.949   -26198982.30549 -20378321.23447  20634512.194    20634518.445
       236.000         196.000
  19209827.532   -37569311.83549 -29248163.90148  19209827.533    19209832.973
       245.000         215.000
  22382863.368    -8394288.63849  -6523026.51345  22382863.196    22382868.007
       216.000         156.000
  21129361.945   -29606077.94049 -23049523.19346  21129361.228    21129366.831
       229.000         184.000
  22987505.526      -14338.46949     -2966.68845  22987506.301    22987512.301
       210.000         147.000
  20262905.429   -37224461.39749 -28978640.50647  20262905.712    20262911.172
       239.000         200.000
 98  1  3  7 29 29.9950000  0  8G 5G23G17G 6G26G10G24G30
  22606054.925    -6734873.45549  -5229250.89345  22606054.154    22606060.519
       218.000         160.000
  22292461.586    -9882894.64149  -7681401.38345  22292461.320    22292468.099
       215.000         162.000
  20618434.580   -26283474.69449 -20444159.46647  20618433.785    20618440.499
       236.000         196.000
  19197021.405   -37636608.45749 -29300602.83248  19197021.419    19197026.826
       245.000         215.000
  22361002.190    -8509169.60649  -6612544.11645  22361002.180    22361008.414
       216.000         155.000
  21138666.165   -29557184.13249 -23011424.12046  21138665.796    21138671.193
       229.000         184.000
  22995165.898       25916.82849     28401.03345  22995165.638    22995172.346
       208.000         146.000
  20270745.747   -37183260.19249 -28946535.69347  20270746.214    20270751.437
       239.000         200.000
 98  1  3  7 29 59.9950000  0  8G 5G23G17G 6G26G10G24G30
  22620140.084    -6660855.22149  -5171574.34645  22620139.513    22620146.325
       218.000         160.000
  22267129.811   -10016013.95149  -7785130.73446  22267129.547    22267136.109
       216.000         164.000
  20602399.831   -26367737.48949 -20509818.77947  20602399.446    20602405.401
       236.000         196.000
  19184289.417   -37703515.52049 -29352738.21348  19184289.203    19184294.604
       245.000         215.000
  22339172.839    -8623883.44249  -6701931.49845  22339172.912    22339178.317
       215.000         154.000
  21148040.983   -29507918.97249 -22973035.68446  21148040.366    21148046.194
       229.000         184.000
  23002825.334       66167.02949     59764.81245  23002824.706    23002831.519
       208.000         146.000
  20278669.785   -37141619.18149 -28914088.14347  20278669.969    20278675.487
       239.000         200.000
 98  1  3  7 30 29.9950000  0  8G 5G23G17G 6G26G10G24G30
  22634236.581    -6586777.41449  -5113851.37745  22634236.234    22634242.120
       216.000         160.000
  22241831.032   -10148960.01749  -7888725.12146  22241831.201    22241837.862
       218.000         166.000
  20586403.512   -26451798.83349 -20575321.11047  20586402.640    20586409.107
       236.000         196.000
  19171622.551   -37770080.36549 -29404606.92448  19171622.462    19171627.787
       245.000         215.000
  22317368.947    -8738463.09049  -6791214.31145  22317368.827    22317374.450
       214.000         153.000
  21157482.201   -29458304.83249 -22934375.31846  21157481.251    21157487.819
       229.000         183.000
  23010479.257      106388.24049     91105.99545  23010478.737    23010484.981
       206.000         145.000
  20286672.194   -37099566.14349 -28881319.57147  20286672.629    20286678.054
       239.000         199.000
 98  1  3  7 30 59.9950000  0  8G 5G23G17G 6G26G10G24G30
  22648334.632    -6512691.92249  -5056122.41245  22648334.934    22648340.090
       215.000         158.000
  22216560.409   -10281758.61449  -7992204.59946  22216560.016    22216566.746
       220.000         168.000
  20570439.291   -26535691.28949 -20640691.84647  20570438.752    20570445.131
       236.000         196.000
  19159010.948   -37836354.85349 -29456249.38248  19159010.913    19159016.317
       245.000         215.000
  22295582.833    -8852949.56449  -6880424.54845  22295583.629    22295588.709
       213.000         152.000
  21166982.432   -29408380.86749 -22895473.53446  21166981.644    21166987.633
       229.000         184.000
  23018120.689      146544.86849    122396.84345  23018120.177    23018126.679
       205.000         144.000
  20294742.675   -37057155.47349 -28848272.27847  20294743.162    20294748.468
       240.000         199.000
 98  1  3  7 31 29.9950000  0  8G 5G23G17G 6G26G10G24G30
  22662433.582    -6438601.62849  -4998389.71845  22662433.574    22662438.757
       214.000         157.000
  22191326.638   -10414363.12149  -8095532.82746  22191325.855    22191333.285
       221.000         169.000
  20554512.270   -26619388.30249 -20705910.28447  20554511.198    20554518.020
       236.000         196.000
  19146454.827   -37902337.60349 -29507664.50448  19146454.765    19146459.972
       245.000         216.000
  22273819.660    -8967315.33349  -6969540.72745  22273820.345    22273825.138
       212.000         151.000
  21176542.685   -29358141.74549 -22856326.16246  21176541.695    21176548.516
       229.000         183.000
  23025752.066      186648.59349    153646.46945  23025751.964    23025758.138
       207.000         143.000
  20302883.640   -37014374.58949 -28814936.47247  20302884.326    20302889.176
       239.000         199.000
 98  1  3  7 31 59.9950000  0  8G 5G23G17G 6G26G10G24G30
  22676542.297    -6364460.19349  -4940617.18145  22676542.226    22676547.838
       213.000         155.000
  22166143.179   -10546703.21849  -8198655.02946  22166142.749    22166149.119
       221.000         170.000
  20538634.709   -26702825.33149 -20770926.12147  20538633.950    20538640.621
       237.000         197.000
  19133964.344   -37967975.65549 -29558811.04148  19133964.242    19133969.617
       245.000         216.000
  22252092.423    -9081493.08249  -7058510.39345  22252092.257    22252097.899
       213.000         151.000
  21186172.538   -29307536.45149 -22816893.47746  21186171.838    21186177.966
       230.000         183.000
  23033385.571      226763.01349    184904.43545  23033384.740    23033391.266
       206.000         142.000
  20311106.753   -36971161.73149 -28781264.11347  20311106.913    20311112.403
       238.000         198.000
 98  1  3  7 32 29.9950000  0  8G 5G23G17G 6G26G10G24G30
  22690652.654    -6290309.70249  -4882837.62745  22690652.228    22690656.944
       210.000         153.000
  22141002.177   -10678820.44249  -8301603.53746  22141001.913    22141008.325
       222.000         170.000
  20522798.958   -26786042.87849 -20835770.93747  20522798.612    20522804.609
       237.000         197.000
  19121530.693   -38033314.97649 -29609724.79848  19121530.620    19121536.242
       245.000         216.000
  22230395.884    -9195509.39249  -7147354.28245  22230396.787    22230401.751
       211.000         152.000
  21195860.900   -29256623.63449 -22777221.15346  21195860.171    21195866.099
       229.000         183.000
  23041012.196      266842.11849    216134.88145  23041012.779    23041019.476
       205.000         143.000
  20319404.645   -36927555.87449 -28747285.54047  20319405.049    20319410.286
       238.000         198.000
 98  1  3  7 32 59.9950000  0  8G 5G23G17G 6G26G10G24G30
  22704766.792    -6216139.41549  -4825042.64045  22704766.127    22704772.906
       207.000         152.000
  22115904.789   -10810708.42149  -8404373.42246  22115904.728    22115910.911
       220.000         170.000
  20507006.245   -26869033.87349 -20900439.22247  20507005.665    20507011.825
       237.000         197.000
  19109157.972   -38098334.10549 -29660389.05548  19109158.155    19109163.349
       245.000         216.000
  22208733.922    -9309343.48649  -7236056.16745  22208733.993    22208739.566
       212.000         151.000
  21205609.253   -29205395.74449 -22737303.32246  21205608.133    21205614.786
       228.000         182.000
  23048634.176      306896.30449    247345.91345  23048634.672    23048640.964
       208.000         143.000
  20327780.670   -36883539.63549 -28712987.19647  20327780.860    20327786.613
       239.000         198.000
 98  1  3  7 33 29.9950000  0  8G 5G23G17G 6G26G10G24G30
  22718882.226    -6141962.85649  -4767242.74945  22718881.975    22718887.055
       212.000         153.000
  22090845.871   -10942393.90449  -8506985.52946  22090845.316    22090852.832
       220.000         169.000
  20491250.114   -26951833.04049 -20964958.03647  20491249.353    20491255.785
       237.000         198.000
  19096846.263   -38163032.64149 -29710803.50248  19096846.188    19096851.430
       245.000         216.000
  22187103.927    -9423010.53649  -7324627.92245  22187103.848    22187110.088
       215.000         152.000
  21215413.737   -29153872.59849 -22697155.41846  21215413.025    21215419.171
       228.000         182.000
  23056248.454      346909.13349    278524.72545  23056249.880    23056255.569
       209.000         144.000
  20336235.122   -36839111.55249 -28678367.91747  20336235.637    20336240.804
       239.000         197.000
 98  1  3  7 33 59.9950000  0  8G 5G23G17G 6G26G10G24G30
  22733001.203    -6067767.55049  -4709428.29045  22733000.221    22733007.291
       209.000         154.000
  22065825.733   -11073875.38649  -8609438.64346  22065825.267    22065832.616
       217.000         168.000
  20475530.024   -27034442.34749 -21029328.90347  20475529.436    20475535.904
       237.000         198.000
  19084600.514   -38227384.48049 -29760947.79648  19084600.446    19084605.716
       245.000         216.000
  22165505.579    -9536510.75249  -7413069.66145  22165505.540    22165510.920
       212.000         153.000
  21225276.691   -29102042.40749 -22656768.25946  21225275.717    21225281.697
       228.000         182.000
  23063856.828      386890.79549    309679.24445  23063856.784    23063863.428
       209.000         144.000
  20344767.825   -36794271.92949 -28643427.96647  20344767.940    20344773.419
       238.000         197.000
 98  1  3  7 34 29.9950000  0  8G 5G23G17G 6G26G10G24G30
  22747132.558    -5993506.80849  -4651562.82045  22747132.258    22747138.373
       210.000         155.000
  22040851.610   -11205114.78749  -8711703.13546  22040851.056    22040857.674
       219.000         169.000
  20459854.220   -27116819.37849 -21093518.78947  20459853.438    20459859.848
       237.000         198.000
  19072430.058   -38291340.59149 -29810783.73248  19072429.772    19072435.119
       245.000         216.000
  22143947.100    -9649800.63649  -7501347.47945  22143947.044    22143952.961
       216.000         154.000
  21235206.024   -29049863.54749 -22616109.40946  21235204.874    21235211.048
       229.000         182.000
  23071465.717      426875.18049    340835.88945  23071465.547    23071472.361
       210.000         143.000
  20353383.307   -36748997.15549 -28608148.92047  20353383.646    20353389.056
       237.000         196.000
 98  1  3  7 34 59.9950000  0  8G 5G23G17G 6G26G10G24G30
  22761272.196    -5919202.62049  -4593663.48845  22761272.449    22761277.028
       210.000         155.000
  22015920.157   -11336130.15849  -8813793.05846  22015920.016    22015926.489
       220.000         169.000
  20444220.504   -27198975.07549 -21157536.18247  20444219.801    20444225.980
       237.000         198.000
  19060332.919   -38354911.49849 -29860319.50148  19060332.876    19060338.147
       245.000         216.000
  22122424.260    -9762904.71149  -7589480.55045  22122424.404    22122429.781
       216.000         156.000
  21245198.212   -28997354.43649 -22575193.22846  21245197.556    21245203.127
       229.000         182.000
  23079073.046      466851.81249    371986.49645  23079072.870    23079079.578
       211.000         143.000
  20362074.426   -36703324.92449 -28572560.16747  20362074.569    20362080.090
       237.000         196.000
 98  1  3  7 35 29.9950000  0  8G 5G23G17G 6G26G10G24G30
  22775415.738    -5844877.63049  -4535747.93345  22775415.878    22775421.039
       209.000         154.000
  21991029.681   -11466930.76449  -8915715.64346  21991029.627    21991035.782
       220.000         169.000
  20428629.361   -27280907.01449 -21221379.23947  20428628.765    20428635.142
       237.000         198.000
  19048306.876   -38418108.78349 -29909564.14448  19048306.792    19048312.065
       245.000         216.000
  22100934.270    -9875834.65049  -7677477.91845  22100933.752    22100939.650
       216.000         157.000
  21255247.317   -28944545.67449 -22534043.54246  21255246.419    21255252.406
       228.000         182.000
  23086677.669      506813.69549    403125.63845  23086677.616    23086684.056
       213.000         143.000
  20370835.916   -36657282.82449 -28536683.19447  20370836.154    20370841.362
       237.000         196.000
 98  1  3  7 35 59.9950000  0  8G 5G23G17G 6G26G10G24G30
  22789562.710    -5770534.59549  -4477818.29945  22789562.184    22789567.723
       205.000         152.000
  21966177.633   -11597529.78549  -9017481.13746  21966177.192    21966183.210
       220.000         169.000
  20413083.956   -27362598.40749 -21285034.86247  20413083.446    20413089.395
       238.000         198.000
  19036351.575   -38480934.33949 -29958519.12148  19036351.608    19036356.689
       246.000         216.000
  22079477.840    -9988589.00949  -7765338.46045  22079478.265    22079483.020
       218.000         158.000
  21265352.676   -28891441.58449 -22492663.74046  21265351.404    21265358.151
       228.000         181.000
  23094278.547      546757.05949    434250.33345  23094279.153    23094285.801
       211.000         143.000
  20379660.814   -36610907.58849 -28500546.67747  20379661.114    20379666.520
       237.000         196.000
 98  1  3  7 36 29.9950000  0  8G 5G23G17G 6G26G10G24G30
  22803704.636    -5696217.95849  -4419909.27245  22803703.874    22803710.368
       209.000         150.000
  21941357.201   -11727962.56949  -9119117.06846  21941356.445    21941363.284
       219.000         168.000
  20397578.675   -27444079.16449 -21348526.34347  20397577.911    20397584.537
       237.000         198.000
  19024457.140   -38543440.08249 -30007224.89748  19024457.042    19024462.412
       245.000         216.000
  22058049.308   -10101197.24849  -7853085.14145  22058049.670    22058055.913
       216.000         159.000
  21275506.149   -28838084.73649 -22451086.98546  21275505.554    21275511.908
       228.000         180.000
  23101867.715      586638.51349    465326.77045  23101867.080    23101874.684
       212.000         143.000
  20388543.535   -36564228.74849 -28464173.55847  20388543.785    20388549.013
       236.000         195.000
 98  1  3  7 36 59.9950000  0  8G 5G23G17G 6G26G10G24G30
  22817845.189    -5621908.97549  -4362006.22545  22817844.275    22817849.895
       210.000         148.000
  21916573.134   -11858203.98849  -9220603.87646  21916572.932    21916579.374
       219.000         166.000
  20382117.897   -27525325.98249 -21411835.54447  20382117.284    20382123.673
       238.000         198.000
  19012628.339   -38605600.83449 -30055661.84748  19012628.401    19012633.715
       245.000         216.000
  22036652.837   -10213635.99549  -7940699.73645  22036653.003    22036658.953
       217.000         160.000
  21285712.388   -28784450.71749 -22409294.25446  21285711.569    21285717.756
       228.000         180.000
  23109449.951      626483.68549    496374.93245  23109451.140    23109456.646
       210.000         144.000
  20397492.075   -36517203.81149 -28427530.77747  20397492.350    20397497.948
       236.000         195.000
 98  1  3  7 37 29.9950000  0  8G 5G23G17G 6G26G10G24G30
  22831985.973    -5547599.23549  -4304102.55845  22831985.845    22831991.291
       209.000         145.000
  21891827.490   -11988243.32449  -9321933.22946  21891827.403    21891833.657
       220.000         165.000
  20366701.518   -27606339.68349 -21474963.10747  20366701.056    20366707.484
       238.000         198.000
  19000869.744   -38667392.71749 -30103811.36948  19000869.762    19000875.009
       245.000         216.000
  22015292.997   -10325882.21649  -8028164.31645  22015292.880    22015298.722
       218.000         161.000
  21295977.050   -28730509.89349 -22367262.44646  21295976.432    21295982.012
       227.000         179.000
  23117024.141      666286.40249    527390.03245  23117024.557    23117029.977
       211.000         144.000
  20406511.440   -36469806.82949 -28390598.06347  20406511.786    20406517.015
       236.000         194.000
 98  1  3  7 37 59.9950000  0  8G 5G23G17G 6G26G10G24G30
  22846122.606    -5473310.95449  -4246215.61645  22846122.528    22846126.942
       208.000         142.000
  21867116.985   -12118097.88349  -9423118.60246  21867116.650    21867123.088
       220.000         165.000
  20351319.905   -27687170.57249 -21537948.20647  20351318.855    20351325.576
       238.000         198.000
  18989175.713   -38728845.35449 -30151696.54248  18989175.787    18989180.959
       245.000         216.000
  21993966.377   -10437954.92549  -8115493.68845  21993967.023    21993972.487
       218.000         162.000
  21306296.045   -28676282.99749 -22325007.73046  21306294.839    21306301.486
       226.000         179.000
  23124584.291      706014.96249    558347.33145  23124584.273    23124591.443
       211.000         145.000
  20415597.840   -36422057.44249 -28353390.78347  20415598.136    20415603.333
       236.000         194.000
 98  1  3  7 38 29.9950000  0  8G 5G23G17G 6G26G10G24G30
  22860261.178    -5399012.39949  -4188320.65745  22860260.831    22860266.598
       212.000         141.000
  21842450.906   -12247718.73649  -9524121.82546  21842450.476    21842457.302
       221.000         166.000
  20335975.539   -27767805.71649 -21600780.78047  20335974.997    20335980.891
       238.000         198.000
  18977553.940   -38789918.42049 -30199285.95448  18977553.883    18977559.067
       246.000         217.000
  21972678.748   -10549822.06949  -8202662.84345  21972678.611    21972684.488
       218.000         161.000
  21316673.505   -28621749.11349 -22282513.79546  21316672.755    21316678.667
       227.000         178.000
  23132137.515      745707.27949    589276.38845  23132137.544    23132144.527
       211.000         145.000
  20424761.824   -36373900.56649 -28315865.96247  20424762.401    20424767.270
       235.000         194.000
 98  1  3  7 38 59.9950000  0  8G 5G23G17G 6G26G10G24G30
  22874396.700    -5324729.79249  -4130438.09345  22874395.625    22874402.097
       213.000         141.000
  21817823.249   -12377138.08949  -9624968.04046  21817822.766    21817828.754
       221.000         168.000
  20320660.224   -27848288.06849 -21663494.27947  20320659.590    20320665.601
       238.000         198.000
  18966001.444   -38850627.06049 -30246591.39148  18966001.261    18966006.699
       246.000         217.000
  21951425.154   -10661510.45049  -8289692.70645  21951426.024    21951430.610
       219.000         161.000
  21327102.664   -28566943.61149 -22239808.22646  21327102.024    21327107.472
       226.000         177.000
  23139680.678      785346.97649    620164.43845  23139680.652    23139686.336
       211.000         144.000
  20433994.899   -36325380.56949 -28278058.20547  20433994.690    20434000.562
       236.000         194.000
 98  1  3  7 39 29.9950000  0  7G 5G23G17G 6G26G10G30
  22888534.090    -5250437.39849  -4072547.93845  22888533.808    22888538.956
       215.000         143.000
  21793241.440   -12506316.09049  -9725626.17446  21793240.354    21793247.344
       222.000         169.000
  20305377.578   -27928598.69049 -21726073.95647  20305376.920    20305383.170
       238.000         199.000
  18954521.168   -38910956.27049 -30293601.17148  18954521.158    18954526.439
       245.000         217.000
  21930211.951   -10772986.77649  -8376557.32445  21930212.320    21930217.762
       217.000         161.000
  21337584.246   -28511862.52149 -22196887.88946  21337583.578    21337589.661
       226.000         176.000
  20443298.717   -36276488.64849 -28239960.63547  20443298.719    20443305.100
       235.000         194.000
 98  1  3  7 39 59.9950000  0  7G 5G23G17G 6G26G10G30
  22902674.598    -5176128.18249  -4014644.68245  22902673.849    22902680.451
       215.000         145.000
  21768706.110   -12635249.96249  -9826094.06346  21768705.609    21768711.915
       222.000         170.000
  20290132.159   -28008714.06649 -21788501.50247  20290131.634    20290137.832
       238.000         199.000
  18943110.493   -38970919.72949 -30340325.95848  18943110.547    18943116.000
       245.000         217.000
  21909039.827   -10884247.17749  -8463253.68745  21909040.467    21909045.279
       218.000         161.000
  21348114.929   -28456523.43549 -22153766.53546  21348113.519    21348120.932
       226.000         176.000
  20452672.790   -36227227.54749 -28201575.38147  20452673.019    20452678.568
       235.000         194.000
 98  1  3  7 40 29.9950000  0  7G 5G23G17G 6G26G10G30
  22916815.982    -5101814.40649  -3956737.86345  22916815.299    22916821.678
       215.000         148.000
  21744216.348   -12763944.56349  -9926375.52046  21744215.413    21744222.773
       223.000         171.000
  20274926.435   -28088620.41449 -21850766.17547  20274925.561    20274932.163
       238.000         199.000
  18931768.773   -39030520.90949 -30386768.43248  18931768.859    18931774.144
       245.000         217.000
  21887908.045   -10995295.57349  -8549784.86145  21887907.737    21887914.033
       216.000         160.000
  21358696.310   -28400917.67249 -22110437.37146  21358695.982    21358701.597
       225.000         176.000
  20462114.310   -36177612.10849 -28162914.01647  20462114.773    20462120.388
       235.000         193.000
 98  1  3  7 40 59.9950000  0  8G 5G22G23G17G 6G26G10G30
  22930956.316    -5027506.18249  -3898835.34445  22930955.999    22930962.218
       216.000         152.000
  23193383.200    -6323795.10459  -4898827.13745  23193382.595    23193387.981
       209.000         147.000
  21719771.085   -12892405.15349 -10026474.63146  21719770.396    21719776.337
       222.000         170.000
  20259760.019   -28168320.41649 -21912870.06547  20259759.690    20259765.788
       238.000         199.000
  18920491.503   -39089783.32849 -30432946.94748  18920491.326    18920496.730
       245.000         217.000
  21866816.530   -11106131.54449  -8636150.53145  21866816.348    21866821.939
       217.000         160.000
  21369327.135   -28345052.54249 -22066906.10946  21369326.203    21369331.779
       224.000         175.000
  20471618.651   -36127666.68449 -28123995.53247  20471618.523    20471624.398
       235.000         193.000
 98  1  3  7 41 29.9950000  0  8G 5G22G23G17G 6G26G10G30
  22945097.233    -4953195.49149  -3840930.94845  22945097.270    22945103.432
       215.000         153.000
  23173173.568    -6429997.36549  -4981582.13245  23173172.866    23173178.817
       205.000         146.000
  21695374.209   -13020611.09949 -10126375.32046  21695372.716    21695380.204
       222.000         169.000
  20244639.122   -28247781.13149 -21974787.48247  20244638.368    20244644.903
       238.000         199.000
  18909281.019   -39148694.95449 -30478852.11148  18909280.797    18909286.211
       245.000         217.000
  21845769.161   -11216736.27049  -8722336.02245  21845769.389    21845774.504
       220.000         162.000
  21380009.805   -28288914.58149 -22023162.24846  21380009.248    21380015.207
       224.000         174.000
  20481190.653   -36077365.56249 -28084799.84747  20481191.076    20481196.588
       235.000         192.000
 98  1  3  7 41 59.9950000  0  8G 5G22G23G17G 6G26G10G30
  22959233.182    -4878910.77249  -3783046.78145  22959232.844    22959238.858
       212.000         152.000
  23153033.364    -6535832.83949  -5064051.34045  23153032.389    23153039.671
       203.000         146.000
  21671021.644   -13148584.38149 -10226094.71946  21671020.934    21671028.120
       223.000         170.000
  20229559.502   -28327024.93549 -22036535.88647  20229558.928    20229565.068
       238.000         199.000
  18898135.587   -39207264.60949 -30524490.80848  18898135.503    18898140.927
       246.000         217.000
  21824763.016   -11327124.55149  -8808352.86845  21824762.331    21824768.462
       218.000         161.000
  21390743.533   -28232508.22949 -21979209.24546  21390743.167    21390748.872
       223.000         174.000
  20490825.756   -36026732.97649 -28045345.88247  20490825.687    20490831.459
       234.000         192.000
 98  1  3  7 42 29.9950000  0  8G 5G22G23G17G 6G26G10G30
  22973362.025    -4804663.57649  -3725191.84845  22973362.362    22973368.316
       209.000         150.000
  23132961.859    -6641308.29049  -5146240.00045  23132961.944    23132968.218
       205.000         145.000
  21646714.012   -13276321.79549 -10325630.31346  21646713.462    21646719.257
       224.000         171.000
  20214515.264   -28406083.03349 -22098139.61147  20214514.713    20214521.042
       238.000         199.000
  18887057.342   -39265481.08749 -30569854.30548  18887057.003    18887062.377
       247.000         217.000
  21803796.481   -11437303.25349  -8894206.38245  21803796.796    21803802.244
       218.000         160.000
  21401524.722   -28175852.59649 -21935062.01046  21401524.513    21401530.060
       224.000         174.000
  20500521.726   -35975780.44549 -28005642.58847  20500521.724    20500527.743
       234.000         192.000
 98  1  3  7 42 59.9950000  0  8G 5G22G23G17G 6G26G10G30
  22987479.016    -4730478.91349  -3667385.66945  22987478.390    22987484.849
       208.000         147.000
  23112954.061    -6746449.68849  -5228168.36845  23112953.495    23112959.839
       204.000         145.000
  21622444.641   -13403858.21149 -10425009.27146  21622443.854    21622450.403
       224.000         172.000
  20199500.631   -28484985.38149 -22159621.97147  20199499.967    20199506.363
       239.000         199.000
  18876042.995   -39323361.89349 -30614956.23548  18876042.867    18876048.201
       247.000         217.000
  21782865.186   -11547298.13249  -8979916.67445  21782865.436    21782871.449
       218.000         160.000
  21412344.565   -28118994.37649 -21890756.90746  21412344.203    21412350.355
       224.000         174.000
  20510275.172   -35924525.37849 -27965703.58247  20510275.652    20510281.176
       234.000         191.000
 98  1  3  7 43 29.9950000  0  8G 5G22G23G17G 6G26G10G30
  23001593.278    -4656308.77449  -3609590.74745  23001592.619    23001599.011
       206.000         145.000
  23093022.640    -6851189.87649  -5309784.10745  23093022.273    23093028.114
       206.000         145.000
  21598225.934   -13531128.24249 -10524180.65946  21598225.600    21598231.921
       225.000         174.000
  20184529.675   -28563658.41849 -22220925.63147  20184528.752    20184535.324
       238.000         199.000
  18865107.254   -39380829.57849 -30659736.26048  18865107.038    18865112.506
       247.000         217.000
  21761980.836   -11657046.51049  -9065434.91045  21761981.114    21761986.747
       217.000         159.000
  21423214.778   -28061871.07249 -21846245.25446  21423213.808    21423219.581
       224.000         174.000
  20520098.051   -35872905.85649 -27925480.56147  20520098.262    20520104.211
       234.000         191.000
 98  1  3  7 43 59.9950000  0  8G 5G22G23G17G 6G26G10G30
  23015697.018    -4582193.05049  -3551838.25245  23015696.445    23015701.803
       205.000         142.000
  23073161.789    -6955560.35449  -5391111.72345  23073160.633    23073167.576
       201.000         145.000
  21574049.686   -13658175.32449 -10623178.33146  21574049.316    21574055.748
       224.000         175.000
  20169593.798   -28642146.84949 -22282085.42747  20169593.001    20169599.587
       239.000         199.000
  18854243.990   -39437916.39549 -30704219.50048  18854244.028    18854249.335
       247.000         217.000
  21741136.227   -11766585.17749  -9150789.70645  21741135.825    21741142.022
       217.000         159.000
  21434129.073   -28004515.93749 -21801552.93146  21434129.311    21434134.925
       225.000         174.000
  20529980.968   -35820970.91649 -27885011.77147  20529981.669    20529986.655
       234.000         191.000
 98  1  3  7 44 29.9950000  0  8G 5G22G23G17G 6G26G10G30
  23029795.086    -4508107.55149  -3494109.34945  23029794.755    23029800.320
       201.000         139.000
  23053375.683    -7059537.07149  -5472132.54345  23053374.841    23053381.964
       201.000         144.000
  21549918.189   -13784987.23149 -10721992.73646  21549917.612    21549923.724
       223.000         175.000
  20154699.369   -28720417.48149 -22343075.50647  20154698.952    20154704.918
       239.000         200.000
  18843456.114   -39494607.03349 -30748394.03048  18843456.117    18843461.331
       247.000         217.000
  21720334.297   -11875900.05149  -9235970.14045  21720335.055    21720339.247
       216.000         157.000
  21445091.031   -27946910.78649 -21756665.80746  21445090.593    21445096.807
       224.000         175.000
  20539929.172   -35768692.77149 -27844275.53547  20539929.473    20539934.785
       234.000         190.000
 98  1  3  7 44 59.9950000  0  8G 5G22G23G17G 6G26G10G30
  23043880.760    -4434086.75549  -3436430.85145  23043879.664    23043886.566
       204.000         138.000
  23033658.664    -7163150.44849  -5552870.23645  23033657.821    23033664.850
       200.000         143.000
  21525827.422   -13911584.65849 -10820640.01346  21525827.070    21525833.458
       223.000         175.000
  20139844.245   -28798481.84749 -22403904.89747  20139843.636    20139850.147
       239.000         200.000
  18832737.200   -39550935.28249 -30792286.18448  18832737.307    18832742.555
       247.000         217.000
  21699572.684   -11985002.95449  -9320985.41445  21699572.988    21699577.462
       217.000         158.000
  21456099.391   -27889061.83349 -21711588.70246  21456098.762    21456104.582
       224.000         174.000
  20549936.767   -35716102.57249 -27803296.15247  20549937.145    20549942.308
       233.000         190.000
 98  1  3  7 45 29.9950000  0  8G 5G22G23G17G 6G26G10G30
  23057955.005    -4360125.39949  -3378798.62245  23057952.941    23057959.648
       206.000         140.000
  23014012.597    -7266390.09149  -5633316.71745  23014011.671    23014019.680
       202.000         144.000
  21501783.513   -14037935.92549 -10919095.49846  21501782.696    21501789.033
       224.000         175.000
  20125031.097   -28876325.39249 -22464562.19547  20125030.411    20125036.754
       239.000         200.000
  18822089.779   -39606887.92249 -30835885.65248  18822089.818    18822094.962
       247.000         217.000
  21678856.086   -12093869.70149  -9405816.63145  21678856.040    21678862.174
       217.000         158.000
  21467158.687   -27830944.93749 -21666302.81146  21467157.836    21467163.567
       223.000         174.000
  20560005.044   -35663193.38849 -27762068.22947  20560005.854    20560010.795
       233.000         190.000
 98  1  3  7 45 59.9950000  0  8G 5G22G23G17G 6G26G10G30
  23072021.785    -4286203.32849  -3321197.02645  23072021.932    23072027.988
       207.000         142.000
  22994440.700    -7369240.55449  -5713459.95745  22994441.369    22994447.455
       205.000         145.000
  21477787.706   -14164034.40249 -11017353.99546  21477786.768    21477793.087
       224.000         176.000
  20110261.003   -28953942.77349 -22525043.26047  20110260.416    20110266.486
       239.000         200.000
  18811514.660   -39662460.74249 -30879189.15448  18811514.669    18811519.912
       247.000         217.000
  21658188.171   -12202479.55049  -9490447.67745  21658188.288    21658193.740
       219.000         159.000
  21478272.416   -27772541.48149 -21620793.63046  21478270.902    21478277.726
       223.000         173.000
  20570135.507   -35609957.47549 -27720585.65847  20570135.631    20570140.702
       234.000         190.000
 98  1  3  7 46 29.9940000  0  8G 5G22G23G17G 6G26G10G30
  23086076.147    -4212346.27849  -3263646.07545  23086076.232    23086081.762
       213.000         144.000
  22974942.626    -7471705.46149  -5793302.74745  22974941.969    22974948.269
       206.000         145.000
  21453841.274   -14289873.18149 -11115410.14446  21453840.845    21453846.876
       225.000         177.000
  20095529.440   -29031357.74249 -22585366.60047  20095528.645    20095535.142
       239.000         200.000
  18801010.056   -39717662.82049 -30922203.77048  18801010.002    18801015.221
       247.000         217.000
  21637569.639   -12310831.02949  -9574877.39345  21637570.302    21637575.255
       220.000         161.000
  21489435.131   -27713880.71849 -21575083.94946  21489434.664    21489439.972
       224.000         174.000
  20580321.944   -35556427.09549 -27678873.64547  20580322.099    20580327.285
       234.000         189.000
 98  1  3  7 46 59.9940000  0  8G 5G22G23G17G 6G26G10G30
  23100122.280    -4138534.03549  -3206130.06645  23100121.629    23100128.458
       214.000         145.000
  22955520.653    -7573768.08449  -5872832.06745  22955519.884    22955525.599
       205.000         145.000
  21429947.833   -14415433.98349 -11213249.72046  21429947.056    21429953.139
       226.000         178.000
  20080836.377   -29108570.02149 -22645531.99947  20080835.547    20080841.679
       238.000         200.000
  18790581.350   -39772466.07149 -30964907.60848  18790581.211    18790586.518
       247.000         217.000
  21617003.489   -12418907.08149  -9659092.50746  21617003.670    21617009.813
       221.000         163.000
  21500649.982   -27654946.73449 -21529161.36546  21500649.120    21500655.751
       225.000         174.000
  20590566.893   -35502589.32549 -27636922.14247  20590566.907    20590572.551
       233.000         189.000
 98  1  3  7 47 29.9940000  0  8G 5G22G23G17G 6G26G10G30
  23114158.801    -4064772.44249  -3148653.50345  23114159.620    23114164.972
       213.000         145.000
  22936173.267    -7675439.00749  -5952056.17645  22936173.497    22936179.847
       207.000         146.000
  21406102.856   -14540739.91049 -11310890.69546  21406102.134    21406108.329
       226.000         178.000
  20066179.147   -29185593.95449 -22705550.63647  20066178.424    20066184.878
       238.000         201.000
  18780225.827   -39826884.78349 -31007311.80448  18780225.750    18780231.143
       247.000         217.000
  21596485.953   -12526727.81949  -9743108.65746  21596485.904    21596491.756
       222.000         164.000
  21511911.028   -27595769.56149 -21483049.28246  21511910.314    21511917.267
       224.000         174.000
  20600866.172   -35448466.05449 -27594748.16447  20600866.067    20600871.804
       233.000         189.000
 98  1  3  7 47 59.9940000  0  8G 5G22G23G17G 6G26G10G30
  23128192.527    -3991025.43349  -3091188.33645  23128192.665    23128197.269
       213.000         145.000
  22916905.394    -7776693.35349  -6030955.66645  22916904.187    22916911.200
       206.000         147.000
  21382309.862   -14665772.47949 -11408318.66046  21382308.956    21382316.151
       225.000         178.000
  20051560.939   -29262413.29549 -22765409.85847  20051560.154    20051566.631
       239.000         201.000
  18769947.678   -39880896.78549 -31049399.08748  18769947.546    18769953.036
       247.000         217.000
  21576020.673   -12634273.42249  -9826910.41246  21576020.872    21576026.335
       220.000         164.000
  21523219.214   -27536344.61749 -21436744.13546  21523218.456    21523224.635
       224.000         175.000
  20611222.624   -35394042.59149 -27552340.23947  20611222.757    20611228.605
       233.000         189.000
 98  1  3  7 48 29.9940000  0  7G22G23G17G 6G26G10G30
  22897714.537    -7877541.73349  -6109538.81845  22897714.082    22897721.455
       209.000         147.000
  21358570.020   -14790526.28049 -11505529.39346  21358569.530    21358575.885
       224.000         178.000
  20036980.377   -29339034.60549 -22825114.76547  20036979.688    20036985.922
       238.000         201.000
  18759747.331   -39934499.94749 -31091167.78748  18759747.197    18759752.621
       247.000         217.000
  21555606.492   -12741550.34549  -9910502.80046  21555606.714    21555611.619
       220.000         165.000
  21534570.915   -27476690.93749 -21390260.74346  21534570.157    21534576.354
       225.000         175.000
  20621637.190   -35339313.81249 -27509694.43547  20621637.607    20621643.475
       232.000         190.000
 98  1  3  7 48 59.9940000  0  7G22G23G17G 6G26G10G30
  22878596.795    -7978007.44249  -6187823.79645  22878596.407    22878603.231
       211.000         148.000
  21334878.643   -14915024.98549 -11602541.35746  21334878.401    21334884.662
       226.000         179.000
  20022437.348   -29415458.56249 -22884665.90647  20022436.935    20022442.742
       238.000         201.000
  18749619.895   -39987720.01549 -31132637.97648  18749619.878    18749625.110
       247.000         217.000
  21535240.136   -12848576.31449  -9993899.64646  21535240.583    21535245.911
       219.000         165.000
  21545964.284   -27416818.38049 -21343606.80446  21545963.920    21545968.844
       224.000         175.000
  20632110.626   -35284275.42549 -27466807.37947  20632110.887    20632116.364
       232.000         189.000
 98  1  3  7 49 29.9940000  0  7G22G23G17G 6G26G10G30
  22859553.629    -8078080.26049  -6265802.62845  22859553.141    22859559.315
       211.000         147.000
  21311237.489   -15039260.19249 -11699348.02046  21311237.128    21311243.350
       226.000         180.000
  20007934.505   -29491671.61849 -22944052.71247  20007934.055    20007940.114
       239.000         202.000
  18739566.185   -40040552.59049 -31173806.22448  18739566.158    18739571.349
       248.000         217.000
  21514925.669   -12955329.11549 -10077083.62246  21514926.316    21514931.109
       220.000         165.000
  21557399.573   -27356725.65149 -21296781.29846  21557399.443    21557404.907
       224.000         174.000
  20642643.284   -35228925.91049 -27423677.89247  20642643.615    20642649.147
       232.000         188.000
 98  1  3  7 49 59.9940000  0  7G22G23G17G 6G26G10G30
  22840586.540    -8177753.48849  -6343470.09145  22840586.411    22840590.818
       211.000         146.000
  21287645.412   -15163237.63349 -11795953.83646  21287644.540    21287651.355
       225.000         180.000
  19993468.228   -29567692.56149 -23003289.81147  19993467.810    19993473.949
       239.000         202.000
  18729586.097   -40092998.57049 -31214673.22848  18729586.037    18729591.161
       247.000         217.000
  21494663.092   -13061809.40349 -10160055.25846  21494662.775    21494668.712
       219.000         165.000
  21568871.920   -27296438.06749 -21249803.97146  21568871.181    21568877.640
       224.000         173.000
  20653233.670   -35173273.36949 -27380312.29847  20653233.964    20653239.543
       231.000         188.000
 98  1  3  7 50 29.9940000  0  7G22G23G17G 6G26G10G30
  22821700.198    -8277002.47549  -6420806.95845  22821700.356    22821704.826
       212.000         147.000
  21264103.886   -15286948.95249 -11892352.29646  21264103.637    21264109.266
       223.000         178.000
  19979039.447   -29643516.43649 -23062373.34147  19979038.619    19979045.066
       239.000         202.000
  18719681.325   -40145048.33949 -31255231.49848  18719681.224    18719686.420
       247.000         217.000
  21474455.435   -13168000.78549 -10242801.77446  21474455.144    21474462.008
       219.000         165.000
  21580384.590   -27235938.67549 -21202661.59346  21580384.111    21580389.836
       223.000         173.000
  20663883.757   -35117306.79449 -27336701.96147  20663883.911    20663889.441
       232.000         188.000
 98  1  3  7 50 59.9940000  0  7G22G23G17G 6G26G10G30
  22802890.618    -8375847.52349  -6497829.06745  22802890.088    22802897.606
       211.000         148.000
  21240606.984   -15410425.45349 -11988567.77346  21240606.744    21240612.743
       224.000         177.000
  19964642.968   -29719170.20449 -23121324.31847  19964642.286    19964648.399
       239.000         202.000
  18709848.272   -40196721.44249 -31295496.26448  18709848.242    18709853.472
       247.000         217.000
  21454299.693   -13273920.09349 -10325336.29346  21454300.277    21454306.269
       220.000         165.000
  21591933.190   -27175250.50049 -21155372.10746  21591932.027    21591938.136
       225.000         172.000
  20674583.994   -35061076.51649 -27292886.11146  20674584.253    20674589.780
       231.000         187.000
 98  1  3  7 51 29.9940000  0  7G22G23G17G 6G26G10G30
  22784170.487    -8474223.25149  -6574485.48245  22784169.907    22784176.768
       210.000         149.000
  21217164.991   -15533613.99149 -12084558.86346  21217165.042    21217170.831
       225.000         178.000
  19950287.472   -29794609.03249 -23180107.81547  19950287.054    19950292.747
       240.000         202.000
  18700099.786   -40247950.15749 -31335414.75048  18700099.800    18700104.833
       247.000         217.000
  21434204.796   -13379519.64549 -10407621.64446  21434204.349    21434210.644
       219.000         166.000
  21603525.764   -27114331.13449 -21107902.47946  21603525.121    21603530.553
       223.000         172.000
  20685341.753   -35004544.13749 -27248834.87147  20685341.736    20685347.659
       232.000         188.000
 98  1  3  7 51 59.9940000  0  7G22G23G17G 6G26G10G30
  22765526.096    -8572199.29249  -6650830.45745  22765525.994    22765531.962
       213.000         149.000
  21193766.389   -15656574.75449 -12180372.47146  21193766.151    21193772.332
       226.000         179.000
  19935960.620   -29869897.25949 -23238773.97047  19935959.942    19935966.039
       239.000         202.000
  18690423.144   -40298801.31749 -31375039.03048  18690423.279    18690428.515
       247.000         217.000
  21414155.845   -13484877.58349 -10489718.70446  21414155.848    21414161.785
       218.000         166.000
  21615149.343   -27053248.48349 -21060305.60446  21615148.644    21615154.468
       224.000         171.000
  20696144.647   -34947774.63749 -27204598.89046  20696144.637    20696150.158
       231.000         187.000
 98  1  3  7 52 29.9940000  0  7G22G23G17G 6G26G10G30
  22746964.712    -8669740.75749  -6726836.79645  22746964.884    22746968.115
       216.000         150.000
  21170424.758   -15779236.09949 -12275952.74946  21170424.490    21170431.466
       227.000         180.000
  19921675.883   -29944963.96649 -23297267.51947  19921675.371    19921681.490
       239.000         202.000
  18680827.571   -40349226.38949 -31414331.29948  18680827.462    18680832.937
       247.000         217.000
  21394164.320   -13589934.02949 -10571580.86046  21394164.788    21394170.190
       219.000         167.000
  21626818.481   -26991926.65949 -21012522.37346  21626817.376    21626823.948
       224.000         171.000
  20707001.639   -34890720.43949 -27160141.10146  20707001.771    20707007.401
       230.000         187.000
 98  1  3  7 52 59.9940000  0  7G22G23G17G 6G26G10G30
  22728480.320    -8766876.84349  -6802527.25545  22728478.871    22728484.854
       215.000         150.000
  21147136.929   -15901614.87949 -12371312.82446  21147136.462    21147142.622
       227.000         181.000
  19907434.188   -30019804.35649 -23355584.69447  19907433.670    19907439.783
       239.000         202.000
  18671311.545   -40399233.32349 -31453297.73848  18671311.300    18671316.863
       248.000         217.000
  21374228.117   -13694699.42749 -10653216.21946  21374228.709    21374234.244
       221.000         167.000
  21638530.147   -26930381.89849 -20964565.42246  21638529.967    21638535.593
       224.000         170.000
  20717910.817   -34833392.08049 -27115469.65546  20717911.398    20717916.757
       230.000         185.000
 98  1  3  7 53 29.9940000  0  7G22G23G17G 6G26G10G30
  22710069.547    -8863626.23649  -6877916.38945  22710069.066    22710075.084
       218.000         151.000
  21123900.560   -16023722.78449 -12466461.82246  21123900.328    21123906.421
       227.000         181.000
  19893233.024   -30094431.90849 -23413736.03747  19893232.442    19893238.701
       239.000         202.000
  18661869.723   -40448850.49249 -31491960.47448  18661869.756    18661875.181
       247.000         218.000
  21354342.377   -13799199.97549 -10734645.20946  21354342.276    21354347.681
       221.000         168.000
  21650280.115   -26868635.60949 -20916451.43246  21650279.673    21650285.449
       222.000         170.000
  20728871.803   -34775791.57049 -27070586.12746  20728872.440    20728877.349
       230.000         185.000
 98  1  3  7 53 59.9940000  0  7G22G23G17G 6G26G10G30
  22691730.119    -8960001.62749  -6953014.08245  22691729.892    22691735.287
       217.000         152.000
  21100717.323   -16145551.23349 -12561393.07146  21100716.658    21100723.512
       227.000         181.000
  19879074.492   -30168835.51049 -23471712.86447  19879073.784    19879080.176
       239.000         203.000
  18652501.733   -40498079.71549 -31530320.90648  18652501.692    18652507.097
       247.000         218.000
  21334510.305   -13903418.20549 -10815854.19946  21334510.166    21334515.794
       222.000         169.000
  21662069.307   -26806682.78649 -20868176.50946  21662068.592    21662074.175
       222.000         169.000
  20739884.090   -34717921.66449 -27025492.65746  20739884.597    20739889.572
       231.000         184.000
 98  1  3  7 54 29.9940000  0  7G22G23G17G 6G26G10G30
  22673463.430    -9055993.31249  -7027812.81245  22673463.268    22673468.443
       217.000         151.000
  21077588.596   -16267093.48949 -12656101.32346  21077587.969    21077594.592
       229.000         180.000
  19864957.932   -30243018.39449 -23529517.69747  19864957.306    19864963.903
       239.000         203.000
  18643210.569   -40546905.22249 -31568366.75748  18643210.674    18643215.990
       247.000         218.000
  21314735.688   -14007334.68149 -10896828.06246  21314736.005    21314741.435
       223.000         170.000
  21673899.328   -26744515.36149 -20819734.36646  21673898.942    21673904.938
       223.000         169.000
  20750947.957   -34659780.53349 -26980187.83046  20750948.377    20750953.008
       231.000         184.000
 98  1  3  7 54 59.9940000  0  7G22G23G17G 6G26G10G30
  22655277.075    -9151563.16249  -7102282.82145  22655276.299    22655282.563
       218.000         151.000
  21054514.997   -16388346.12549 -12750583.92846  21054514.803    21054520.914
       229.000         181.000
  19850882.542   -30316984.88949 -23587153.91447  19850881.840    19850888.580
       239.000         203.000
  18634002.783   -40595292.27649 -31606070.96548  18634002.638    18634007.833
       247.000         218.000
  21295019.151   -14110945.80849 -10977563.99546  21295018.805    21295024.606
       222.000         170.000
  21685770.060   -26682134.37549 -20771125.81046  21685768.835    21685774.464
       222.000         167.000
  20762065.759   -34601355.96949 -26934662.15146  20762065.971    20762071.089
       231.000         184.000
 98  1  3  7 55 29.9940000  0  7G22G23G17G 6G26G10G30
  22637174.042    -9246695.30749  -7176411.77445  22637172.671    22637180.289
       217.000         151.000
  21031500.346   -16509289.03649 -12844825.17146  21031499.796    21031506.563
       229.000         182.000
  19836846.939   -30390742.41449 -23644627.29747  19836846.277    19836852.801
       239.000         203.000
  18624880.193   -40643231.69249 -31643426.36148  18624880.254    18624885.554
       248.000         217.000
  21275361.907   -14214244.99549 -11058056.85046  21275361.893    21275367.593
       223.000         171.000
  21697680.474   -26619544.45149 -20722354.44646  21697679.979    21697685.432
       221.000         166.000
  20773234.173   -34542665.32049 -26888929.14646  20773234.079    20773239.560
       230.000         184.000
 98  1  3  7 55 59.9940000  0  7G22G23G17G 6G26G10G30
  22619151.772    -9341403.15649  -7250210.09745  22619150.828    22619155.024
       218.000         151.000
  21008539.622   -16629948.68049 -12938845.69946  21008539.111    21008545.623
       229.000         182.000
  19822843.649   -30464330.08249 -23701968.33047  19822843.181    19822849.482
       239.000         203.000
  18615838.349   -40690746.98449 -31680451.27348  18615838.303    18615843.483
       247.000         217.000
  21255759.778   -14317254.77049 -11138324.20446  21255759.994    21255765.313
       225.000         172.000
  21709623.890   -26556781.29749 -20673448.09846  21709622.421    21709628.430
       221.000         166.000
  20784444.205   -34483755.99249 -26843025.75346  20784444.249    20784449.731
       229.000         184.000
 98  1  3  7 56 29.9940000  0  7G22G23G17G 6G26G10G30
  22601217.136    -9435650.79449  -7323649.80145  22601216.703    22601220.728
       218.000         151.000
  20985632.847   -16750324.58049 -13032645.10046  20985632.269    20985639.177
       229.000         182.000
  19808870.630   -30537758.49449 -23759185.25647  19808870.155    19808876.516
       240.000         203.000
  18606878.012   -40737834.00049 -31717142.46048  18606877.926    18606883.205
       247.000         217.000
  21236212.708   -14419975.43749 -11218366.24946  21236213.555    21236218.552
       223.000         172.000
  21721600.165   -26493845.30449 -20624407.05846  21721600.569    21721605.623
       221.000         165.000
  20795698.389   -34424614.69149 -26796941.61246  20795698.877    20795704.409
       230.000         183.000
 98  1  3  7 56 59.9940000  0  7G22G23G17G 6G26G10G30
  22583371.712    -9529428.96949  -7396723.71445  22583370.928    22583376.259
       216.000         150.000
  20962779.244   -16870420.79049 -13126226.53646  20962779.240    20962784.851
       228.000         183.000
  19794929.739   -30611018.24049 -23816270.75447  19794929.266    19794935.757
       240.000         203.000
  18597996.956   -40784504.25549 -31753508.90648  18597997.055    18598002.197
       247.000         217.000
  21216719.913   -14522410.50349 -11298185.76646  21216720.240    21216725.462
       223.000         172.000
  21733607.554   -26430746.08549 -20575238.85046  21733606.747    21733612.686
       221.000         165.000
  20806996.721   -34365241.83649 -26750677.04146  20806996.976    20807002.442
       230.000         183.000
 98  1  3  7 57 29.9940000  0  7G22G23G17G 6G26G10G30
  22565617.881    -9622725.63549  -7469422.41145  22565617.008    22565622.438
       217.000         149.000
  20939985.318   -16990203.74049 -13219563.87646  20939985.000    20939990.905
       228.000         183.000
  19781028.062   -30684072.11849 -23873195.84347  19781027.500    19781033.878
       239.000         203.000
  18589196.241   -40830752.38349 -31789546.42248  18589196.287    18589201.442
       247.000         217.000
  21197290.650   -14624512.04049 -11377745.38246  21197290.871    21197296.437
       223.000         172.000
  21745651.844   -26367453.38249 -20525919.87146  21745651.389    21745656.036
       221.000         165.000
  20818344.495   -34305609.02549 -26704209.94546  20818344.870    20818349.999
       229.000         182.000
 98  1  3  7 57 59.9940000  0  7G22G23G17G 6G26G10G30
  22547949.762    -9715572.88749  -7541770.94145  22547949.160    22547954.116
       218.000         148.000
  20917243.739   -17109711.52049 -13312686.79546  20917244.003    20917250.000
       229.000         183.000
  19767160.014   -30756949.02549 -23929983.02747  19767159.520    19767165.697
       239.000         203.000
  18580468.717   -40876615.79749 -31825284.15748  18580468.759    18580473.920
       246.000         217.000
  21177920.011   -14726305.15049 -11457064.66946  21177920.261    21177926.338
       222.000         172.000
  21757729.064   -26303987.37449 -20476465.84446  21757728.048    21757734.574
       222.000         165.000
  20829740.039   -34245724.81849 -26657546.88146  20829739.951    20829745.897
       229.000         181.000
 98  1  3  7 58 29.9940000  0  7G22G23G17G 6G26G10G30
  22530366.522    -9807973.68649  -7613771.56545  22530365.612    22530370.784
       215.000         148.000
  20894556.030   -17228936.27249 -13405589.17546  20894555.800    20894561.681
       229.000         184.000
  19753329.684   -30829627.95849 -23986615.94847  19753328.925    19753335.333
       239.000         203.000
  18571818.315   -40922074.11749 -31860706.23948  18571818.338    18571823.733
       246.000         218.000
  21158613.693   -14827760.63649 -11536120.86346  21158614.076    21158619.926
       221.000         172.000
  21769844.367   -26240320.63549 -20426855.40346  21769844.071    21769849.312
       221.000         164.000
  20841187.936   -34185565.85549 -26610669.74746  20841188.455    20841193.135
       229.000         181.000
 98  1  3  7 58 59.9940000  0  7G22G23G17G 6G26G10G30
  22512862.954    -9899954.34149  -7685444.82445  22512862.620    22512868.645
       216.000         148.000
  20871924.484   -17347865.56249 -13498261.33446  20871924.287    20871930.691
       230.000         185.000
  19739540.586   -30902090.07249 -24043079.92747  19739540.091    19739546.464
       239.000         203.000
  18563246.191   -40967121.06249 -31895807.76748  18563246.012    18563251.549
       245.000         218.000
  21139376.158   -14928854.48849 -11614895.27946  21139376.214    21139382.553
       222.000         171.000
  21782001.255   -26176435.59849 -20377074.85246  21782000.985    21782006.872
       220.000         164.000
  20852686.041   -34125143.10949 -26563587.05346  20852686.306    20852691.704
       229.000         181.000
 98  1  3  7 59 29.9940000  0  7G22G23G17G 6G26G10G30
  22495437.651    -9991525.87949  -7756799.29245  22495438.322    22495442.836
       215.000         148.000
  20849348.655   -17466502.73849 -13590705.86246  20849348.416    20849354.300
       229.000         186.000
  19725789.906   -30974350.57949 -24099386.80747  19725789.360    19725795.720
       240.000         204.000
  18554752.684   -41011754.78249 -31930587.30748  18554752.802    18554758.015
       246.000         218.000
  21120207.769   -15029585.20349 -11693386.73146  21120208.294    21120213.594
       221.000         171.000
  21794199.720   -26112331.75249 -20327123.79246  21794198.730    21794205.600
       220.000         163.000
  20864232.160   -34064467.59749 -26516307.36746  20864232.333    20864237.389
       228.000         180.000
 98  1  3  7 59 59.9940000  0  7G22G23G17G 6G26G10G30
  22478087.364   -10082702.81249  -7827846.27345  22478085.555    22478090.287
       212.000         148.000
  20826824.559   -17584867.33049 -13682937.98746  20826824.290    20826831.029
       229.000         186.000
  19712073.241   -31046432.30249 -24155554.38047  19712072.626    19712078.748
       240.000         204.000
  18546337.646   -41055976.12949 -31965045.50648  18546337.628    18546343.078
       246.000         218.000
  21101104.171   -15129974.81949 -11771612.38646  21101104.200    21101110.070
       220.000         170.000
  21806433.665   -26048041.71849 -20277027.68546  21806432.931    21806438.667
       221.000         164.000
  20875820.902   -34003568.52249 -26468853.49246  20875820.720    20875826.063
       229.000         180.000
 98  1  3  8  0 29.9940000  0  7G22G23G17G 6G26G10G30
  22460811.334   -10173487.37549  -7898587.49445  22460810.105    22460815.606
       213.000         147.000
  20804352.752   -17702957.57049 -13774956.35946  20804352.476    20804358.771
       230.000         187.000
  19698390.437   -31118336.16049 -24211583.35747  19698390.098    19698396.311
       241.000         204.000
  18538002.119   -41099779.74949 -31999178.21048  18538001.928    18538007.206
       246.000         218.000
  21082063.745   -15230032.49249 -11849579.38646  21082063.811    21082070.304
       221.000         170.000
  21818697.931   -25983592.93249 -20226807.84746  21818697.290    21818702.950
       222.000         164.000
  20887446.762   -33942474.05649 -26421247.39346  20887447.271    20887452.345
       229.000         180.000
 98  1  3  8  0 59.9940000  0  7G22G23G17G 6G26G10G30
  22443615.251   -10263853.46449  -7969002.63845  22443614.279    22443621.152
       212.000         149.000
  20781937.128   -17820752.43349 -13866744.56146  20781936.455    20781942.883
       230.000         187.000
  19684744.099   -31190048.28749 -24267462.94447  19684743.516    19684749.720
       240.000         204.000
  18529747.223   -41143159.27349 -32032980.44548  18529747.353    18529752.454
       246.000         218.000
  21063085.625   -15329763.28149 -11927291.68146  21063085.959    21063091.586
       222.000         170.000
  21830988.761   -25919004.52249 -20176479.21246  21830987.972    21830994.252
       221.000         164.000
  20899110.344   -33881181.10149 -26373486.64146  20899110.607    20899115.804
       228.000         180.000
 98  1  3  8  1 29.9940000  0  7G22G23G17G 6G26G10G30
  22426501.942   -10353784.37649  -8039078.69545  22426501.166    22426506.826
       212.000         149.000
  20759578.646   -17938247.10149 -13958298.86246  20759578.353    20759584.230
       230.000         187.000
  19671133.152   -31261574.04449 -24323197.30147  19671132.518    19671138.727
       239.000         204.000
  18521575.728   -41186100.91449 -32066441.47648  18521575.610    18521580.947
       246.000         218.000
  21044166.068   -15429186.07349 -12004763.97446  21044166.357    21044172.111
       222.000         170.000
  21843302.175   -25854297.51649 -20126058.17546  21843301.767    21843307.338
       222.000         164.000
  20910811.688   -33819689.94549 -26325571.42946  20910810.877    20910816.608
       227.000         179.000
 98  1  3  8  1 59.9940000  0  7G22G23G17G 6G26G10G30
  22409477.121   -10443250.12749  -8108792.28245  22409477.032    22409481.569
       212.000         150.000
  20737283.785   -18055407.47749 -14049592.67246  20737283.537    20737289.707
       230.000         187.000
  19657564.807   -31332876.29949 -24378757.49847  19657564.391    19657570.396
       241.000         204.000
  18513491.890   -41228581.68449 -32099543.39248  18513491.856    18513497.142
       246.000         218.000
  21025309.700   -15528276.91149 -12081977.61846  21025309.921    21025315.336
       222.000         170.000
  21855640.729   -25789458.34849 -20075534.14746  21855640.295    21855645.480
       220.000         163.000
  20922554.847   -33757978.88349 -26277484.86446  20922554.977    20922560.431
       227.000         178.000
 98  1  3  8  2 29.9940000  0  7G22G23G17G 6G26G10G30
  22392538.877   -10532262.02549  -8178152.21745  22392538.908    22392543.504
       211.000         150.000
  20715046.343   -18172265.83549 -14140651.13146  20715045.472    20715052.012
       229.000         187.000
  19644033.803   -31403982.45949 -24434164.88547  19644033.049    19644039.385
       240.000         204.000
  18505489.721   -41270633.59349 -32132311.13248  18505489.766    18505495.000
       246.000         218.000
  21006513.186   -15627053.51549 -12158946.38446  21006512.994    21006518.256
       223.000         171.000
  21868001.241   -25724503.15049 -20024919.70846  21867999.899    21868006.127
       221.000         163.000
  20934335.997   -33696068.44049 -26229242.91846  20934336.490    20934341.801
       227.000         178.000
 98  1  3  8  2 59.9940000  0  7G22G23G17G 6G26G10G30
  22375691.828   -10620793.08549  -8247137.47545  22375690.991    22375697.611
       207.000         150.000
  20692870.394   -18288800.75749 -14231457.56146  20692870.034    20692876.502
       230.000         187.000
  19630543.005   -31474876.98749 -24489407.36847  19630542.268    19630548.556
       240.000         204.000
  18497573.898   -41312231.62249 -32164725.20748  18497573.896    18497579.119
       246.000         218.000
  20987782.919   -15725481.41949 -12235643.43846  20987783.490    20987788.579
       222.000         171.000
  21880390.343   -25659397.51049 -19974188.04746  21880389.512    21880395.205
       220.000         163.000
  20946160.276   -33633931.45449 -26180824.44046  20946160.365    20946166.318
       227.000         178.000
 98  1  3  8  3 29.9940000  0  7G22G23G17G 6G26G10G30
  22358937.671   -10708835.96549  -8315742.36745  22358937.749    22358942.893
       211.000         150.000
  20670756.269   -18405011.38549 -14322011.30647  20670755.963    20670762.375
       231.000         188.000
  19617092.037   -31545562.23049 -24544486.76947  19617091.420    19617097.400
       240.000         204.000
  18489746.496   -41353364.75549 -32196777.02548  18489746.495    18489751.887
       246.000         218.000
  20969125.261   -15823528.17749 -12312043.48746  20969125.097    20969130.976
       222.000         171.000
  21892812.922   -25594116.02349 -19923319.34746  21892811.922    21892819.236
       220.000         163.000
  20958028.205   -33571564.55249 -26132226.80446  20958027.410    20958033.853
       226.000         178.000
 98  1  3  8  3 59.9940000  0  7G22G23G17G 6G26G10G30
  22342279.035   -10796378.78049  -8383957.56645  22342276.634    22342283.868
       209.000         150.000
  20648703.209   -18520901.14149 -14412315.00247  20648702.781    20648709.419
       231.000         189.000
  19603681.757   -31616033.62949 -24599399.53947  19603681.044    19603687.227
       240.000         205.000
  18482007.769   -41394032.26049 -32228466.00748  18482007.832    18482013.096
       246.000         217.000
  20950545.203   -15921166.92249 -12388125.61246  20950545.369    20950551.281
       222.000         171.000
  21905271.062   -25528648.36049 -19872305.59246  21905270.127    21905276.430
       218.000         163.000
  20969942.310   -33508954.98949 -26083440.13846  20969942.631    20969948.085
       226.000         178.000
 98  1  3  8  4 29.9940000  0  7G22G23G17G 6G26G10G30
  22325708.964   -10883453.58649  -8451808.07245  22325707.344    22325715.614
       207.000         150.000
  20626704.142   -18636507.08549 -14502397.54947  20626703.800    20626709.754
       232.000         189.000
  19590306.259   -31686322.40149 -24654170.00547  19590305.684    19590311.859
       241.000         205.000
  18474353.229   -41434257.07349 -32259810.03148  18474353.291    18474358.559
       246.000         217.000
  20932039.045   -16018417.37349 -12463905.17846  20932038.881    20932044.436
       223.000         171.000
  21917760.438   -25463015.97749 -19821163.47846  21917759.871    21917766.162
       218.000         163.000
  20981897.122   -33446131.83749 -26034487.05246  20981897.125    20981902.964
       226.000         177.000
 98  1  3  8  4 59.9940000  0  7G22G23G17G 6G26G10G30
  22309224.136   -10970081.71649  -8519310.54845  22309224.605    22309230.844
       212.000         151.000
  20604758.719   -18751831.39749 -14592260.62947  20604758.123    20604764.635
       232.000         190.000
  19576963.972   -31756436.56449 -24708804.40147  19576963.360    19576969.890
       240.000         205.000
  18466780.147   -41474053.94249 -32290820.57248  18466780.294    18466785.640
       245.000         217.000
  20913603.588   -16115296.59249 -12539395.46946  20913603.444    20913608.925
       223.000         172.000
  21930279.322   -25397228.75249 -19769900.69945  21930278.274    21930285.244
       218.000         162.000
  20993889.983   -33383108.58849 -25985378.01946  20993889.992    20993895.387
       224.000         176.000
 98  1  3  8  5 29.9940000  0  7G22G23G17G 6G26G10G30
  22292820.045   -11056286.96749  -8586483.46845  22292818.673    22292824.294
       210.000         150.000
  20582864.874   -18866884.33749 -14681912.24447  20582864.489    20582870.787
       232.000         190.000
  19563651.631   -31826393.53149 -24763316.30947  19563651.106    19563657.451
       240.000         205.000
  18459282.925   -41513452.29949 -32321520.59948  18459282.844    18459288.227
       245.000         217.000
  20895233.943   -16211829.32249 -12614615.77346  20895234.560    20895239.468
       224.000         172.000
  21942823.709   -25331307.68849 -19718533.64945  21942823.509    21942829.074
       218.000         162.000
  21005919.542   -33319892.93949 -25936119.05746  21005919.884    21005925.597
       224.000         176.000
 98  1  3  8  5 59.9940000  0  7G22G23G17G 6G26G10G30
  22276500.832   -11142043.99749  -8653307.14345  22276498.931    22276506.269
       208.000         151.000
  20561031.950   -18981616.83149 -14771314.15647  20561031.264    20561037.846
       231.000         190.000
  19550376.632   -31896153.85949 -24817674.99147  19550375.996    19550382.111
       241.000         205.000
  18451867.462   -41552420.91349 -32351885.75948  18451867.538    18451872.759
       246.000         217.000
  20876933.295   -16307999.85249 -12689553.84446  20876933.849    20876939.287
       225.000         173.000
  21955397.449   -25265232.80349 -19667046.73245  21955397.255    21955402.908
       217.000         162.000
  21017991.164   -33256456.11049 -25886687.73046  21017991.537    21017996.473
       224.000         176.000
 98  1  3  8  6 29.9940000  0  7G22G23G17G 6G26G10G30
  22260269.082   -11227341.37249  -8719772.66945  22260269.366    22260275.312
       212.000         153.000
  20539265.495   -19095999.97149 -14860443.86247  20539265.013    20539271.422
       233.000         190.000
  19537142.224   -31965701.06649 -24871867.60847  19537141.598    19537148.021
       240.000         205.000
  18444534.330   -41590956.91349 -32381913.82548  18444534.345    18444539.658
       245.000         217.000
  20858703.127   -16403800.24849 -12764203.50146  20858703.470    20858708.734
       225.000         173.000
  21968000.500   -25199003.28649 -19615439.31245  21967999.810    21968005.430
       218.000         162.000
  21030104.378   -33192800.79149 -25837086.18146  21030105.401    21030110.748
       225.000         176.000
 98  1  3  8  6 59.9940000  0  7G22G23G17G 6G26G10G30
  22244123.665   -11312188.67949  -8785887.45845  22244123.863    22244128.991
       214.000         155.000
  20517565.295   -19210034.94849 -14949302.25747  20517564.865    20517571.480
       233.000         191.000
  19523942.829   -32035064.29249 -24925916.85447  19523942.186    19523948.523
       241.000         205.000
  18437282.151   -41629067.17749 -32411610.13148  18437282.035    18437287.648
       245.000         217.000
  20840538.627   -16499255.04649 -12838583.85346  20840538.925    20840543.669
       225.000         173.000
  21980628.319   -25132643.98649 -19563730.77445  21980627.698    21980633.838
       216.000         161.000
  21042253.100   -33128958.71949 -25787339.10646  21042253.531    21042258.607
       225.000         176.000
 98  1  3  8  7 29.9940000  0  7G22G23G17G 6G26G10G30
  22228067.382   -11396564.05149  -8851634.53045  22228065.810    22228072.635
       210.000         154.000
  20495935.945   -19323697.69549 -15037870.59947  20495935.319    20495942.098
       232.000         191.000
  19510782.026   -32104224.77649 -24979808.12647  19510781.507    19510787.932
       241.000         205.000
  18430116.972   -41666720.37549 -32440950.28648  18430117.055    18430122.444
       245.000         217.000
  20822445.525   -16594335.27649 -12912672.33846  20822445.821    20822451.751
       225.000         173.000
  21993281.996   -25066148.89349 -19511916.41745  21993280.679    21993287.509
       219.000         161.000
  21054436.854   -33064932.69349 -25737448.68846  21054437.246    21054443.130
       226.000         177.000
 98  1  3  8  7 59.9940000  0  7G22G23G17G 6G26G10G30
  22212104.042   -11480452.17449  -8917001.90045  22212103.721    22212109.536
       213.000         156.000
  20474375.514   -19436998.50849 -15126156.93047  20474374.965    20474381.523
       232.000         191.000
  19497660.376   -32173179.64349 -25033539.18147  19497659.651    19497665.916
       241.000         206.000
  18423040.839   -41703905.66149 -32469925.82548  18423040.874    18423046.082
       245.000         217.000
  20804426.329   -16689026.92849 -12986458.02546  20804426.345    20804431.655
       225.000         174.000
  22005960.005   -24999525.81749 -19460002.32345  22005959.591    22005965.178
       218.000         161.000
  21066650.129   -33000751.86149 -25687437.65246  21066650.761    21066656.375
       226.000         177.000
 98  1  3  8  8 29.9940000  0  7G22G23G17G 6G26G10G30
  22196230.964   -11563866.05649  -8981999.74445  22196230.280    22196237.143
       214.000         157.000
  20452876.423   -19549977.18949 -15214192.25747  20452875.769    20452882.257
       233.000         192.000
  19484572.368   -32241957.50049 -25087132.30947  19484571.732    19484578.197
       240.000         206.000
  18416050.513   -41740640.08749 -32498550.05048  18416050.583    18416055.636
       245.000         217.000
  20786478.267   -16783344.32849 -13059952.09946  20786478.191    20786483.798
       225.000         174.000
  22018658.942   -24932792.08849 -19408002.02145  22018657.631    22018664.281
       214.000         159.000
  21078888.690   -32936438.11749 -25637323.03846  21078888.679    21078894.292
       225.000         177.000
 98  1  3  8  8 59.9940000  0  7G22G23G17G 6G26G10G30
  22180447.432   -11646808.86849  -9046630.52745  22180447.136    22180452.566
       216.000         158.000
  20431436.548   -19662644.43849 -15301984.92247  20431436.621    20431442.496
       233.000         192.000
  19471515.981   -32310569.23849 -25140595.99947  19471515.410    19471521.646
       240.000         206.000
  18409146.235   -41776922.39049 -32526821.96448  18409146.183    18409151.482
       246.000         217.000
  20768599.950   -16877295.58549 -13133160.86246  20768600.397    20768606.138
       224.000         174.000
  22031379.244   -24865945.87949 -19355914.06645  22031378.934    22031384.725
       214.000         158.000
  21091152.489   -32871991.66149 -25587105.01546  21091152.619    21091157.911
       225.000         176.000
 98  1  3  8  9 29.9940000  0  7G22G23G17G 6G26G10G30
  22164753.979   -11729279.44249  -9110893.33345  22164753.121    22164759.304
       215.000         159.000
  20410054.654   -19775007.03349 -15389540.19047  20410054.164    20410060.366
       232.000         191.000
  19458494.761   -32378995.95949 -25193915.51447  19458493.985    19458500.411
       240.000         206.000
  18402326.630   -41812759.70649 -32554747.14248  18402326.504    18402331.887
       245.000         217.000
  20750795.922   -16970856.29149 -13206065.28846  20750795.933    20750801.968
       225.000         175.000
  22044121.625   -24798984.47549 -19303736.34645  22044120.023    22044127.305
       215.000         158.000
  21103445.104   -32807393.55449 -25536768.80646  21103446.088    21103450.670
       224.000         174.000
 98  1  3  8  9 59.9930000  0  7G22G23G17G 6G26G10G30
  22149154.168   -11811256.88249  -9174771.87645  22149153.030    22149160.361
       215.000         160.000
  20388733.789   -19887048.85349 -15476845.51447  20388733.553    20388739.857
       233.000         192.000
  19445512.609   -32447217.45549 -25247075.11047  19445512.102    19445518.211
       240.000         206.000
  18395593.092   -41848144.51249 -32582319.70648  18395593.136    18395598.408
       245.000         217.000
  20733069.560   -17064008.92449 -13278651.75446  20733069.415    20733075.461
       226.000         176.000
  22056888.938   -24731891.64749 -19251456.22345  22056888.394    22056894.356
       214.000         156.000
  21115774.425   -32742602.49349 -25486282.25946  21115774.753    21115780.097
       226.000         174.000
 98  1  3  8 10 29.9930000  0  7G22G23G17G 6G26G10G30
  22133639.658   -11892786.31049  -9238301.33345  22133639.011    22133644.947
       217.000         161.000
  20367469.364   -19998794.28149 -15563919.87347  20367469.005    20367475.253
       235.000         192.000
  19432563.148   -32515267.30749 -25300100.94147  19432562.387    19432568.775
       241.000         206.000
  18388939.195   -41883111.12449 -32609566.40348  18388939.152    18388944.458
       245.000         217.000
  20715413.570   -17156791.72049 -13350950.03346  20715413.917    20715419.179
       226.000         177.000
  22069677.890   -24664685.21749 -19199087.58145  22069677.510    22069683.404
       214.000         156.000
  21128138.834   -32677627.34949 -25435652.24946  21128138.974    21128144.479
       227.000         174.000
 98  1  3  8 10 59.9930000  0  7G22G23G17G 6G26G10G30
  22118212.478   -11973857.30349  -9301473.54245  22118211.691    22118217.798
       214.000         160.000
  20346267.242   -20110212.31049 -15650739.11947  20346266.723    20346273.322
       234.000         193.000
  19419650.369   -32583124.52249 -25352976.67147  19419649.696    19419656.173
       241.000         206.000
  18382369.275   -41917636.32049 -32636469.13748  18382369.141    18382374.474
       245.000         217.000
  20697833.327   -17249176.58549 -13422938.21246  20697833.278    20697839.229
       227.000         177.000
  22082488.384   -24597365.72249 -19146630.82945  22082487.642    22082494.499
       212.000         155.000
  21140539.686   -32612460.58049 -25384872.94746  21140539.529    21140544.642
       225.000         174.000
 98  1  3  8 11 29.9930000  0  7G22G23G17G 6G26G10G30
  22102873.746   -12054462.25349  -9364282.62745  22102873.019    22102879.722
       216.000         161.000
  20325130.773   -20221285.03449 -15737289.29547  20325130.125    20325136.483
       235.000         193.000
  19406777.961   -32650769.26749 -25405686.82147  19406777.148    19406783.315
       241.000         206.000
  18375888.077   -41951695.21149 -32663008.52948  18375887.987    18375893.250
       245.000         217.000
  20680333.112   -17341140.81749 -13494598.63546  20680333.343    20680338.690
       225.000         178.000
  22095323.613   -24529915.68749 -19094072.36845  22095323.076    22095329.378
       214.000         156.000
  21152979.206   -32547090.14449 -25333934.94746  21152978.668    21152984.386
       223.000         173.000
 98  1  3  8 11 59.9930000  0  7G22G23G17G 6G26G10G30
  22087620.069   -12134620.82549  -9426743.88846  22087619.999    22087626.227
       218.000         163.000
  20304059.574   -20332014.73549 -15823572.17347  20304058.883    20304065.782
       234.000         193.000
  19393940.735   -32718229.18549 -25458252.96347  19393939.975    19393946.114
       241.000         207.000
  18369492.881   -41985302.14049 -32689195.74848  18369492.845    18369498.143
       245.000         217.000
  20662907.336   -17432713.87249 -13565954.24346  20662907.577    20662912.787
       227.000         178.000
  22108179.517   -24462357.73449 -19041429.81545  22108178.896    22108184.717
       215.000         157.000
  21165449.352   -32481558.51849 -25282871.32746  21165449.434    21165454.965
       222.000         171.000
 98  1  3  8 12 29.9930000  0  7G22G23G17G 6G26G10G30
  22072449.305   -12214344.72049  -9488866.42446  22072448.012    22072454.384
       218.000         163.000
  20283052.579   -20442407.34949 -15909592.38347  20283052.365    20283058.358
       235.000         194.000
  19381136.023   -32785518.07449 -25510685.85347  19381135.629    19381141.823
       241.000         207.000
  18363184.350   -42018453.70649 -32715028.13148  18363184.282    18363189.689
       245.000         217.000
  20645554.804   -17523901.99749 -13637009.92246  20645555.170    20645560.564
       227.000         178.000
  22121052.835   -24394708.18649 -18988715.88345  22121051.655    22121058.689
       216.000         158.000
  21177941.179   -32415913.00949 -25231718.96746  21177941.216    21177946.175
       222.000         170.000
 98  1  3  8 12 59.9930000  0  7G22G23G17G 6G26G10G30
  22057374.904   -12293560.14749  -9550592.75845  22057374.387    22057381.072
       216.000         162.000
  20262122.159   -20552397.82949 -15995299.26647  20262121.845    20262127.921
       235.000         194.000
  19368377.754   -32852563.22549 -25562928.82847  19368377.181    19368383.468
       241.000         207.000
  18356976.868   -42051074.23349 -32740446.73748  18356976.809    18356982.255
       245.000         217.000
  20628288.955   -17614634.81149 -13707710.82946  20628289.043    20628294.644
       227.000         178.000
  22133957.245   -24326895.29249 -18935874.66845  22133956.101    22133962.518
       214.000         158.000
  21190465.230   -32350098.47849 -25180434.93746  21190465.136    21190470.725
       222.000         171.000
 98  1  3  8 13 29.9930000  0  7G22G23G17G 6G26G10G30
  22042390.497   -12372303.39849  -9611951.16545  22042391.090    22042396.537
       220.000         162.000
  20241258.519   -20662036.96949 -16080732.35447  20241257.999    20241264.424
       235.000         195.000
  19355657.505   -32919408.50149 -25615016.05147  19355657.077    19355663.019
       242.000         207.000
  18350860.397   -42083216.45349 -32765492.62448  18350860.384    18350865.702
       245.000         217.000
  20611100.918   -17704958.25649 -13778092.74746  20611101.072    20611107.000
       226.000         178.000
  22146885.675   -24258955.97249 -18882934.94445  22146885.130    22146890.755
       216.000         158.000
  21203011.778   -32284165.83249 -25129058.87346  21203011.660    21203017.108
       223.000         170.000
 98  1  3  8 13 59.9930000  0  7G22G23G17G 6G26G10G30
  22027497.447   -12450568.12749  -9672936.69345  22027496.891    22027503.401
       218.000         162.000
  20220458.380   -20771342.38449 -16165905.41247  20220458.128    20220464.168
       235.000         195.000
  19342972.525   -32986068.55749 -25666958.94747  19342972.169    19342978.197
       242.000         207.000
  18344832.573   -42114892.90549 -32790175.56148  18344832.607    18344837.986
       245.000         217.000
  20593991.405   -17794869.06549 -13848153.12446  20593991.496    20593996.196
       227.000         179.000
  22159834.599   -24190908.82149 -18829911.19445  22159833.646    22159839.865
       216.000         158.000
  21215578.131   -32218129.02149 -25077601.64246  21215578.241    21215583.801
       221.000         170.000
 98  1  3  8 14 29.9930000  0  7G22G23G17G 6G26G10G30
  22012696.283   -12528348.60849  -9733544.88245  22012696.108    22012702.134
       218.000         162.000
  20199717.771   -20880335.23849 -16250834.91747  20199717.736    20199723.537
       236.000         195.000
  19330324.093   -33052536.65149 -25718752.26847  19330323.535    19330329.523
       242.000         207.000
  18338893.529   -42146102.71149 -32814494.89048  18338893.568    18338898.785
       245.000         217.000
  20576961.837   -17884360.02149 -13917886.34646  20576961.996    20576967.018
       226.000         178.000
  22172802.202   -24122763.66649 -18776811.08445  22172801.499    22172807.738
       215.000         157.000
  21228167.381   -32151972.07549 -25026050.79046  21228168.025    21228172.055
       222.000         169.000
 98  1  3  8 14 59.9930000  0  7G22G23G17G 6G26G10G30
  21997983.492   -12605665.37249  -9793791.73745  21997983.943    21997989.335
       219.000         162.000
  20179030.595   -20989047.21649 -16335545.54547  20179030.318    20179036.625
       236.000         196.000
  19317705.791   -33118846.29549 -25770422.11647  19317705.271    19317711.294
       241.000         207.000
  18333035.591   -42176886.22549 -32838482.03148  18333035.354    18333040.872
       245.000         217.000
  20560008.058   -17973452.68349 -13987309.19746  20560008.163    20560013.726
       226.000         179.000
  22185782.042   -24054554.45749 -18723661.03945  22185781.583    22185787.093
       216.000         156.000
  21240778.996   -32085697.60849 -24974408.35146  21240779.964    21240784.722
       221.000         168.000
 98  1  3  8 15 29.9930000  0  7G22G23G17G 6G26G10G30
  21983368.786   -12682466.34749  -9853636.68445  21983368.671    21983374.274
       218.000         162.000
  20158406.758   -21097426.13149 -16419996.65947  20158406.396    20158412.865
       236.000         196.000
  19305126.034   -33184953.38949 -25821934.12347  19305125.380    19305131.755
       242.000         208.000
  18327268.572   -42207191.91149 -32862096.85948  18327268.516    18327273.934
       245.000         217.000
  20543140.231   -18062093.45749 -14056379.91446  20543140.670    20543145.818
       226.000         179.000
  22198779.034   -23986254.52849 -18670440.30145  22198777.556    22198784.268
       214.000         155.000
  21253422.126   -32019257.81149 -24922637.07246  21253421.732    21253428.353
       221.000         167.000
 98  1  3  8 15 59.9930000  0  7G22G23G17G 6G26G10G30
  21968850.816   -12758758.85849  -9913085.40445  21968850.591    21968856.340
       219.000         162.000
  20137846.939   -21205468.68049 -16504185.65547  20137846.449    20137852.837
       236.000         196.000
  19292582.822   -33250868.42549 -25873296.45047  19292582.363    19292588.354
       242.000         208.000
  18321591.072   -42237027.29749 -32885345.20548  18321591.136    18321596.477
       245.000         217.000
  20526358.008   -18150284.94949 -14125100.54746  20526358.408    20526363.651
       226.000         180.000
  22211790.142   -23917880.10149 -18617161.52445  22211789.088    22211795.901
       214.000         154.000
  21266095.648   -31952658.23549 -24870741.30346  21266095.788    21266101.434
       221.000         167.000
 98  1  3  8 16 29.9930000  0  7G22G23G17G 6G26G10G30
  21954431.166   -12834535.50949  -9972132.16446  21954430.574    21954436.783
       220.000         163.000
  20117356.416   -21313146.96249 -16588090.81547  20117355.814    20117362.223
       236.000         196.000
  19280078.478   -33316579.21949 -25924499.64447  19280077.840    19280084.026
       242.000         208.000
  18316005.151   -42266381.70849 -32908218.76348  18316005.163    18316010.410
       246.000         217.000
  20509661.708   -18238024.47349 -14193468.98946  20509661.827    20509667.789
       226.000         180.000
  22224816.431   -23849426.39249 -18563820.97845  22224815.820    22224822.274
       212.000         154.000
  21278800.627   -31885893.10449 -24818716.53546  21278800.543    21278805.212
       220.000         166.000
 98  1  3  8 16 59.9930000  0  7G22G23G17G 6G26G10G30
  21940101.507   -12909838.68749 -10030809.99046  21940100.944    21940107.019
       220.000         163.000
  20096931.286   -21420481.66649 -16671728.24847  20096931.014    20096937.006
       236.000         197.000
  19267604.028   -33382132.77249 -25975580.31347  19267603.536    19267609.527
       242.000         208.000
  18310502.911   -42295296.36649 -32930749.65848  18310502.803    18310508.227
       246.000         217.000
  20493044.171   -18325350.28449 -14261515.05646  20493044.630    20493050.342
       227.000         180.000
  22237851.882   -23780924.55849 -18510442.93245  22237851.006    22237858.467
       213.000         152.000
  21291525.380   -31819023.62349 -24766610.44546  21291525.444    21291530.634
       220.000         166.000
 98  1  3  8 17 29.9930000  0  7G22G23G17G 6G26G10G30
  21925866.316   -12984644.97749 -10089100.61645  21925865.479    21925872.344
       218.000         162.000
  20076579.634   -21527430.15949 -16755064.72047  20076579.453    20076585.419
       236.000         196.000
  19255166.742   -33447491.39349 -26026509.09047  19255166.286    19255172.263
       242.000         208.000
  18305092.749   -42323727.07649 -32952903.45648  18305092.718    18305097.934
       246.000         217.000
  20476511.302   -18412230.97949 -14329214.28146  20476511.376    20476517.356
       226.000         180.000
  22250903.300   -23712339.11749 -18456999.72945  22250902.950    22250908.086
       212.000         150.000
  21304271.834   -31752040.58349 -24714415.85946  21304271.989    21304277.359
       221.000         167.000
 98  1  3  8 17 59.9930000  0  7G22G23G17G 6G26G10G30
  21911720.602   -13058980.95449 -10147024.77645  21911719.892    21911725.456
       219.000         162.000
  20056296.524   -21634018.62749 -16838120.64447  20056296.305    20056302.581
       236.000         197.000
  19242761.111   -33512683.54949 -26077308.16347  19242760.424    19242766.593
       242.000         208.000
  18299768.080   -42351708.53749 -32974707.18948  18299768.134    18299773.293
       245.000         217.000
  20460057.686   -18498695.22349 -14396588.99846  20460057.627    20460063.082
       227.000         180.000
  22263968.376   -23643682.23749 -18403500.85245  22263969.165    22263973.337
       211.000         148.000
  21317034.355   -31684973.56049 -24662155.81546  21317035.084    21317039.686
       221.000         167.000
 98  1  3  8 18 29.9930000  0  7G22G23G17G 6G26G10G30
  21897666.665   -13132835.11249 -10204573.47445  21897666.881    21897672.594
       220.000         162.000
  20036081.808   -21740247.73749 -16920896.54047  20036081.569    20036087.610
       236.000         197.000
  19230390.098   -33577693.61949 -26127965.34347  19230389.548    19230395.547
       242.000         208.000
  18294531.245   -42379228.21249 -32996151.08748  18294531.120    18294536.560
       246.000         217.000
  20443684.781   -18584735.46249 -14463633.32946  20443684.971    20443690.571
       227.000         180.000
  22277051.665   -23574929.02449 -18349926.90845  22277051.328    22277056.417
       212.000         148.000
  21329813.414   -31617819.56449 -24609828.01346  21329813.827    21329819.197
       221.000         167.000
 98  1  3  8 18 59.9930000  0  7G22G23G17G 6G26G10G30
  21883707.860   -13206189.38249 -10261732.66545  21883706.985    21883713.394
       221.000         162.000
  20015936.620   -21846111.31249 -17003387.63447  20015935.726    20015942.647
       236.000         198.000
  19218057.609   -33642501.16549 -26178464.72147  19218057.106    19218063.007
       242.000         208.000
  18289387.399   -42406259.26349 -33017214.24148  18289387.371    18289392.591
       245.000         217.000
  20427395.847   -18670334.18849 -14530333.63246  20427396.018    20427401.623
       226.000         180.000
  22290158.380   -23506052.78749 -18296257.10545  22290157.355    22290163.051
       214.000         149.000
  21342614.378   -31550549.84949 -24557410.07346  21342614.455    21342619.525
       220.000         165.000
 98  1  3  8 19 29.9930000  0  7G22G23G17G 6G26G10G30
  21869848.457   -13279020.27349 -10318484.03045  21869846.950    21869854.075
       219.000         161.000
  19995860.224   -21951613.38549 -17085597.03247  19995859.644    19995866.135
       236.000         198.000
  19205766.780   -33707089.83749 -26228793.54547  19205766.095    19205772.184
       242.000         208.000
  18284339.854   -42432784.18649 -33037883.01548  18284339.765    18284345.299
       246.000         217.000
  20411193.412   -18755478.94349 -14596680.17646  20411193.585    20411199.046
       228.000         180.000
  22303290.195   -23437044.70649 -18242484.56345  22303289.884    22303295.638
       215.000         150.000
  21355443.805   -31483130.48949 -24504875.54146  21355444.673    21355449.419
       219.000         164.000
 98  1  3  8 19 59.9930000  0  7G22G23G17G 6G26G10G30
  21856082.492   -13351360.41849 -10374852.98345  21856082.519    21856088.747
       220.000         161.000
  19975844.227   -22056798.10049 -17167559.13447  19975843.821    19975849.966
       236.000         198.000
  19193509.411   -33771502.50449 -26278985.22747  19193508.780    19193514.813
       242.000         208.000
  18279378.557   -42458855.76049 -33058198.54248  18279378.410    18279383.763
       245.000         217.000
  20395070.055   -18840207.77749 -14662702.63146  20395070.566    20395076.017
       228.000         181.000
  22316438.753   -23367948.40849 -18188643.27045  22316438.331    22316444.485
       216.000         151.000
  21368296.797   -31415587.46549 -24452244.64646  21368297.615    21368301.779
       218.000         163.000
 98  1  3  8 20 29.9930000  0  7G22G23G17G 6G26G10G30
  21842407.883   -13423221.89049 -10430848.92245  21842407.486    21842412.759
       221.000         161.000
  19955887.913   -22161668.86749 -17249276.59247  19955887.177    19955893.846
       236.000         198.000
  19181282.503   -33835755.20749 -26329052.25247  19181281.865    19181288.098
       242.000         208.000
  18274504.097   -42484471.06349 -33078158.52348  18274503.844    18274509.371
       245.000         217.000
  20379026.085   -18924519.26349 -14728399.87746  20379026.004    20379031.567
       228.000         181.000
  22329600.295   -23298784.35249 -18134749.18345  22329599.610    22329606.462
       214.000         151.000
  21381173.023   -31347922.43549 -24399518.68245  21381173.492    21381179.706
       217.000         162.000
 98  1  3  8 20 59.9930000  0  7G22G23G17G 6G26G10G30
  21828829.859   -13494575.00849 -10486448.77645  21828829.226    21828835.142
       219.000         161.000
  19935998.223   -22266189.86949 -17330721.51547  19935997.896    19936003.873
       237.000         199.000
  19169090.160   -33899826.12849 -26378977.63847  19169089.725    19169095.645
       242.000         208.000
  18269722.531   -42509598.21749 -33097738.13548  18269722.724    18269727.979
       246.000         217.000
  20363068.035   -19008379.26549 -14793745.30546  20363067.871    20363073.991
       228.000         181.000
  22342775.285   -23229549.14149 -18080799.65745  22342774.679    22342780.474
       213.000         151.000
  21394076.590   -31280113.69149 -24346680.72046  21394077.039    21394082.982
       217.000         163.000
 98  1  3  8 21 29.9930000  0  7G22G23G17G 6G26G10G30
  21815349.186   -13565415.86849 -10541649.46745  21815348.668    21815354.124
       220.000         161.000
  19916179.897   -22370336.23049 -17411874.50147  19916179.456    19916185.603
       237.000         199.000
  19156934.916   -33963702.20049 -26428751.19047  19156934.100    19156940.371
       241.000         208.000
  18265033.400   -42534239.89749 -33116939.45348  18265033.490    18265038.701
       246.000         218.000
  20347200.095   -19091765.39749 -14858721.49346  20347200.456    20347206.155
       229.000         181.000
  22355965.255   -23160235.10349 -18026788.70445  22355964.498    22355971.184
       215.000         152.000
  21407005.956   -31212169.39649 -24293737.11846  21407006.428    21407011.295
       219.000         164.000
 98  1  3  8 21 59.9930000  0  7G22G23G17G 6G26G10G30
  21801959.473   -13635779.83249 -10596478.54445  21801958.948    21801964.874
       218.000         161.000
  19896431.214   -22474116.39449 -17492742.15747  19896430.778    19896436.921
       237.000         200.000
  19144810.557   -34027416.07549 -26478398.34047  19144809.774    19144816.080
       241.000         208.000
  18260430.374   -42558429.03549 -33135788.14448  18260430.477    18260435.862
       246.000         218.000
  20331418.192   -19174700.07549 -14923345.89446  20331419.171    20331424.650
       229.000         181.000
  22369164.042   -23090874.55449 -17972741.51645  22369162.681    22369169.887
       215.000         153.000
  21419952.361   -31144135.75149 -24240723.88046  21419952.965    21419957.847
       220.000         165.000
 98  1  3  8 22 29.9930000  0  7G22G23G17G 6G26G10G30
  21788661.972   -13705658.35549 -10650929.36045  21788661.893    21788667.883
       219.000         161.000
  19876751.671   -22577533.24949 -17573326.72147  19876751.441    19876757.397
       238.000         200.000
  19132719.524   -34090954.78749 -26527908.99247  19132718.784    19132725.106
       241.000         207.000
  18255916.165   -42582151.47549 -33154273.17748  18255916.352    18255921.703
       246.000         218.000
  20315722.329   -19257182.70849 -14987618.05546  20315722.218    20315727.933
       228.000         181.000
  22382370.705   -23021473.37549 -17918662.66645  22382370.158    22382376.798
       215.000         152.000
  21432913.654   -31076024.06549 -24187649.85246  21432913.982    21432920.057
       219.000         165.000
 98  1  3  8 22 59.9930000  0  7G22G23G17G 6G26G10G30
  21775458.863   -13775041.58149 -10704994.24145  21775458.074    21775464.070
       219.000         161.000
  19857142.695   -22680579.30949 -17653622.35247  19857142.226    19857148.467
       238.000         201.000
  19120666.996   -34154291.11449 -26577261.94247  19120666.228    19120672.575
       242.000         207.000
  18251489.340   -42605414.82149 -33172400.47448  18251489.407    18251494.695
       246.000         218.000
  20300114.191   -19339203.61549 -15051530.43746  20300114.813    20300119.787
       229.000         181.000
  22395586.352   -22952024.77649 -17864546.86345  22395585.069    22395591.436
       212.000         152.000
  21445888.888   -31007838.84849 -24134518.52446  21445889.000    21445894.698
       219.000         165.000
 98  1  3  8 23 29.9930000  0  7G22G23G17G 6G26G10G30
  21762351.596   -13843920.98449 -10758666.52845  21762350.878    21762357.467
       218.000         160.000
  19837607.169   -22783239.19749 -17733617.07147  19837606.461    19837612.537
       238.000         201.000
  19108653.813   -34217420.64049 -26626453.76647  19108653.335    19108659.342
       241.000         208.000
  18247153.057   -42628202.23549 -33190156.90448  18247153.089    18247158.369
       246.000         218.000
  20284596.435   -19420749.90349 -15115072.99546  20284596.986    20284602.037
       228.000         181.000
  22408814.867   -22882507.62449 -17810377.65345  22408814.311    22408820.648
       211.000         150.000
  21458881.493   -30939562.20049 -24081315.94746  21458881.855    21458886.749
       218.000         165.000
 98  1  3  8 23 59.9930000  0  7G22G23G17G 6G26G10G30
  21749336.763   -13912314.25549 -10811960.01345  21749336.078    21749343.162
       219.000         160.000
  19818136.586   -22885557.40449 -17813345.52347  19818135.960    19818142.249
       238.000         201.000
  19096675.336   -34280368.22749 -26675503.83047  19096674.827    19096680.785
       241.000         208.000
  18242903.890   -42650531.90549 -33207556.63548  18242903.830    18242909.302
       246.000         218.000
  20269163.786   -19501848.80049 -15178266.92546  20269163.910    20269169.764
       228.000         181.000
  22422049.455   -22812958.98049 -17756183.90645  22422048.019    22422055.655
       210.000         151.000
  21471883.670   -30871235.15349 -24028074.06846  21471884.064    21471889.312
       218.000         164.000
 98  1  3  8 24 29.9930000  0  7G22G23G17G 6G26G10G30
  21736418.462   -13980200.33749 -10864858.28845  21736417.601    21736424.231
       217.000         160.000
  19798733.170   -22987522.97349 -17892799.21447  19798732.703    19798738.867
       238.000         201.000
  19084737.858   -34343099.99649 -26724385.73947  19084737.181    19084743.118
       241.000         208.000
  18238748.134   -42672370.52649 -33224573.72248  18238748.047    18238753.262
       246.000         218.000
  20253821.978   -19582470.39449 -15241088.92946  20253822.091    20253827.345
       228.000         181.000
  22435295.833   -22743348.93749 -17701942.32145  22435295.398    22435302.093
       210.000         151.000
  21484898.778   -30802840.40449 -23974779.42446  21484898.924    21484904.409
       218.000         164.000
 98  1  3  8 24 59.9930000  0  7G22G23G17G 6G26G10G30
  21723592.792   -14047599.50449 -10917377.14745  21723591.850    21723598.608
       217.000         159.000
  19779396.545   -23089137.48249 -17971979.34747  19779396.209    19779402.612
       238.000         201.000
  19072835.683   -34405646.54049 -26773123.31047  19072835.091    19072841.274
       241.000         208.000
  18234684.076   -42693727.30549 -33241215.35448  18234684.121    18234689.426
       246.000         218.000
  20238569.854   -19662620.82549 -15303543.79246  20238570.209    20238575.578
       229.000         181.000
  22448554.154   -22673675.69649 -17647651.49445  22448552.670    22448558.956
       208.000         149.000
  21497924.587   -30734389.52649 -23921441.05646  21497924.996    21497930.039
       220.000         164.000
 98  1  3  8 25 29.9930000  0  8G22G21G23G17G 6G26G10G30
  21710861.602   -14114502.12349 -10969509.06845  21710861.164    21710867.516
       218.000         159.000
  22980574.605    -2033279.49458  -1257947.07245  22980572.850    22980581.816
       192.000         134.000
  19760128.919   -23190389.78349 -18050877.24247  19760128.428    19760134.901
       238.000         202.000
  19060968.469   -34468009.07849 -26821717.48247  19060967.687    19060973.930
       241.000         208.000
  18230715.842   -42714580.45549 -33257464.55448  18230715.828    18230721.076
       246.000         218.000
  20223408.099   -19742296.17449 -15365628.46146  20223407.786    20223413.157
       229.000         181.000
  22461826.815   -22603927.59949 -17593302.34145  22461825.981    22461833.133
       208.000         146.000
  21510962.622   -30665874.31149 -23868052.56446  21510962.610    21510967.543
       220.000         164.000
 98  1  3  8 25 59.9930000  0  8G22G21G23G17G 6G26G10G30
  21698232.652   -14180867.53749 -11021222.41245  21698232.106    21698239.669
       216.000         159.000
  22955963.010    -2162614.36149  -1358727.47145  22955962.438    22955970.389
       200.000         139.000
  19740936.371   -23291247.19249 -18129467.43347  19740936.224    19740942.219
       239.000         202.000
  19049144.582   -34530143.85649 -26870134.16547  19049144.202    19049149.986
       241.000         208.000
  18226849.481   -42734898.15649 -33273296.52048  18226849.405    18226854.681
       246.000         218.000
  20208343.412   -19821461.57649 -15427315.77446  20208343.635    20208349.490
       229.000         182.000
  22475118.738   -22534078.32149 -17538874.32745  22475117.640    22475125.088
       209.000         145.000
  21524019.179   -30597261.21249 -23814587.80246  21524019.621    21524024.077
       219.000         164.000
 98  1  3  8 26 29.9930000  0  8G22G21G23G17G 6G26G10G30
  21685700.358   -14246724.99249 -11072539.93045  21685699.852    21685706.109
       217.000         158.000
  22931378.172    -2291808.08649  -1459397.90545  22931377.748    22931384.968
       206.000         142.000
  19721818.480   -23391712.49549 -18207752.09247  19721818.219    19721824.347
       239.000         202.000
  19037357.313   -34592086.48349 -26918401.11447  19037356.722    19037362.693
       242.000         208.000
  18223081.815   -42754697.35449 -33288724.46448  18223081.763    18223087.145
       246.000         218.000
  20193371.517   -19900139.27049 -15488623.04846  20193371.790    20193377.065
       228.000         182.000
  22488425.800   -22464149.77349 -17484384.56445  22488425.157    22488430.632
       208.000         144.000
  21537095.098   -30528546.53549 -23761043.89346  21537095.579    21537100.574
       219.000         163.000
 98  1  3  8 26 59.9930000  0  8G22G21G23G17G 6G26G10G30
  21673261.825   -14312090.57549 -11123474.15645  21673261.643    21673268.838
       217.000         158.000
  22906815.526    -2420886.65149  -1559978.63345  22906816.201    22906821.740
       207.000         144.000
  19702771.905   -23491802.91049 -18285744.65247  19702771.325    19702777.494
       238.000         202.000
  19025599.741   -34653872.74149 -26966546.22247  19025599.252    19025605.081
       242.000         208.000
  18219408.446   -42774000.91549 -33303766.20048  18219408.436    18219413.678
       246.000         218.000
  20178489.332   -19978345.50149 -15549562.95546  20178490.062    20178494.865
       230.000         181.000
  22501740.410   -22394180.84449 -17429863.31145  22501740.259    22501745.492
       209.000         143.000
  21550187.598   -30459745.24149 -23707432.45846  21550187.486    21550192.747
       218.000         163.000
 98  1  3  8 27 29.9930000  0  8G22G21G23G17G 6G26G10G30
  21660919.990   -14376947.25649 -11174011.85145  21660919.487    21660925.848
       217.000         158.000
  22882276.724    -2549839.43649  -1660461.35945  22882277.349    22882283.476
       210.000         142.000
  19683798.463   -23591508.78049 -18363437.54447  19683797.790    19683804.475
       239.000         202.000
  19013878.238   -34715469.64649 -27014543.77747  19013877.517    19013883.683
       242.000         208.000
  18215831.821   -42792796.32649 -33318411.96948  18215831.762    18215837.148
       246.000         218.000
  20163701.847   -20056054.25749 -15610115.21746  20163702.229    20163707.084
       230.000         182.000
  22515063.598   -22324167.34549 -17375307.33145  22515062.167    22515069.153
       209.000         143.000
  21563297.961   -30390849.65749 -23653747.56745  21563298.549    21563303.264
       217.000         162.000
 98  1  3  8 27 59.9930000  0  8G22G21G23G17G 6G26G10G30
  21648671.790   -14441312.38549 -11224166.51045  21648671.557    21648676.478
       217.000         158.000
  22857758.955    -2678681.95649  -1760858.17745  22857759.842    22857765.005
       210.000         141.000
  19664892.530   -23690859.88649 -18440854.01747  19664892.368    19664898.353
       239.000         203.000
  19002188.540   -34776899.37849 -27062411.06447  19002187.889    19002193.914
       242.000         208.000
  18212346.020   -42811114.40349 -33332685.80948  18212345.955    18212351.212
       246.000         218.000
  20149008.055   -20133270.69249 -15670283.85946  20149008.082    20149014.023
       229.000         182.000
  22528391.541   -22254128.51849 -17320731.60645  22528391.629    22528395.705
       209.000         143.000
  21576421.226   -30321886.57249 -23600010.10245  21576421.184    21576426.930
       217.000         161.000
 98  1  3  8 28 29.9930000  0  8G22G21G23G17G 6G26G10G30
  21636516.192   -14505190.27849 -11273941.48145  21636515.212    21636521.526
       216.000         157.000
  22833261.491    -2807418.49649  -1861172.43145  22833262.032    22833267.607
       211.000         140.000
  19646054.543   -23789854.44549 -18517992.66347  19646054.250    19646060.468
       239.000         203.000
  18990528.375   -34838173.66149 -27110157.23147  18990527.731    18990533.743
       241.000         208.000
  18208949.976   -42828960.85149 -33346592.16048  18208949.996    18208955.317
       245.000         218.000
  20134407.833   -20209995.29549 -15730069.25546  20134408.309    20134413.991
       229.000         183.000
  22541724.737   -22184062.68349 -17266134.86145  22541724.029    22541729.666
       211.000         143.000
  21589553.755   -30252874.81849 -23546234.68045  21589554.642    21589559.229
       220.000         160.000
 98  1  3  8 28 59.9930000  0  8G22G21G23G17G 6G26G10G30
  21624454.949   -14568572.53249 -11323330.27545  21624454.502    21624461.173
       218.000         158.000
  22808783.252    -2936053.53749  -1961407.61945  22808783.648    22808789.009
       212.000         140.000
  19627282.475   -23888502.42649 -18594861.21347  19627282.055    19627288.330
       238.000         203.000
  18978897.211   -34899295.60749 -27157784.71547  18978896.653    18978902.672
       242.000         209.000
  18205641.952   -42846344.70949 -33360138.05248  18205641.876    18205647.218
       245.000         218.000
  20119902.668   -20286220.76249 -15789465.71246  20119903.091    20119908.121
       230.000         183.000
  22555061.565   -22113978.40549 -17211523.73445  22555061.526    22555065.889
       214.000         143.000
  21602690.555   -30183840.54849 -23492441.73245  21602690.948    21602696.243
       218.000         159.000
 98  1  3  8 29 29.9930000  0  8G22G21G23G17G 6G26G10G30
  21612484.588   -14631478.12649 -11372347.61345  21612483.249    21612490.027
       216.000         158.000
  22784320.460    -3064606.89349  -2061579.13445  22784320.283    22784326.219
       211.000         140.000
  19608574.328   -23986814.40849 -18671467.93447  19608573.957    19608580.399
       239.000         203.000
  18967291.455   -34960284.14149 -27205308.25147  18967290.848    18967296.959
       242.000         209.000
  18202418.374   -42863284.74549 -33373338.08448  18202418.208    18202423.537
       246.000         218.000
  20105486.707   -20361976.97949 -15848496.51346  20105487.061    20105492.663
       229.000         183.000
  22568397.811   -22043897.01249 -17156914.83245  22568396.114    22568402.556
       214.000         145.000
  21615827.247   -30114806.70149 -23438649.11845  21615828.094    21615832.968
       219.000         159.000
 98  1  3  8 29 59.9930000  0  8G22G21G23G17G 6G26G10G30
  21600616.663   -14693843.40949 -11420943.95045  21600616.474    21600622.483
       215.000         157.000
  22759882.700    -3193028.36949  -2161647.86745  22759882.101    22759888.727
       212.000         140.000
  19589942.318   -24084726.26749 -18747762.89547  19589941.975    19589948.172
       239.000         204.000
  18955719.391   -35021095.70349 -27252693.88547  18955718.949    18955725.094
       242.000         209.000
  18199291.399   -42879716.89349 -33386142.37548  18199291.343    18199296.750
       246.000         217.000
  20091168.336   -20437220.63849 -15907127.91746  20091168.344    20091174.210
       230.000         183.000
  22581740.621   -21973780.03649 -17102278.21045  22581739.967    22581746.036
       215.000         146.000
  21628975.307   -30045713.48449 -23384810.19545  21628975.252    21628981.411
       215.000         157.000
 98  1  3  8 30 29.9930000  0  8G22G21G23G17G 6G26G10G30
  21588845.958   -14755699.37649 -11469143.40945  21588845.034    21588852.170
       217.000         158.000
  22735464.360    -3321347.34249  -2261636.74545  22735463.406    22735469.744
       210.000         142.000
  19571384.138   -24182250.08449 -18823755.48147  19571383.743    19571390.187
       239.000         204.000
  18944177.305   -35081749.84949 -27299956.85747  18944176.490    18944182.925
       242.000         209.000
  18196259.333   -42895650.51949 -33398558.21248  18196259.212    18196264.694
       245.000         217.000
  20076942.186   -20511979.48149 -15965381.55046  20076942.502    20076947.273
       229.000         184.000
  22595083.459   -21903662.76049 -17047641.35245  22595082.260    22595087.858
       214.000         147.000
  21642131.234   -29976578.43749 -23330938.69545  21642131.374    21642137.373
       216.000         156.000
 98  1  3  8 30 59.9930000  0  8G22G21G23G17G 6G26G10G30
  21577178.857   -14817010.52749 -11516918.34045  21577177.441    21577184.672
       216.000         159.000
  22711075.530    -3449510.99549  -2361504.59345  22711075.380    22711081.713
       209.000         142.000
  19552906.115   -24279352.62249 -18899419.81247  19552905.795    19552911.954
       239.000         204.000
  18932675.757   -35142190.80649 -27347053.70447  18932675.342    18932681.349
       242.000         209.000
  18193329.257   -42911048.28249 -33410556.49448  18193329.340    18193334.799
       245.000         217.000
  20062815.070   -20586217.84049 -16023229.60846  20062815.322    20062820.483
       229.000         184.000
  22608432.230   -21833514.60549 -16992980.44345  22608431.329    22608436.918
       215.000         147.000
  21655303.275   -29907358.24949 -23277000.87645  21655303.955    21655308.581
       215.000         154.000
 98  1  3  8 31 29.9930000  0  8G22G21G23G17G 6G26G10G30
  21565609.693   -14877806.59349 -11564291.89545  21565609.020    21565615.965
       217.000         159.000
  22686711.927    -3577542.08049  -2461269.14545  22686711.277    22686718.857
       210.000         139.000
  19534501.741   -24376068.21149 -18974782.61047  19534501.296    19534507.515
       239.000         204.000
  18921212.196   -35202432.13449 -27393994.99547  18921211.728    18921217.693
       242.000         209.000
  18190494.465   -42925945.45149 -33422164.68648  18190494.413    18190499.588
       246.000         217.000
  20048779.427   -20659975.83349 -16080703.36646  20048779.519    20048785.077
       231.000         184.000
  22621784.348   -21763348.10749 -16938305.24045  22621783.305    22621789.775
       212.000         147.000
  21668485.019   -29838087.28349 -23223023.47645  21668485.799    21668490.138
       215.000         153.000
 98  1  3  8 31 59.9930000  0  8G22G21G23G17G 6G26G10G30
  21554136.609   -14938097.98549 -11611272.21045  21554136.172    21554142.994
       217.000         161.000
  22662373.837    -3705439.43649  -2560929.47945  22662374.215    22662379.679
       208.000         135.000
  19516167.439   -24472415.59149 -19049858.48747  19516167.009    19516173.575
       240.000         204.000
  18909786.337   -35262475.54049 -27440782.05947  18909785.708    18909791.907
       242.000         209.000
  18187748.879   -42940373.45749 -33433407.29348  18187748.644    18187754.180
       245.000         217.000
  20034834.611   -20733255.90749 -16137804.71046  20034834.882    20034839.831
       229.000         184.000
  22635139.912   -21693162.50449 -16883615.15045  22635138.999    22635146.008
       208.000         146.000
  21681671.655   -29768790.82649 -23169026.21745  21681672.411    21681677.140
       214.000         152.000
 98  1  3  8 32 29.9930000  0  7G22G21G23G17G 6G26G30
  21542766.171   -14997850.72349 -11657832.78745  21542765.854    21542771.229
       218.000         161.000
  22638069.695    -3833159.08049  -2660451.33345  22638069.980    22638075.141
       203.000         134.000
  19497906.953   -24568375.32849 -19124632.35247  19497906.590    19497913.042
       239.000         205.000
  18898404.977   -35322285.06149 -27487386.88247  18898404.447    18898410.422
       242.000         210.000
  18185096.737   -42954310.59849 -33444267.41648  18185096.739    18185102.220
       245.000         217.000
  20020988.868   -20806015.77249 -16194500.69646  20020989.058    20020994.048
       230.000         184.000
  21694866.275   -29699452.49249 -23114996.31845  21694866.157    21694871.105
       216.000         151.000
 98  1  3  8 32 59.9920000  0  7G22G21G23G17G 6G26G30
  21531505.395   -15057026.15549 -11703943.51845  21531504.180    21531510.995
       217.000         161.000
  22613806.772    -3960661.62849  -2759803.97845  22613807.237    22613813.765
       203.000         138.000
  19479723.086   -24663932.25149 -19199092.35747  19479722.799    19479728.930
       240.000         205.000
  18887071.682   -35381841.96049 -27533794.84947  18887070.943    18887077.062
       243.000         210.000
  18182540.541   -42967743.47849 -33454734.59348  18182540.499    18182545.719
       245.000         217.000
  20007247.113   -20878229.28449 -16250770.95846  20007247.201    20007253.216
       230.000         185.000
  21708070.215   -29630065.15949 -23060928.25345  21708071.235    21708076.207
       217.000         152.000
 98  1  3  8 33 29.9920000  0  7G22G21G23G17G 6G26G30
  21520342.417   -15115687.80049 -11749653.90746  21520342.007    21520348.736
       218.000         163.000
  22589572.054    -4088016.82049  -2859041.80945  22589572.524    22589578.819
       205.000         141.000
  19461606.136   -24759137.62449 -19273278.41547  19461605.951    19461612.005
       240.000         205.000
  18875772.879   -35441217.61449 -27580061.59047  18875772.275    18875778.266
       243.000         210.000
  18180070.479   -42980723.80349 -33464849.13048  18180070.449    18180075.811
       245.000         217.000
  19993599.863   -20949945.95149 -16306654.05646  19993599.899    19993605.192
       230.000         185.000
  21721274.938   -29560673.63049 -23006856.90145  21721274.754    21721280.700
       215.000         153.000
 98  1  3  8 33 59.9920000  0  7G22G21G23G17G 6G26G30
  21509274.016   -15173852.68649 -11794977.19346  21509273.400    21509280.084
       218.000         163.000
  22565364.465    -4215229.23949  -2958168.37745  22565363.804    22565371.005
       209.000         144.000
  19443557.625   -24853983.26549 -19347184.14147  19443557.335    19443563.758
       240.000         205.000
  18864508.711   -35500411.14649 -27626186.41647  18864508.173    18864514.247
       243.000         210.000
  18177687.833   -42993244.86349 -33474605.80448  18177687.729    18177693.265
       245.000         217.000
  19980048.516   -21021158.91049 -16362144.67746  19980048.590    19980054.483
       231.000         186.000
  21734481.679   -29491271.71249 -22952777.47945  21734481.482    21734487.282
       218.000         154.000
 98  1  3  8 34 29.9920000  0  7G22G21G23G17G 6G26G30
  21498298.688   -15231528.49049 -11839919.38246  21498298.298    21498304.934
       218.000         164.000
  22541180.819    -4342314.68949  -3057196.04545  22541180.296    22541186.984
       212.000         149.000
  19425578.376   -24948464.99249 -19420806.29647  19425578.242    19425584.426
       240.000         206.000
  18853279.170   -35559422.89249 -27672169.58947  18853278.697    18853284.739
       244.000         210.000
  18175398.002   -43005277.95149 -33483982.24548  18175397.944    18175403.178
       245.000         217.000
  19966593.203   -21091867.07449 -16417241.94046  19966593.755    19966598.895
       231.000         187.000
  21747691.985   -29421850.76749 -22898683.27645  21747691.656    21747697.422
       216.000         154.000
 98  1  3  8 34 59.9920000  0  7G22G21G23G17G 6G26G30
  21487416.151   -15288716.10049 -11884481.15846  21487415.052    21487422.363
       219.000         164.000
  22517021.433    -4469273.56949  -3156125.08145  22517021.041    22517027.761
       213.000         150.000
  19407673.483   -25042556.08849 -19494124.06847  19407673.227    19407679.412
       240.000         206.000
  18842086.718   -35618239.65449 -27718000.82847  18842086.245    18842092.174
       244.000         210.000
  18173204.500   -43016804.91349 -33492964.29248  18173204.542    18173210.028
       245.000         217.000
  19953236.742   -21162055.64449 -16471934.31446  19953236.832    19953242.581
       231.000         187.000
  21760909.997   -29352390.21149 -22844558.21345  21760910.915    21760915.528
       217.000         155.000
 98  1  3  8 35 29.9920000  0  7G22G21G23G17G 6G26G30
  21476621.674   -15345441.25449 -11928682.57446  21476622.014    21476627.785
       220.000         164.000
  22492878.456    -4596145.93349  -3254986.69245  22492877.585    22492884.632
       212.000         150.000
  19389840.713   -25136267.91749 -19567146.29547  19389840.493    19389846.745
       241.000         206.000
  18830928.523   -35676876.29249 -27763691.70747  18830927.910    18830934.120
       243.000         210.000
  18171103.190   -43027847.26449 -33501568.72948  18171103.357    18171108.563
       245.000         217.000
  19939976.667   -21231737.94749 -16526232.20446  19939976.741    19939982.145
       230.000         187.000
  21774129.981   -29282919.09249 -22790424.92045  21774130.503    21774135.947
       217.000         156.000
 98  1  3  8 35 59.9920000  0  7G22G21G23G17G 6G26G30
  21465922.227   -15401667.49249 -11972495.24146  21465921.582    21465928.221
       219.000         165.000
  22468754.280    -4722919.10449  -3353770.98645  22468753.765    22468760.678
       213.000         150.000
  19372082.055   -25229590.53349 -19639865.22447  19372081.777    19372088.296
       240.000         206.000
  18819807.133   -35735319.44749 -27809231.81947  18819806.569    18819812.580
       244.000         211.000
  18169098.524   -43038382.01349 -33509777.62248  18169098.495    18169103.947
       245.000         216.000
  19926815.458   -21300900.41349 -16580125.02646  19926815.822    19926821.361
       231.000         187.000
  21787351.165   -29213441.66249 -22736286.67945  21787351.620    21787356.754
       218.000         156.000
 98  1  3  8 36 29.9920000  0  7G22G21G23G17G 6G26G30
  21455320.297   -15457381.21049 -12015908.53946  21455320.471    21455325.599
       220.000         165.000
  22444648.496    -4849596.02449  -3452480.28245  22444648.233    22444654.570
       215.000         151.000
  19354395.621   -25322533.46449 -19712288.29447  19354395.221    19354401.529
       241.000         206.000
  18808717.197   -35793597.76249 -27854643.49747  18808716.586    18808722.538
       244.000         211.000
  18167189.918   -43048411.92349 -33517593.13248  18167189.896    18167195.385
       245.000         216.000
  19913752.859   -21369544.77049 -16633614.12746  19913753.206    19913758.561
       231.000         187.000
  21800570.530   -29143973.86949 -22682155.90145  21800571.239    21800575.508
       219.000         157.000
 98  1  3  8 36 59.9920000  0  7G22G21G23G17G 6G26G30
  21444823.457   -15512543.20249 -12058891.91146  21444822.338    21444829.272
       220.000         166.000
  22420567.645    -4976141.75349  -3551087.38345  22420567.644    22420573.382
       214.000         149.000
  19336786.917   -25415067.85049 -19784393.02447  19336786.731    19336792.835
       241.000         206.000
  18797661.780   -35851694.39949 -27899913.60647  18797661.140    18797667.234
       244.000         211.000
  18165378.781   -43057929.39949 -33525009.35248  18165378.730    18165384.199
       245.000         216.000
  19900794.658   -21437640.79049 -16686675.95746  19900794.467    19900800.104
       232.000         187.000
  21813789.338   -29074508.91649 -22628027.32445  21813789.538    21813793.963
       221.000         158.000
 98  1  3  8 37 29.9920000  0  7G22G21G23G17G 6G26G30
  21434433.428   -15567143.15749 -12101437.34546  21434432.581    21434439.640
       220.000         166.000
  22396515.361    -5102537.36749  -3649577.50045  22396514.666    22396521.265
       214.000         147.000
  19319255.339   -25507197.06649 -19856182.03147  19319254.778    19319261.372
       241.000         207.000
  18786639.759   -35909615.23249 -27945046.72647  18786639.240    18786645.375
       244.000         211.000
  18163663.137   -43066945.26449 -33532034.72048  18163663.138    18163668.589
       245.000         216.000
  19887939.851   -21505193.06249 -16739314.08547  19887939.996    19887945.226
       232.000         188.000
  21827007.161   -29005049.42749 -22573903.01545  21827007.447    21827011.411
       220.000         158.000
 98  1  3  8 37 59.9920000  0  7G22G21G23G17G 6G26G30
  21424144.073   -15621214.66549 -12143570.99046  21424143.254    21424148.468
       220.000         166.000
  22372489.249    -5228795.58449  -3747960.56645  22372488.968    22372495.869
       214.000         146.000
  19301794.984   -25598952.04749 -19927679.42847  19301794.536    19301800.887
       242.000         207.000
  18775644.347   -35967396.47849 -27990071.07247  18775643.662    18775649.846
       243.000         211.000
  18162039.063   -43075479.87849 -33538685.09248  18162039.012    18162044.376
       245.000         216.000
  19875183.052   -21572230.65649 -16791551.16547  19875183.107    19875188.805
       232.000         188.000
  21840220.045   -28935614.93049 -22519798.14945  21840220.530    21840224.564
       217.000         158.000
 98  1  3  8 38 29.9920000  0  7G22G21G23G17G 6G26G30
  21413955.227   -15674757.09449 -12185292.35846  21413954.238    21413961.278
       220.000         166.000
  22348494.848    -5354887.85249  -3846214.32145  22348494.869    22348500.823
       215.000         145.000
  19284410.215   -25690309.68349 -19998867.19647  19284409.811    19284416.062
       241.000         207.000
  18764679.613   -36025016.33749 -28034969.65847  18764678.813    18764685.025
       243.000         210.000
  18160509.680   -43083516.88249 -33544947.70248  18160509.651    18160515.026
       245.000         216.000
  19862529.635   -21638724.78049 -16843364.75947  19862530.067    19862535.843
       231.000         188.000
  21853433.120   -28866179.23149 -22465692.38045  21853432.444    21853437.943
       214.000         155.000
 98  1  3  8 38 59.9920000  0  7G22G21G23G17G 6G26G30
  21403861.399   -15727800.69649 -12226625.03446  21403860.736    21403867.590
       220.000         167.000
  22324531.434    -5480816.74549  -3944340.77445  22324531.528    22324536.886
       209.000         142.000
  19267098.977   -25781280.99449 -20069753.94547  19267098.475    19267104.675
       241.000         207.000
  18753745.089   -36082477.41149 -28079744.52347  18753744.663    18753750.552
       244.000         210.000
  18159072.587   -43091068.93049 -33550832.43048  18159072.776    18159078.004
       246.000         217.000
  19849975.975   -21704694.24849 -16894769.52547  19849976.197    19849981.286
       232.000         188.000
  21866643.402   -28796758.10249 -22411597.98845  21866642.828    21866649.003
       214.000         154.000
 98  1  3  8 39 29.9920000  0  7G22G21G23G17G 6G26G30
  21393863.841   -15780338.12449 -12267563.29546  21393863.826    21393869.279
       221.000         167.000
  22300603.275    -5606560.26849  -4042322.73245  22300601.045    22300610.653
       205.000         138.000
  19249864.078   -25871851.08249 -20140328.04347  19249863.767    19249870.021
       241.000         207.000
  18742846.598   -36139749.39149 -28124372.03547  18742845.948    18742852.120
       243.000         210.000
  18157734.642   -43098099.90549 -33556311.12148  18157734.562    18157740.126
       246.000         217.000
  19837526.756   -21770115.36549 -16945747.01346  19837526.626    19837532.327
       231.000         187.000
  21879858.569   -28727311.55149 -22357483.78845  21879858.849    21879863.834
       214.000         153.000
 98  1  3  8 39 59.9920000  0  7G22G21G23G17G 6G26G30
  21383958.158   -15832393.03749 -12308125.56246  21383957.184    21383963.971
       220.000         168.000
  22276704.938    -5732145.77449  -4140181.52345  22276704.498    22276711.415
       203.000         137.000
  19232703.272   -25962031.68649 -20210598.64447  19232702.957    19232709.389
       241.000         208.000
  18731981.921   -36196843.70149 -28168861.10347  18731981.499    18731987.510
       243.000         210.000
  18156495.256   -43104612.98449 -33561386.25648  18156495.190    18156500.639
       245.000         217.000
  19825180.790   -21834993.52149 -16996301.40947  19825180.963    19825186.212
       231.000         188.000
  21893074.078   -28657863.78649 -22303368.64445  21893074.600    21893079.607
       211.000         154.000
 98  1  3  8 40 29.9920000  0  7G22G21G23G17G 6G26G30
  21374142.568   -15883973.72549 -12348318.30446  21374141.949    21374148.568
       219.000         168.000
  22252834.747    -5857583.61049  -4237925.31745  22252834.783    22252840.544
       202.000         139.000
  19215614.997   -26051831.19649 -20280572.28347  19215614.487    19215620.752
       241.000         208.000
  18721151.832   -36253756.25449 -28213208.54747  18721151.407    18721157.209
       243.000         210.000
  18155350.259   -43110629.87549 -33566074.74648  18155350.103    18155355.562
       245.000         216.000
  19812937.274   -21899333.49249 -17046436.43947  19812937.169    19812942.855
       232.000         188.000
  21906285.924   -28588435.41849 -22249268.67545  21906286.873    21906291.051
       213.000         154.000
 98  1  3  8 40 59.9920000  0  7G22G21G23G17G 6G26G30
  21364420.323   -15935064.43649 -12388129.23546  21364419.470    21364425.101
       220.000         168.000
  22228991.320    -5982880.91649  -4335559.58445  22228990.670    22228997.480
       204.000         142.000
  19198599.429   -26141248.53049 -20350248.13947  19198598.837    19198605.538
       241.000         208.000
  18710356.355   -36310486.89949 -28257414.24147  18710355.640    18710361.822
       243.000         210.000
  18154297.039   -43116164.53449 -33570387.47648  18154297.172    18154302.351
       246.000         216.000
  19800795.207   -21963140.63349 -17096156.28146  19800795.365    19800800.872
       231.000         187.000
  21919493.375   -28519030.30649 -22195186.80245  21919493.960    21919498.329
       211.000         155.000
 98  1  3  8 41 29.9920000  0  7G22G21G23G17G 6G26G30
  21354800.579   -15985616.10349 -12427520.14046  21354800.689    21354807.038
       221.000         169.000
  22205178.300    -6108019.11649  -4433069.85645  22205177.765    22205185.290
       210.000         145.000
  19181663.067   -26230249.84349 -20419599.81347  19181662.781    19181669.153
       242.000         208.000
  18699602.725   -36366997.64549 -28301448.58647  18699602.115    18699608.039
       243.000         210.000
  18153339.526   -43121196.56749 -33574308.54748  18153339.634    18153344.964
       245.000         216.000
  19788762.367   -22026373.34549 -17145428.51446  19788762.175    19788767.845
       230.000         187.000
  21932702.843   -28449614.10249 -22141096.23145  21932702.636    21932708.118
       210.000         155.000
 98  1  3  8 41 59.9920000  0  7G22G21G23G17G 6G26G30
  21345280.486   -16035644.36749 -12466503.18646  21345279.490    21345286.068
       220.000         169.000
  22181393.785    -6233007.68949  -4530463.51045  22181393.611    22181400.330
       211.000         149.000
  19164802.553   -26318852.29449 -20488640.66547  19164802.064    19164808.495
       242.000         208.000
  18688886.584   -36423311.34949 -28345329.38447  18688886.033    18688891.939
       243.000         210.000
  18152471.921   -43125755.83149 -33577861.22648  18152471.855    18152477.222
       245.000         216.000
  19776833.624   -22089059.19849 -17194274.61846  19776833.703    19776839.418
       230.000         187.000
  21945908.889   -28380215.26849 -22087019.22945  21945909.153    21945913.594
       211.000         155.000
 98  1  3  8 42 29.9920000  0  7G22G21G23G17G 6G26G30
  21335862.751   -16085134.65949 -12505067.03046  21335861.630    21335868.607
       221.000         169.000
  22157638.478    -6357843.32149  -4627738.01945  22157638.716    22157645.164
       210.000         152.000
  19148016.231   -26407064.75449 -20557377.61147  19148015.874    19148022.197
       242.000         208.000
  18678208.828   -36479423.24849 -28389052.93447  18678208.265    18678214.228
       244.000         210.000
  18151694.750   -43129839.87149 -33581043.61448  18151694.763    18151700.202
       245.000         216.000
  19765007.483   -22151206.00049 -17242700.69046  19765007.580    19765012.883
       231.000         187.000
  21959113.426   -28310824.49649 -22032948.48545  21959113.662    21959118.230
       210.000         153.000
 98  1  3  8 42 59.9920000  0  7G22G21G23G17G 6G26G30
  21326548.817   -16134080.11149 -12543206.32846  21326548.038    21326555.366
       221.000         169.000
  22133914.304    -6482515.00249  -4724884.76145  22133914.070    22133921.192
       211.000         154.000
  19131304.295   -26494886.62349 -20625810.19347  19131303.854    19131310.275
       242.000         209.000
  18667570.917   -36535325.52049 -28432613.13847  18667570.310    18667576.505
       243.000         210.000
  18151010.952   -43133433.36449 -33583843.75648  18151010.967    18151016.489
       245.000         216.000
  19753283.425   -22212816.54349 -17290708.89546  19753283.626    19753288.811
       231.000         187.000
  21972318.747   -28241429.80249 -21978874.69945  21972318.051    21972324.890
       211.000         153.000
 98  1  3  8 43 29.9920000  0  7G22G21G23G17G 6G26G30
  21317331.966   -16182514.89149 -12580947.70746  21317331.069    21317337.556
       221.000         169.000
  22110220.292    -6607028.06549  -4821907.89745  22110219.973    22110226.441
       211.000         154.000
  19114662.493   -26582339.82549 -20693955.50047  19114661.985    19114668.376
       241.000         209.000
  18656971.533   -36591025.72049 -28476015.89347  18656970.938    18656977.015
       243.000         210.000
  18150419.857   -43136539.66249 -33586264.26348  18150419.866    18150425.384
       245.000         216.000
  19741660.372   -22273896.33949 -17338303.53346  19741660.193    19741666.317
       231.000         187.000
  21985520.727   -28172052.59449 -21924814.57945  21985520.731    21985525.796
       209.000         151.000
 98  1  3  8 43 59.9920000  0  7G22G21G23G17G 6G26G30
  21308211.267   -16230444.65749 -12618295.56446  21308210.513    21308217.086
       222.000         169.000
  22086556.913    -6731379.96549  -4918805.43045  22086556.995    22086563.370
       212.000         155.000
  19098090.905   -26669423.97349 -20761813.23747  19098090.297    19098096.573
       242.000         208.000
  18646409.040   -36646532.00249 -28519267.54247  18646408.620    18646414.594
       243.000         210.000
  18149923.442   -43139148.28049 -33588296.96648  18149923.350    18149928.714
       245.000         216.000
  19730137.379   -22334450.08049 -17385488.25046  19730137.100    19730142.334
       231.000         187.000
  21998714.358   -28102718.71549 -21870788.18145  21998713.907    21998720.078
       207.000         148.000
 98  1  3  8 44 29.9920000  0  7G22G21G23G17G 6G26G30
  21299188.081   -16277862.29549 -12655244.36046  21299187.120    21299193.556
       222.000         169.000
  22062922.325    -6855580.85849  -5015585.33045  22062921.927    22062929.079
       213.000         155.000
  19081589.547   -26756139.05049 -20829383.38847  19081588.941    19081595.349
       241.000         208.000
  18635882.127   -36701851.50649 -28562373.65147  18635881.708    18635887.698
       243.000         210.000
  18149521.886   -43141258.44449 -33589941.25648  18149521.897    18149527.310
       245.000         216.000
  19718715.966   -22394469.86349 -17432256.90346  19718715.757    19718721.513
       231.000         187.000
  22011895.768   -28033449.54949 -21816812.21245  22011895.782    22011901.828
       204.000         144.000
 98  1  3  8 44 59.9920000  0  7G22G21G23G17G 6G26G30
  21290260.056   -16324779.50249 -12691803.21046  21290259.240    21290266.381
       222.000         170.000
  22039316.441    -6979630.89049  -5112247.63445  22039316.749    22039322.442
       212.000         155.000
  19065160.421   -26842474.60649 -20896657.81947  19065159.834    19065166.413
       241.000         209.000
  18625388.236   -36756997.58049 -28605344.61147  18625387.592    18625393.512
       243.000         210.000
  18149213.722   -43142878.07049 -33591203.30448  18149213.771    18149219.052
       246.000         216.000
  19707398.962   -22453941.10149 -17478598.11346  19707399.101    19707404.650
       231.000         187.000
  22025062.077   -27964259.42749 -21762897.82745  22025061.797    22025067.538
       205.000         141.000
 98  1  3  8 45 29.9920000  0  7G22G21G23G17G 6G26G30
  21281435.827   -16371151.40049 -12727937.14046  21281434.909    21281441.249
       222.000         170.000
  22015743.723    -7103506.61849  -5208774.13445  22015743.648    22015749.866
       213.000         155.000
  19048812.472   -26928383.40149 -20963599.70447  19048811.882    19048818.226
       242.000         209.000
  18614929.385   -36811959.37749 -28648171.98847  18614928.913    18614934.823
       244.000         210.000
  18149006.431   -43143967.62249 -33592052.30648  18149006.524    18149011.684
       245.000         216.000
  19696194.492   -22512821.01649 -17524478.55647  19696194.508    19696200.166
       231.000         188.000
  22038219.612   -27895117.36449 -21709020.88445  22038220.797    22038224.969
       209.000         139.000
 98  1  3  8 45 59.9920000  0  7G22G21G23G17G 6G26G30
  21272708.742   -16417012.41149 -12763672.96946  21272707.771    21272714.121
       222.000         170.000
  21992195.014    -7227256.07749  -5305202.24545  21992194.471    21992201.350
       214.000         154.000
  19032538.145   -27013905.41349 -21030240.18247  19032537.768    19032543.982
       241.000         209.000
  18604493.544   -36866800.12049 -28690905.02947  18604492.988    18604499.128
       243.000         210.000
  18148891.740   -43144570.27649 -33592521.93348  18148891.554    18148897.021
       246.000         215.000
  19685091.848   -22571165.65649 -17569941.90847  19685092.414    19685098.080
       231.000         188.000
  22051358.629   -27826072.45249 -21655219.63345  22051358.482    22051364.570
       211.000         139.000
 98  1  3  8 46 29.9920000  0  7G22G21G23G17G 6G26G30
  21264081.453   -16462349.45649 -12799000.51946  21264080.014    21264086.763
       222.000         170.000
  21968675.846    -7350850.00049  -5401509.17245  21968675.153    21968682.503
       212.000         153.000
  19016341.426   -27099019.74249 -21096562.99147  19016340.821    19016347.260
       241.000         209.000
  18594086.182   -36921490.93449 -28733521.24047  18594085.423    18594091.796
       243.000         210.000
  18148872.888   -43144669.29249 -33592599.08648  18148872.847    18148878.388
       245.000         215.000
  19674097.539   -22628941.05149 -17614961.68347  19674097.736    19674103.206
       231.000         188.000
  22064487.640   -27757079.63949 -21601458.98945  22064488.942    22064491.828
       211.000         139.000
 98  1  3  8 46 59.9920000  0  7G22G21G23G17G 6G26G30
  21255551.076   -16507176.85749 -12833930.95346  21255550.888    21255556.362
       223.000         170.000
  21945186.698    -7474286.09949  -5497693.11845  21945185.844    21945193.266
       214.000         155.000
  19000223.314   -27183720.87149 -21162563.82747  19000222.809    19000228.839
       241.000         209.000
  18583708.200   -36976027.24549 -28776017.05647  18583707.477    18583713.567
       242.000         210.000
  18148951.085   -43144258.49149 -33592278.98148  18148951.033    18148956.361
       245.000         215.000
  19663211.315   -22686148.41649 -17659538.84247  19663211.282    19663216.846
       231.000         188.000
  22077609.627   -27688122.77049 -21547726.35945  22077609.869    22077615.056
       213.000         140.000
 98  1  3  8 47 29.9920000  0  7G22G21G23G17G 6G26G30
  21247115.185   -16551508.55949 -12868475.11846  21247114.609    21247120.487
       223.000         170.000
  21921726.861    -7597568.00549  -5593756.87845  21921725.975    21921732.713
       214.000         156.000
  18984180.953   -27268023.77449 -21228254.37747  18984180.645    18984186.664
       242.000         209.000
  18573357.917   -37030418.16549 -28818399.57947  18573357.442    18573363.507
       242.000         210.000
  18149124.142   -43143349.18449 -33591570.44148  18149124.103    18149129.693
       245.000         215.000
  19652427.332   -22742818.65949 -17703697.46347  19652427.478    19652433.271
       232.000         188.000
  22090722.627   -27619213.37849 -21494030.75845  22090723.001    22090727.077
       213.000         142.000
 98  1  3  8 47 59.9920000  0  7G22G21G23G17G 6G26G30
  21238778.296   -16595318.60149 -12902612.82646  21238776.121    21238784.324
       221.000         169.000
  21898306.970    -7720639.95349  -5689657.04345  21898307.207    21898313.434
       214.000         155.000
  18968219.754   -27351900.53249 -21293612.86347  18968219.125    18968225.494
       242.000         209.000
  18563048.286   -37084595.64949 -28860615.78647  18563047.759    18563053.609
       242.000         210.000
  18149396.717   -43141916.70549 -33590454.22048  18149396.614    18149402.291
       245.000         215.000
  19641752.047   -22798917.70949 -17747410.99747  19641752.258    19641757.759
       231.000         188.000
  22103832.235   -27550321.70349 -21440348.96645  22103833.494    22103837.880
       216.000         144.000
 98  1  3  8 48 29.9920000  0  7G22G21G23G17G 6G26G30
  21230536.141   -16638631.21049 -12936362.91046  21230536.356    21230542.081
       222.000         169.000
  21874923.414    -7843520.87449  -5785408.37645  21874923.126    21874930.299
       217.000         155.000
  18952335.710   -27435371.58049 -21358655.21747  18952335.191    18952341.519
       242.000         209.000
  18552779.262   -37138559.85349 -28902665.80347  18552778.699    18552784.588
       242.000         210.000
  18149762.815   -43139992.74149 -33588955.02748  18149762.721    18149768.300
       245.000         215.000
  19631182.420   -22854461.36549 -17790691.75947  19631182.835    19631187.780
       232.000         188.000
  22116936.038   -27481461.19649 -21386691.45845  22116936.134    22116941.228
       215.000         148.000
 98  1  3  8 48 59.9920000  0  7G22G21G23G17G 6G26G30
  21222394.678   -16681414.94449 -12969700.86946  21222392.703    21222400.839
       220.000         169.000
  21851580.397    -7966189.38449  -5880994.20845  21851580.266    21851586.675
       221.000         158.000
  18936533.414   -27518413.04849 -21423362.83247  18936533.041    18936538.986
       242.000         209.000
  18542555.765   -37192284.75549 -28944529.36547  18542555.236    18542561.125
       242.000         210.000
  18150228.017   -43137548.03649 -33587050.06548  18150228.149    18150233.414
       245.000         215.000
  19620721.719   -22909432.95949 -17833526.76347  19620721.967    19620727.398
       231.000         188.000
  22130035.915   -27412621.23949 -21333049.98345  22130036.345    22130041.275
       217.000         151.000
 98  1  3  8 49 29.9920000  0  7G22G21G23G17G 6G26G30
  21214353.589   -16723670.28749 -13002627.11246  21214352.899    21214359.848
       221.000         169.000
  21828274.538    -8088662.70849  -5976427.95545  21828274.070    21828280.055
       222.000         160.000
  18920808.235   -27601049.18149 -21487754.59047  18920807.547    18920813.965
       242.000         209.000
  18532374.710   -37245786.43649 -28986218.97747  18532374.044    18532380.192
       242.000         210.000
  18150787.242   -43134609.45349 -33584760.26548  18150787.351    18150792.623
       245.000         215.000
  19610367.375   -22963845.50249 -17875926.13547  19610367.465    19610372.807
       232.000         189.000
  22143124.330   -27343841.92249 -21279455.78445  22143124.774    22143130.707
       215.000         152.000
 98  1  3  8 49 59.9920000  0  7G22G21G23G17G 6G26G30
  21206406.231   -16765433.49349 -13035169.87046  21206405.161    21206412.527
       221.000         169.000
  21804996.787    -8210987.81849  -6071746.21745  21804996.175    21805003.008
       220.000         159.000
  18905152.036   -27683322.90549 -21551863.95547  18905151.636    18905157.651
       242.000         209.000
  18522230.943   -37299092.22949 -29027755.94147  18522230.387    18522236.360
       242.000         211.000
  18151434.307   -43131208.85449 -33582110.45048  18151434.214    18151439.657
       245.000         215.000
  19600116.396   -23017714.14649 -17917901.69047  19600116.752    19600121.972
       232.000         189.000
  22156192.902   -27275166.72749 -21225942.68945  22156193.267    22156198.277
       216.000         152.000
 98  1  3  8 50 29.9920000  0  7G22G21G23G17G 6G26G30
  21198562.527   -16806652.70149 -13067288.72146  21198561.961    21198569.019
       221.000         169.000
  21781754.547    -8333126.53049  -6166919.22645  21781755.514    21781760.333
       218.000         158.000
  18889576.005   -27765175.33049 -21615645.03047  18889575.529    18889581.718
       242.000         209.000
  18512129.055   -37352178.11549 -29069121.56247  18512128.520    18512134.600
       243.000         211.000
  18152181.460   -43127282.41149 -33579050.88648  18152181.566    18152187.046
       244.000         215.000
  19589981.522   -23070973.53649 -17959402.50347  19589981.938    19589987.350
       233.000         189.000
  22169250.895   -27206547.52449 -21172473.25045  22169251.686    22169255.761
       216.000         149.000
 98  1  3  8 50 59.9920000  0  7G22G21G23G17G 6G26G30
  21190817.015   -16847354.92649 -13099004.75046  21190816.073    21190822.728
       220.000         169.000
  21758542.381    -8455107.09449  -6261969.01145  21758541.805    21758548.077
       215.000         156.000
  18874073.645   -27846640.50849 -21679124.37047  18874073.051    18874079.444
       243.000         209.000
  18502059.987   -37405091.54949 -29110352.79347  18502059.361    18502065.462
       243.000         211.000
  18153025.143   -43122848.88049 -33575596.19148  18153025.032    18153030.664
       244.000         214.000
  19579957.291   -23123651.24149 -18000450.05447  19579957.477    19579962.965
       232.000         189.000
  22182291.017   -27138021.93149 -21119076.84945  22182292.239    22182296.351
       209.000         145.000
 98  1  3  8 51 29.9920000  0  7G22G21G23G17G 6G26G30
  21183169.844   -16887540.47949 -13130318.18046  21183169.087    21183176.160
       220.000         168.000
  21735361.646    -8576921.92549  -6356889.64145  21735361.013    21735367.618
       215.000         152.000
  18858645.181   -27927717.48649 -21742301.25547  18858644.742    18858650.845
       243.000         209.000
  18492023.160   -37457835.66049 -29151452.09547  18492022.789    18492028.454
       243.000         211.000
  18153964.338   -43117913.54249 -33571750.48848  18153964.342    18153969.847
       245.000         214.000
  19570044.142   -23175744.86349 -18041042.47847  19570044.240    19570049.498
       232.000         189.000
  22195314.754   -27069580.80249 -21065746.13845  22195313.994    22195319.629
       208.000         140.000
 98  1  3  8 51 59.9920000  0  7G22G21G23G17G 6G26G30
  21175618.378   -16927224.27549 -13161240.61946  21175617.975    21175624.117
       222.000         169.000
  21712214.164    -8698562.95749  -6451674.85245  21712213.647    21712221.356
       216.000         152.000
  18843291.934   -28008399.36349 -21805170.26947  18843291.411    18843297.718
       243.000         209.000
  18482019.602   -37510404.76449 -29192415.03147  18482018.895    18482024.975
       243.000         211.000
  18154999.472   -43112473.77549 -33567511.73048  18154999.345    18155004.928
       244.000         214.000
  19560243.590   -23227247.05849 -18081174.04547  19560243.665    19560249.096
       233.000         190.000
  22208326.792   -27001200.65349 -21012462.85745  22208326.965    22208332.620
       202.000         135.000
 98  1  3  8 52 29.9920000  0  7G22G21G23G17G 6G26G30
  21168165.517   -16966389.66149 -13191759.09546  21168164.774    21168171.734
       220.000         168.000
  21689103.151    -8820012.50449  -6546310.85345  21689102.557    21689109.335
       217.000         152.000
  18828015.968   -28088675.01349 -21867722.72247  18828015.546    18828021.563
       244.000         209.000
  18472048.607   -37562802.74549 -29233244.62847  18472048.037    18472053.935
       243.000         211.000
  18156129.819   -43106533.78149 -33562883.17648  18156129.683    18156135.163
       244.000         214.000
  19550554.709   -23278162.56249 -18120848.45847  19550554.853    19550560.556
       233.000         190.000
  22221330.166   -26932866.75449 -20959215.64145  22221331.902    22221333.344
       202.000         134.000
 98  1  3  8 52 59.9920000  0  7G22G21G23G17G 6G26G30
  21160810.670   -17005039.20549 -13221875.63146  21160810.086    21160815.984
       222.000         168.000
  21666028.050    -8941273.18249  -6640799.70445  21666028.071    21666033.950
       218.000         153.000
  18812813.701   -28168563.32949 -21929973.33947  18812813.160    18812819.473
       243.000         209.000
  18462111.065   -37615024.49349 -29273936.89447  18462110.187    18462116.367
       243.000         211.000
  18157351.230   -43100115.07549 -33557881.59448  18157351.097    18157356.609
       244.000         214.000
  19540973.359   -23328512.80149 -18160082.40247  19540973.306    19540979.109
       233.000         190.000
  22234323.374   -26864586.61249 -20906010.30045  22234323.378    22234329.098
       205.000         134.000
 98  1  3  8 53 29.9920000  0  7G22G21G23G17G 6G26G30
  21153553.173   -17043178.36349 -13251594.44246  21153552.650    21153559.322
       222.000         169.000
  21642990.671    -9062335.69649  -6735134.15045  21642990.669    21642995.977
       218.000         153.000
  18797687.164   -28248053.89549 -21991914.00847  18797686.802    18797692.902
       244.000         209.000
  18452209.681   -37667056.44449 -29314481.26847  18452209.002    18452215.053
       243.000         211.000
  18158662.817   -43093222.60049 -33552510.84648  18158662.779    18158668.398
       244.000         214.000
  19531500.852   -23378291.14949 -18198870.71647  19531501.303    19531506.524
       235.000         191.000
  22247303.858   -26796373.50449 -20852857.16845  22247304.482    22247310.313
       208.000         135.000
 98  1  3  8 53 59.9920000  0  7G22G21G23G17G 6G26G30
  21146396.667   -17080786.38149 -13280899.38846  21146395.555    21146401.902
       221.000         169.000
  21619994.895    -9183179.27149  -6829298.01445  21619994.010    21619999.862
       216.000         153.000
  18782638.210   -28327136.94449 -22053537.13747  18782637.850    18782643.970
       243.000         210.000
  18442344.975   -37718895.67249 -29354875.47047  18442344.361    18442350.380
       243.000         211.000
  18160066.551   -43085846.11749 -33546762.94548  18160066.707    18160072.038
       244.000         214.000
  19522140.023   -23427482.63149 -18237201.73647  19522140.224    19522145.533
       233.000         191.000
  22260269.807   -26728237.28749 -20799763.97145  22260269.456    22260274.932
       211.000         137.000
